Time,TemperatureF,DewpointF,PressureIn,WindDirection,WindDirectionDegrees,WindSpeedMPH,WindSpeedGustMPH,Humidity,HourlyPrecipIn,Conditions,Clouds,dailyrainin,SolarRadiationWatts/m^2,SoftwareType,DateUTC
2013-02-02 00:00:00,47.2,25.9,30.34,North,353,6.0,13.0,43,0.00,,---,0.00,0.00,VWS V14.00,2013-02-02 05:00:00,
2013-02-02 00:01:00,47.2,25.9,30.34,North,9,10.0,10.0,43,0.00,,---,0.00,0.00,VWS V14.00,2013-02-02 05:01:00,
2013-02-02 00:02:00,47.2,26.4,30.34,North,7,6.0,10.0,44,0.00,,---,0.00,0.00,VWS V14.00,2013-02-02 05:02:00,
2013-02-02 00:03:00,47.2,27.0,30.34,North,2,6.0,10.0,45,0.00,,---,0.00,0.00,VWS V14.00,2013-02-02 05:03:00,
2013-02-02 00:04:00,47.2,27.5,30.34,NNE,16,5.0,10.0,46,0.00,,---,0.00,0.00,VWS V14.00,2013-02-02 05:04:00,
2013-02-02 00:05:00,47.2,27.0,30.34,North,351,6.0,10.0,45,0.00,,---,0.00,0.00,VWS V14.00,2013-02-02 05:05:00,
2013-02-02 00:06:00,47.1,26.9,30.34,North,349,6.0,10.0,45,0.00,,---,0.00,0.00,VWS V14.00,2013-02-02 05:06:00,
2013-02-02 00:07:00,47.1,25.8,30.34,NNW,344,6.0,10.0,43,0.00,,---,0.00,0.00,VWS V14.00,2013-02-02 05:07:00,
2013-02-02 00:08:00,47.0,25.7,30.34,North,6,8.0,10.0,43,0.00,,---,0.00,0.00,VWS V14.00,2013-02-02 05:08:00,
2013-02-02 00:09:00,47.0,26.8,30.34,North,350,5.0,10.0,45,0.00,,---,0.00,0.00,VWS V14.00,2013-02-02 05:09:00,
2013-02-02 00:10:00,47.0,27.8,30.34,NNW,346,8.0,10.0,47,0.00,,---,0.00,0.00,VWS V14.00,2013-02-02 05:10:00,
2013-02-02 00:11:00,47.0,26.8,30.34,North,355,6.0,10.0,45,0.00,,---,0.00,0.00,VWS V14.00,2013-02-02 05:11:00,
2013-02-02 00:12:00,46.9,27.2,30.34,NNE,14,6.0,10.0,46,0.00,,---,0.00,0.00,VWS V14.00,2013-02-02 05:12:00,
2013-02-02 00:13:00,46.9,26.1,30.34,NNW,346,6.0,10.0,44,0.00,,---,0.00,0.00,VWS V14.00,2013-02-02 05:13:00,
2013-02-02 00:14:00,46.9,27.7,30.34,North,11,6.0,10.0,47,0.00,,---,0.00,0.00,VWS V14.00,2013-02-02 05:14:00,
2013-02-02 00:15:00,46.9,27.2,30.34,North,359,6.0,10.0,46,0.00,,---,0.00,0.00,VWS V14.00,2013-02-02 05:15:00,
2013-02-02 00:16:00,46.8,25.5,30.34,North,9,4.0,10.0,43,0.00,,---,0.00,0.00,VWS V14.00,2013-02-02 05:16:00,
2013-02-02 00:17:00,46.8,26.0,30.34,North,8,5.0,10.0,44,0.00,,---,0.00,0.00,VWS V14.00,2013-02-02 05:17:00,
2013-02-02 00:18:00,46.7,25.4,30.34,North,8,7.0,10.0,43,0.00,,---,0.00,0.00,VWS V14.00,2013-02-02 05:18:00,
2013-02-02 00:19:00,46.7,26.0,30.34,North,8,5.0,10.0,44,0.00,,---,0.00,0.00,VWS V14.00,2013-02-02 05:19:00,
2013-02-02 00:20:00,46.6,25.9,30.34,NNE,33,7.0,10.0,44,0.00,,---,0.00,0.00,VWS V14.00,2013-02-02 05:20:00,
2013-02-02 00:21:00,46.5,25.8,30.34,NNE,14,4.0,10.0,44,0.00,,---,0.00,0.00,VWS V14.00,2013-02-02 05:21:00,
2013-02-02 00:22:00,46.5,25.2,30.34,North,355,4.0,10.0,43,0.00,,---,0.00,0.00,VWS V14.00,2013-02-02 05:22:00,
2013-02-02 00:23:00,46.5,25.8,30.34,North,349,5.0,10.0,44,0.00,,---,0.00,0.00,VWS V14.00,2013-02-02 05:23:00,
2013-02-02 00:24:00,46.4,24.6,30.34,NNW,348,6.0,10.0,42,0.00,,---,0.00,0.00,VWS V14.00,2013-02-02 05:24:00,
2013-02-02 00:25:00,46.4,27.3,30.34,North,351,5.0,10.0,47,0.00,,---,0.00,0.00,VWS V14.00,2013-02-02 05:25:00,
2013-02-02 00:26:00,46.4,25.1,30.34,North,7,6.0,10.0,43,0.00,,---,0.00,0.00,VWS V14.00,2013-02-02 05:26:00,
2013-02-02 00:27:00,46.4,27.8,30.34,NNW,348,5.0,10.0,48,0.00,,---,0.00,0.00,VWS V14.00,2013-02-02 05:27:00,
2013-02-02 00:28:00,46.4,25.1,30.34,NNW,344,5.0,10.0,43,0.00,,---,0.00,0.00,VWS V14.00,2013-02-02 05:28:00,
2013-02-02 00:29:00,46.3,25.6,30.34,North,351,7.0,10.0,44,0.00,,---,0.00,0.00,VWS V14.00,2013-02-02 05:29:00,
2013-02-02 00:30:00,46.3,25.0,30.34,North,359,7.0,10.0,43,0.00,,---,0.00,0.00,VWS V14.00,2013-02-02 05:30:00,
2013-02-02 00:31:00,46.3,25.0,30.34,North,4,7.0,7.0,43,0.00,,---,0.00,0.00,VWS V14.00,2013-02-02 05:31:00,
2013-02-02 00:32:00,46.2,26.0,30.34,North,2,6.0,7.0,45,0.00,,---,0.00,0.00,VWS V14.00,2013-02-02 05:32:00,
2013-02-02 00:33:00,46.1,24.3,30.34,North,360,7.0,7.0,42,0.00,,---,0.00,0.00,VWS V14.00,2013-02-02 05:33:00,
2013-02-02 00:34:00,46.1,24.9,30.34,North,358,3.0,7.0,43,0.00,,---,0.00,0.00,VWS V14.00,2013-02-02 05:34:00,
2013-02-02 00:35:00,46.1,25.4,30.34,North,10,5.0,7.0,44,0.00,,---,0.00,0.00,VWS V14.00,2013-02-02 05:35:00,
2013-02-02 00:36:00,46.0,25.9,30.34,North,351,5.0,7.0,45,0.00,,---,0.00,0.00,VWS V14.00,2013-02-02 05:36:00,
2013-02-02 00:37:00,46.0,25.9,30.34,North,351,5.0,7.0,45,0.00,,---,0.00,0.00,VWS V14.00,2013-02-02 05:37:00,
2013-02-02 00:38:00,46.0,25.9,30.34,NNW,347,6.0,9.0,45,0.00,,---,0.00,0.00,VWS V14.00,2013-02-02 05:38:00,
2013-02-02 00:39:00,46.0,25.3,30.34,NNW,346,7.0,9.0,44,0.00,,---,0.00,0.00,VWS V14.00,2013-02-02 05:39:00,
2013-02-02 00:40:00,46.0,25.9,30.34,NNW,344,9.0,10.0,45,0.00,,---,0.00,0.00,VWS V14.00,2013-02-02 05:40:00,
2013-02-02 00:41:00,46.0,24.8,30.34,North,349,6.0,10.0,43,0.00,,---,0.00,0.00,VWS V14.00,2013-02-02 05:41:00,
2013-02-02 00:42:00,46.0,25.3,30.34,NNW,344,5.0,10.0,44,0.00,,---,0.00,0.00,VWS V14.00,2013-02-02 05:42:00,
2013-02-02 00:43:00,45.9,26.3,30.34,NNW,345,5.0,10.0,46,0.00,,---,0.00,0.00,VWS V14.00,2013-02-02 05:43:00,
2013-02-02 00:44:00,45.9,25.8,30.34,North,355,7.0,10.0,45,0.00,,---,0.00,0.00,VWS V14.00,2013-02-02 05:44:00,
2013-02-02 00:45:00,45.9,25.8,30.34,NNW,343,7.0,10.0,45,0.00,,---,0.00,0.00,VWS V14.00,2013-02-02 05:45:00,
2013-02-02 00:46:00,45.8,25.7,30.34,North,351,7.0,10.0,45,0.00,,---,0.00,0.00,VWS V14.00,2013-02-02 05:46:00,
2013-02-02 00:47:00,45.8,25.7,30.34,North,349,8.0,10.0,45,0.00,,---,0.00,0.00,VWS V14.00,2013-02-02 05:47:00,
2013-02-02 00:48:00,45.8,25.7,30.34,North,349,7.0,10.0,45,0.00,,---,0.00,0.00,VWS V14.00,2013-02-02 05:48:00,
2013-02-02 00:49:00,45.7,24.5,30.34,North,355,7.0,11.0,43,0.00,,---,0.00,0.00,VWS V14.00,2013-02-02 05:49:00,
2013-02-02 00:50:00,45.7,23.9,30.34,North,2,8.0,11.0,42,0.00,,---,0.00,0.00,VWS V14.00,2013-02-02 05:50:00,
2013-02-02 00:51:00,45.6,25.0,30.34,NNW,344,6.0,11.0,44,0.00,,---,0.00,0.00,VWS V14.00,2013-02-02 05:51:00,
2013-02-02 00:52:00,45.6,24.4,30.34,North,360,6.0,11.0,43,0.00,,---,0.00,0.00,VWS V14.00,2013-02-02 05:52:00,
2013-02-02 00:53:00,45.6,26.0,30.34,North,355,5.0,11.0,46,0.00,,---,0.00,0.00,VWS V14.00,2013-02-02 05:53:00,
2013-02-02 00:54:00,45.6,27.6,30.34,North,349,6.0,11.0,49,0.00,,---,0.00,0.00,VWS V14.00,2013-02-02 05:54:00,
2013-02-02 00:55:00,45.6,27.1,30.34,North,350,7.0,11.0,48,0.00,,---,0.00,0.00,VWS V14.00,2013-02-02 05:55:00,
2013-02-02 00:56:00,45.6,24.4,30.34,NNW,339,7.0,11.0,43,0.00,,---,0.00,0.00,VWS V14.00,2013-02-02 05:56:00,
2013-02-02 00:57:00,45.6,26.0,30.34,NNW,343,6.0,11.0,46,0.00,,---,0.00,0.00,VWS V14.00,2013-02-02 05:57:00,
2013-02-02 00:58:00,45.6,26.0,30.34,North,350,7.0,11.0,46,0.00,,---,0.00,0.00,VWS V14.00,2013-02-02 05:58:00,
2013-02-02 00:59:00,45.6,25.5,30.34,North,354,7.0,11.0,45,0.00,,---,0.00,0.00,VWS V14.00,2013-02-02 05:59:00,
2013-02-02 01:00:00,45.5,24.9,30.34,North,353,7.0,11.0,44,0.00,,---,0.00,0.00,VWS V14.00,2013-02-02 06:00:00,
2013-02-02 01:01:00,45.5,25.9,30.34,North,7,6.0,8.0,46,0.00,,---,0.00,0.00,VWS V14.00,2013-02-02 06:01:00,
2013-02-02 01:02:00,45.5,25.9,30.34,North,1,8.0,10.0,46,0.00,,---,0.00,0.00,VWS V14.00,2013-02-02 06:02:00,
2013-02-02 01:03:00,45.4,25.3,30.34,North,351,6.0,10.0,45,0.00,,---,0.00,0.00,VWS V14.00,2013-02-02 06:03:00,
2013-02-02 01:04:00,45.4,25.3,30.34,North,355,6.0,10.0,45,0.00,,---,0.00,0.00,VWS V14.00,2013-02-02 06:04:00,
2013-02-02 01:05:00,45.4,24.8,30.34,North,2,7.0,10.0,44,0.00,,---,0.00,0.00,VWS V14.00,2013-02-02 06:05:00,
2013-02-02 01:06:00,45.4,25.3,30.34,North,355,5.0,10.0,45,0.00,,---,0.00,0.00,VWS V14.00,2013-02-02 06:06:00,
2013-02-02 01:07:00,45.3,25.8,30.34,NNE,20,8.0,10.0,46,0.00,,---,0.00,0.00,VWS V14.00,2013-02-02 06:07:00,
2013-02-02 01:08:00,45.3,25.2,30.34,North,9,7.0,10.0,45,0.00,,---,0.00,0.00,VWS V14.00,2013-02-02 06:08:00,
2013-02-02 01:09:00,45.3,26.8,30.34,North,358,6.0,10.0,48,0.00,,---,0.00,0.00,VWS V14.00,2013-02-02 06:09:00,
2013-02-02 01:10:00,45.2,25.7,30.34,NNW,347,6.0,10.0,46,0.00,,---,0.00,0.00,VWS V14.00,2013-02-02 06:10:00,
2013-02-02 01:11:00,45.2,26.2,30.34,North,355,6.0,10.0,47,0.00,,---,0.00,0.00,VWS V14.00,2013-02-02 06:11:00,
2013-02-02 01:12:00,45.2,24.6,30.34,North,6,9.0,10.0,44,0.00,,---,0.00,0.00,VWS V14.00,2013-02-02 06:12:00,
2013-02-02 01:13:00,45.1,24.5,30.34,NNW,344,6.0,10.0,44,0.00,,---,0.00,0.00,VWS V14.00,2013-02-02 06:13:00,
2013-02-02 01:14:00,45.1,25.6,30.34,North,350,7.0,10.0,46,0.00,,---,0.00,0.00,VWS V14.00,2013-02-02 06:14:00,
2013-02-02 01:15:00,45.1,25.6,30.34,North,4,7.0,10.0,46,0.00,,---,0.00,0.00,VWS V14.00,2013-02-02 06:15:00,
2013-02-02 01:16:00,45.0,25.5,30.34,North,6,5.0,10.0,46,0.00,,---,0.00,0.00,VWS V14.00,2013-02-02 06:16:00,
2013-02-02 01:17:00,45.0,25.0,30.34,NNE,13,7.0,10.0,45,0.00,,---,0.00,0.00,VWS V14.00,2013-02-02 06:17:00,
2013-02-02 01:18:00,44.9,24.9,30.34,NNE,15,7.0,10.0,45,0.00,,---,0.00,0.00,VWS V14.00,2013-02-02 06:18:00,
2013-02-02 01:19:00,44.9,24.9,30.34,NNE,29,6.0,10.0,45,0.00,,---,0.00,0.00,VWS V14.00,2013-02-02 06:19:00,
2013-02-02 01:20:00,44.8,24.2,30.34,NNE,27,4.0,10.0,44,0.00,,---,0.00,0.00,VWS V14.00,2013-02-02 06:20:00,
2013-02-02 01:21:00,44.8,25.8,30.34,North,11,6.0,10.0,47,0.00,,---,0.00,0.00,VWS V14.00,2013-02-02 06:21:00,
2013-02-02 01:22:00,44.8,25.3,30.34,North,8,5.0,10.0,46,0.00,,---,0.00,0.00,VWS V14.00,2013-02-02 06:22:00,
2013-02-02 01:23:00,44.8,25.3,30.34,North,9,4.0,10.0,46,0.00,,---,0.00,0.00,VWS V14.00,2013-02-02 06:23:00,
2013-02-02 01:24:00,44.8,25.8,30.34,North,9,4.0,10.0,47,0.00,,---,0.00,0.00,VWS V14.00,2013-02-02 06:24:00,
2013-02-02 01:25:00,44.7,25.2,30.34,North,9,7.0,10.0,46,0.00,,---,0.00,0.00,VWS V14.00,2013-02-02 06:25:00,
2013-02-02 01:26:00,44.7,25.2,30.34,North,5,4.0,10.0,46,0.00,,---,0.00,0.00,VWS V14.00,2013-02-02 06:26:00,
2013-02-02 01:27:00,44.7,25.7,30.34,North,5,4.0,10.0,47,0.00,,---,0.00,0.00,VWS V14.00,2013-02-02 06:27:00,
2013-02-02 01:28:00,44.7,26.2,30.34,North,5,2.0,10.0,48,0.00,,---,0.00,0.00,VWS V14.00,2013-02-02 06:28:00,
2013-02-02 01:29:00,44.7,26.2,30.34,North,5,8.0,10.0,48,0.00,,---,0.00,0.00,VWS V14.00,2013-02-02 06:29:00,
2013-02-02 01:30:00,44.7,25.2,30.34,North,4,5.0,10.0,46,0.00,,---,0.00,0.00,VWS V14.00,2013-02-02 06:30:00,
2013-02-02 01:31:00,44.6,25.1,30.34,North,3,5.0,6.0,46,0.00,,---,0.00,0.00,VWS V14.00,2013-02-02 06:31:00,
2013-02-02 01:32:00,44.6,25.6,30.34,North,2,5.0,6.0,47,0.00,,---,0.00,0.00,VWS V14.00,2013-02-02 06:32:00,
2013-02-02 01:33:00,44.6,24.6,30.34,North,3,5.0,6.0,45,0.00,,---,0.00,0.00,VWS V14.00,2013-02-02 06:33:00,
2013-02-02 01:34:00,44.6,26.1,30.34,North,2,3.0,6.0,48,0.00,,---,0.00,0.00,VWS V14.00,2013-02-02 06:34:00,
2013-02-02 01:35:00,44.5,25.0,30.34,North,2,3.0,6.0,46,0.00,,---,0.00,0.00,VWS V14.00,2013-02-02 06:35:00,
2013-02-02 01:36:00,44.5,24.5,30.34,North,2,4.0,6.0,45,0.00,,---,0.00,0.00,VWS V14.00,2013-02-02 06:36:00,
2013-02-02 01:37:00,44.5,24.0,30.34,North,2,2.0,6.0,44,0.00,,---,0.00,0.00,VWS V14.00,2013-02-02 06:37:00,
2013-02-02 01:38:00,44.5,24.5,30.34,North,2,4.0,6.0,45,0.00,,---,0.00,0.00,VWS V14.00,2013-02-02 06:38:00,
2013-02-02 01:39:00,44.4,24.4,30.34,North,2,2.0,6.0,45,0.00,,---,0.00,0.00,VWS V14.00,2013-02-02 06:39:00,
2013-02-02 01:40:00,44.4,24.9,30.34,North,2,3.0,6.0,46,0.00,,---,0.00,0.00,VWS V14.00,2013-02-02 06:40:00,
2013-02-02 01:41:00,44.3,25.4,30.34,North,2,3.0,6.0,47,0.00,,---,0.00,0.00,VWS V14.00,2013-02-02 06:41:00,
2013-02-02 01:42:00,44.3,24.3,30.34,North,2,4.0,6.0,45,0.00,,---,0.00,0.00,VWS V14.00,2013-02-02 06:42:00,
2013-02-02 01:43:00,44.3,24.8,30.34,North,2,5.0,6.0,46,0.00,,---,0.00,0.00,VWS V14.00,2013-02-02 06:43:00,
2013-02-02 01:44:00,44.3,24.8,30.34,North,2,5.0,6.0,46,0.00,,---,0.00,0.00,VWS V14.00,2013-02-02 06:44:00,
2013-02-02 01:45:00,44.2,24.8,30.34,North,2,5.0,6.0,46,0.00,,---,0.00,0.00,VWS V14.00,2013-02-02 06:45:00,
2013-02-02 01:46:00,44.2,24.8,30.34,North,1,3.0,6.0,46,0.00,,---,0.00,0.00,VWS V14.00,2013-02-02 06:46:00,
2013-02-02 01:47:00,44.2,25.3,30.34,North,1,6.0,6.0,47,0.00,,---,0.00,0.00,VWS V14.00,2013-02-02 06:47:00,
2013-02-02 01:48:00,44.2,25.8,30.34,North,360,4.0,6.0,48,0.00,,---,0.00,0.00,VWS V14.00,2013-02-02 06:48:00,
2013-02-02 01:49:00,44.2,25.3,30.34,NNW,348,6.0,7.0,47,0.00,,---,0.00,0.00,VWS V14.00,2013-02-02 06:49:00,
2013-02-02 01:50:00,44.1,24.7,30.33,NNW,348,3.0,8.0,46,0.00,,---,0.00,0.00,VWS V14.00,2013-02-02 06:50:00,
2013-02-02 01:51:00,44.1,24.1,30.34,North,5,5.0,8.0,45,0.00,,---,0.00,0.00,VWS V14.00,2013-02-02 06:51:00,
2013-02-02 01:52:00,44.0,24.0,30.34,North,10,5.0,8.0,45,0.00,,---,0.00,0.00,VWS V14.00,2013-02-02 06:52:00,
2013-02-02 01:53:00,44.0,24.6,30.34,North,10,3.0,8.0,46,0.00,,---,0.00,0.00,VWS V14.00,2013-02-02 06:53:00,
2013-02-02 01:54:00,44.0,24.0,30.34,North,7,6.0,8.0,45,0.00,,---,0.00,0.00,VWS V14.00,2013-02-02 06:54:00,
2013-02-02 01:55:00,43.8,24.4,30.34,North,7,4.0,8.0,46,0.00,,---,0.00,0.00,VWS V14.00,2013-02-02 06:55:00,
2013-02-02 01:56:00,43.8,24.9,30.34,North,7,2.0,8.0,47,0.00,,---,0.00,0.00,VWS V14.00,2013-02-02 06:56:00,
2013-02-02 01:57:00,43.8,25.4,30.34,North,6,5.0,8.0,48,0.00,,---,0.00,0.00,VWS V14.00,2013-02-02 06:57:00,
2013-02-02 01:58:00,43.8,25.4,30.34,North,358,4.0,8.0,48,0.00,,---,0.00,0.00,VWS V14.00,2013-02-02 06:58:00,
2013-02-02 01:59:00,43.8,24.9,30.33,North,358,5.0,8.0,47,0.00,,---,0.00,0.00,VWS V14.00,2013-02-02 06:59:00,
2013-02-02 02:00:00,43.7,24.3,30.34,North,358,2.0,8.0,46,0.00,,---,0.00,0.00,VWS V14.00,2013-02-02 07:00:00,
2013-02-02 02:01:00,43.7,24.8,30.33,North,358,4.0,4.0,47,0.00,,---,0.00,0.00,VWS V14.00,2013-02-02 07:01:00,
2013-02-02 02:02:00,43.6,24.7,30.33,North,358,2.0,4.0,47,0.00,,---,0.00,0.00,VWS V14.00,2013-02-02 07:02:00,
2013-02-02 02:03:00,43.6,25.7,30.33,North,358,3.0,4.0,49,0.00,,---,0.00,0.00,VWS V14.00,2013-02-02 07:03:00,
2013-02-02 02:04:00,43.6,24.2,30.33,North,358,3.0,4.0,46,0.00,,---,0.00,0.00,VWS V14.00,2013-02-02 07:04:00,
2013-02-02 02:05:00,43.5,24.1,30.33,North,358,4.0,4.0,46,0.00,,---,0.00,0.00,VWS V14.00,2013-02-02 07:05:00,
2013-02-02 02:06:00,43.5,24.6,30.33,North,358,2.0,5.0,47,0.00,,---,0.00,0.00,VWS V14.00,2013-02-02 07:06:00,
2013-02-02 02:07:00,43.5,25.1,30.33,North,358,2.0,5.0,48,0.00,,---,0.00,0.00,VWS V14.00,2013-02-02 07:07:00,
2013-02-02 02:08:00,43.5,25.6,30.33,North,358,3.0,5.0,49,0.00,,---,0.00,0.00,VWS V14.00,2013-02-02 07:08:00,
2013-02-02 02:09:00,43.4,25.0,30.34,North,358,3.0,5.0,48,0.00,,---,0.00,0.00,VWS V14.00,2013-02-02 07:09:00,
2013-02-02 02:10:00,43.4,25.0,30.33,North,359,4.0,5.0,48,0.00,,---,0.00,0.00,VWS V14.00,2013-02-02 07:10:00,
2013-02-02 02:11:00,43.4,25.0,30.33,North,359,2.0,5.0,48,0.00,,---,0.00,0.00,VWS V14.00,2013-02-02 07:11:00,
2013-02-02 02:12:00,43.4,24.5,30.33,North,359,2.0,5.0,47,0.00,,---,0.00,0.00,VWS V14.00,2013-02-02 07:12:00,
2013-02-02 02:13:00,43.4,25.0,30.33,North,359,2.0,5.0,48,0.00,,---,0.00,0.00,VWS V14.00,2013-02-02 07:13:00,
2013-02-02 02:14:00,43.3,25.4,30.33,North,359,1.0,5.0,49,0.00,,---,0.00,0.00,VWS V14.00,2013-02-02 07:14:00,
2013-02-02 02:15:00,43.3,25.4,30.33,North,359,2.0,5.0,49,0.00,,---,0.00,0.00,VWS V14.00,2013-02-02 07:15:00,
2013-02-02 02:16:00,43.3,25.4,30.33,North,359,4.0,6.0,49,0.00,,---,0.00,0.00,VWS V14.00,2013-02-02 07:16:00,
2013-02-02 02:17:00,43.3,25.4,30.33,North,359,3.0,6.0,49,0.00,,---,0.00,0.00,VWS V14.00,2013-02-02 07:17:00,
2013-02-02 02:18:00,43.3,24.9,30.33,NNE,12,6.0,6.0,48,0.00,,---,0.00,0.00,VWS V14.00,2013-02-02 07:18:00,
2013-02-02 02:19:00,43.3,24.9,30.33,NNE,12,4.0,6.0,48,0.00,,---,0.00,0.00,VWS V14.00,2013-02-02 07:19:00,
2013-02-02 02:20:00,43.2,25.4,30.33,NNE,12,2.0,6.0,49,0.00,,---,0.00,0.00,VWS V14.00,2013-02-02 07:20:00,
2013-02-02 02:21:00,43.2,24.9,30.33,North,357,3.0,6.0,48,0.00,,---,0.00,0.00,VWS V14.00,2013-02-02 07:21:00,
2013-02-02 02:22:00,43.2,25.8,30.33,North,357,4.0,6.0,50,0.00,,---,0.00,0.00,VWS V14.00,2013-02-02 07:22:00,
2013-02-02 02:23:00,43.2,25.8,30.33,North,352,4.0,7.0,50,0.00,,---,0.00,0.00,VWS V14.00,2013-02-02 07:23:00,
2013-02-02 02:24:00,43.2,24.9,30.33,North,352,4.0,7.0,48,0.00,,---,0.00,0.00,VWS V14.00,2013-02-02 07:24:00,
2013-02-02 02:25:00,43.2,24.9,30.33,NNW,335,5.0,7.0,48,0.00,,---,0.00,0.00,VWS V14.00,2013-02-02 07:25:00,
2013-02-02 02:26:00,43.1,24.8,30.33,NNW,339,6.0,7.0,48,0.00,,---,0.00,0.00,VWS V14.00,2013-02-02 07:26:00,
2013-02-02 02:27:00,43.1,24.8,30.33,NNW,341,5.0,7.0,48,0.00,,---,0.00,0.00,VWS V14.00,2013-02-02 07:27:00,
2013-02-02 02:28:00,43.1,25.7,30.33,NNW,341,4.0,7.0,50,0.00,,---,0.00,0.00,VWS V14.00,2013-02-02 07:28:00,
2013-02-02 02:29:00,43.1,25.3,30.33,NNW,345,4.0,7.0,49,0.00,,---,0.00,0.00,VWS V14.00,2013-02-02 07:29:00,
2013-02-02 02:30:00,43.1,25.3,30.33,NNW,334,5.0,8.0,49,0.00,,---,0.00,0.00,VWS V14.00,2013-02-02 07:30:00,
2013-02-02 02:31:00,43.1,25.7,30.33,NNW,339,5.0,5.0,50,0.00,,---,0.00,0.00,VWS V14.00,2013-02-02 07:31:00,
2013-02-02 02:32:00,43.0,24.2,30.33,NNW,347,3.0,5.0,47,0.00,,---,0.00,0.00,VWS V14.00,2013-02-02 07:32:00,
2013-02-02 02:33:00,43.0,25.2,30.33,North,358,5.0,7.0,49,0.00,,---,0.00,0.00,VWS V14.00,2013-02-02 07:33:00,
2013-02-02 02:34:00,43.0,24.7,30.33,North,355,5.0,8.0,48,0.00,,---,0.00,0.00,VWS V14.00,2013-02-02 07:34:00,
2013-02-02 02:35:00,42.9,25.1,30.33,North,2,4.0,8.0,49,0.00,,---,0.00,0.00,VWS V14.00,2013-02-02 07:35:00,
2013-02-02 02:36:00,42.9,25.1,30.33,NNW,347,7.0,8.0,49,0.00,,---,0.00,0.00,VWS V14.00,2013-02-02 07:36:00,
2013-02-02 02:37:00,42.9,24.6,30.33,North,5,5.0,8.0,48,0.00,,---,0.00,0.00,VWS V14.00,2013-02-02 07:37:00,
2013-02-02 02:38:00,42.8,25.5,30.33,North,349,5.0,8.0,50,0.00,,---,0.00,0.00,VWS V14.00,2013-02-02 07:38:00,
2013-02-02 02:39:00,42.9,25.6,30.33,North,351,6.0,8.0,50,0.00,,---,0.00,0.00,VWS V14.00,2013-02-02 07:39:00,
2013-02-02 02:40:00,42.9,25.6,30.33,North,349,5.0,8.0,50,0.00,,---,0.00,0.00,VWS V14.00,2013-02-02 07:40:00,
2013-02-02 02:41:00,42.8,25.5,30.33,North,9,7.0,8.0,50,0.00,,---,0.00,0.00,VWS V14.00,2013-02-02 07:41:00,
2013-02-02 02:42:00,42.8,24.5,30.33,NNW,335,5.0,8.0,48,0.00,,---,0.00,0.00,VWS V14.00,2013-02-02 07:42:00,
2013-02-02 02:43:00,42.8,26.4,30.33,NNW,342,5.0,8.0,52,0.00,,---,0.00,0.00,VWS V14.00,2013-02-02 07:43:00,
2013-02-02 02:44:00,42.8,25.5,30.33,North,358,5.0,8.0,50,0.00,,---,0.00,0.00,VWS V14.00,2013-02-02 07:44:00,
2013-02-02 02:45:00,42.8,25.0,30.33,North,353,5.0,8.0,49,0.00,,---,0.00,0.00,VWS V14.00,2013-02-02 07:45:00,
2013-02-02 02:46:00,42.7,25.4,30.33,North,351,5.0,8.0,50,0.00,,---,0.00,0.00,VWS V14.00,2013-02-02 07:46:00,
2013-02-02 02:47:00,42.7,25.9,30.33,NNW,338,3.0,8.0,51,0.00,,---,0.00,0.00,VWS V14.00,2013-02-02 07:47:00,
2013-02-02 02:48:00,42.7,25.9,30.33,NNW,343,5.0,8.0,51,0.00,,---,0.00,0.00,VWS V14.00,2013-02-02 07:48:00,
2013-02-02 02:49:00,42.7,25.9,30.33,NNW,337,7.0,8.0,51,0.00,,---,0.00,0.00,VWS V14.00,2013-02-02 07:49:00,
2013-02-02 02:52:00,42.6,25.8,30.33,NNW,335,4.0,8.0,51,0.00,,---,0.00,0.00,VWS V14.00,2013-02-02 07:52:00,
2013-02-02 02:53:00,42.6,25.8,30.33,NNW,335,5.0,8.0,51,0.00,,---,0.00,0.00,VWS V14.00,2013-02-02 07:53:00,
2013-02-02 02:54:00,42.6,25.3,30.33,NNW,339,6.0,8.0,50,0.00,,---,0.00,0.00,VWS V14.00,2013-02-02 07:54:00,
2013-02-02 02:55:00,42.5,24.2,30.33,NNW,344,5.0,8.0,48,0.00,,---,0.00,0.00,VWS V14.00,2013-02-02 07:55:00,
2013-02-02 02:56:00,42.5,25.2,30.33,NNW,333,4.0,8.0,50,0.00,,---,0.00,0.00,VWS V14.00,2013-02-02 07:56:00,
2013-02-02 02:57:00,42.5,26.1,30.33,NNW,342,5.0,8.0,52,0.00,,---,0.00,0.00,VWS V14.00,2013-02-02 07:57:00,
2013-02-02 02:58:00,42.5,26.6,30.33,NNW,334,6.0,8.0,53,0.00,,---,0.00,0.00,VWS V14.00,2013-02-02 07:58:00,
2013-02-02 02:59:00,42.5,26.6,30.33,NNW,341,6.0,9.0,53,0.00,,---,0.00,0.00,VWS V14.00,2013-02-02 07:59:00,
2013-02-02 03:00:00,42.5,26.6,30.33,NNW,341,6.0,9.0,53,0.00,,---,0.00,0.00,VWS V14.00,2013-02-02 08:00:00,
2013-02-02 03:01:00,42.5,25.7,30.33,NNW,339,6.0,8.0,51,0.00,,---,0.00,0.00,VWS V14.00,2013-02-02 08:01:00,
2013-02-02 03:02:00,42.5,26.1,30.33,NNW,345,7.0,8.0,52,0.00,,---,0.00,0.00,VWS V14.00,2013-02-02 08:02:00,
2013-02-02 03:03:00,42.5,25.7,30.33,North,355,8.0,8.0,51,0.00,,---,0.00,0.00,VWS V14.00,2013-02-02 08:03:00,
2013-02-02 03:04:00,42.5,25.7,30.33,NNW,345,8.0,9.0,51,0.00,,---,0.00,0.00,VWS V14.00,2013-02-02 08:04:00,
2013-02-02 03:05:00,42.5,27.5,30.33,NNW,340,6.0,9.0,55,0.00,,---,0.00,0.00,VWS V14.00,2013-02-02 08:05:00,
2013-02-02 03:06:00,42.5,27.0,30.33,NNW,348,5.0,9.0,54,0.00,,---,0.00,0.00,VWS V14.00,2013-02-02 08:06:00,
2013-02-02 03:07:00,42.5,27.0,30.33,NNW,341,7.0,9.0,54,0.00,,---,0.00,0.00,VWS V14.00,2013-02-02 08:07:00,
2013-02-02 03:08:00,42.5,27.0,30.33,North,5,8.0,9.0,54,0.00,,---,0.00,0.00,VWS V14.00,2013-02-02 08:08:00,
2013-02-02 03:09:00,42.5,26.1,30.33,North,351,4.0,9.0,52,0.00,,---,0.00,0.00,VWS V14.00,2013-02-02 08:09:00,
2013-02-02 03:10:00,42.5,25.7,30.33,NNW,347,3.0,9.0,51,0.00,,---,0.00,0.00,VWS V14.00,2013-02-02 08:10:00,
2013-02-02 03:11:00,42.5,27.0,30.33,NW,313,6.0,9.0,54,0.00,,---,0.00,0.00,VWS V14.00,2013-02-02 08:11:00,
2013-02-02 03:12:00,42.4,27.0,30.33,NNW,342,6.0,9.0,54,0.00,,---,0.00,0.00,VWS V14.00,2013-02-02 08:12:00,
2013-02-02 03:13:00,42.4,27.0,30.33,NNW,341,5.0,9.0,54,0.00,,---,0.00,0.00,VWS V14.00,2013-02-02 08:13:00,
2013-02-02 03:14:00,42.4,27.4,30.33,NNW,335,5.0,9.0,55,0.00,,---,0.00,0.00,VWS V14.00,2013-02-02 08:14:00,
2013-02-02 03:15:00,42.3,26.9,30.33,NNW,334,7.0,9.0,54,0.00,,---,0.00,0.00,VWS V14.00,2013-02-02 08:15:00,
2013-02-02 03:16:00,42.3,26.4,30.33,NNW,341,7.0,9.0,53,0.00,,---,0.00,0.00,VWS V14.00,2013-02-02 08:16:00,
2013-02-02 03:17:00,42.2,27.6,30.33,NNW,335,5.0,9.0,56,0.00,,---,0.00,0.00,VWS V14.00,2013-02-02 08:17:00,
2013-02-02 03:18:00,42.2,27.6,30.33,NNW,335,7.0,9.0,56,0.00,,---,0.00,0.00,VWS V14.00,2013-02-02 08:18:00,
2013-02-02 03:19:00,42.1,26.7,30.33,NNW,340,8.0,10.0,54,0.00,,---,0.00,0.00,VWS V14.00,2013-02-02 08:19:00,
2013-02-02 03:20:00,42.1,25.8,30.33,NNW,337,9.0,10.0,52,0.00,,---,0.00,0.00,VWS V14.00,2013-02-02 08:20:00,
2013-02-02 03:21:00,42.0,26.1,30.33,NNW,345,7.0,10.0,53,0.00,,---,0.00,0.00,VWS V14.00,2013-02-02 08:21:00,
2013-02-02 03:22:00,42.0,25.7,30.33,NNW,342,6.0,10.0,52,0.00,,---,0.00,0.00,VWS V14.00,2013-02-02 08:22:00,
2013-02-02 03:23:00,41.9,25.1,30.33,NNW,329,9.0,10.0,51,0.00,,---,0.00,0.00,VWS V14.00,2013-02-02 08:23:00,
2013-02-02 03:24:00,41.8,25.0,30.33,NNW,333,7.0,11.0,51,0.00,,---,0.00,0.00,VWS V14.00,2013-02-02 08:24:00,
2013-02-02 03:25:00,41.8,26.4,30.34,NNW,328,8.0,11.0,54,0.00,,---,0.00,0.00,VWS V14.00,2013-02-02 08:25:00,
2013-02-02 03:26:00,41.7,25.4,30.33,NNW,335,9.0,11.0,52,0.00,,---,0.00,0.00,VWS V14.00,2013-02-02 08:26:00,
2013-02-02 03:27:00,41.6,26.2,30.33,NNW,330,8.0,11.0,54,0.00,,---,0.00,0.00,VWS V14.00,2013-02-02 08:27:00,
2013-02-02 03:28:00,41.5,25.7,30.33,NNW,338,7.0,11.0,53,0.00,,---,0.00,0.00,VWS V14.00,2013-02-02 08:28:00,
2013-02-02 03:29:00,41.5,27.0,30.34,NNW,327,8.0,11.0,56,0.00,,---,0.00,0.00,VWS V14.00,2013-02-02 08:29:00,
2013-02-02 03:30:00,41.5,26.5,30.34,NW,326,9.0,11.0,55,0.00,,---,0.00,0.00,VWS V14.00,2013-02-02 08:30:00,
2013-02-02 03:31:00,41.5,26.1,30.33,NNW,338,9.0,10.0,54,0.00,,---,0.00,0.00,VWS V14.00,2013-02-02 08:31:00,
2013-02-02 03:32:00,41.5,25.7,30.33,NNW,348,6.0,10.0,53,0.00,,---,0.00,0.00,VWS V14.00,2013-02-02 08:32:00,
2013-02-02 03:33:00,41.4,26.5,30.33,NNW,333,10.0,10.0,55,0.00,,---,0.00,0.00,VWS V14.00,2013-02-02 08:33:00,
2013-02-02 03:34:00,41.4,26.0,30.33,NNW,344,5.0,10.0,54,0.00,,---,0.00,0.00,VWS V14.00,2013-02-02 08:34:00,
2013-02-02 03:35:00,41.4,26.0,30.33,North,351,8.0,10.0,54,0.00,,---,0.00,0.00,VWS V14.00,2013-02-02 08:35:00,
2013-02-02 03:36:00,41.4,26.5,30.34,NNW,340,6.0,10.0,55,0.00,,---,0.00,0.00,VWS V14.00,2013-02-02 08:36:00,
2013-02-02 03:37:00,41.4,26.9,30.33,NNW,330,9.0,10.0,56,0.00,,---,0.00,0.00,VWS V14.00,2013-02-02 08:37:00,
2013-02-02 03:38:00,41.3,26.8,30.34,NNW,330,7.0,10.0,56,0.00,,---,0.00,0.00,VWS V14.00,2013-02-02 08:38:00,
2013-02-02 03:39:00,41.3,25.5,30.34,NNW,346,8.0,10.0,53,0.00,,---,0.00,0.00,VWS V14.00,2013-02-02 08:39:00,
2013-02-02 03:40:00,41.2,24.9,30.34,NNW,329,7.0,10.0,52,0.00,,---,0.00,0.00,VWS V14.00,2013-02-02 08:40:00,
2013-02-02 03:41:00,41.2,24.9,30.34,NNW,344,7.0,10.0,52,0.00,,---,0.00,0.00,VWS V14.00,2013-02-02 08:41:00,
2013-02-02 03:42:00,41.2,26.7,30.33,NNW,330,10.0,10.0,56,0.00,,---,0.00,0.00,VWS V14.00,2013-02-02 08:42:00,
2013-02-02 03:43:00,41.2,26.3,30.33,NNW,333,7.0,10.0,55,0.00,,---,0.00,0.00,VWS V14.00,2013-02-02 08:43:00,
2013-02-02 03:44:00,41.1,25.7,30.33,NNW,348,7.0,10.0,54,0.00,,---,0.00,0.00,VWS V14.00,2013-02-02 08:44:00,
2013-02-02 03:45:00,41.0,24.7,30.33,NNW,333,9.0,10.0,52,0.00,,---,0.00,0.00,VWS V14.00,2013-02-02 08:45:00,
2013-02-02 03:46:00,41.0,25.2,30.33,NNW,334,8.0,10.0,53,0.00,,---,0.00,0.00,VWS V14.00,2013-02-02 08:46:00,
2013-02-02 03:47:00,40.9,25.1,30.33,North,349,5.0,10.0,53,0.00,,---,0.00,0.00,VWS V14.00,2013-02-02 08:47:00,
2013-02-02 03:48:00,40.9,26.0,30.33,NNW,333,8.0,10.0,55,0.00,,---,0.00,0.00,VWS V14.00,2013-02-02 08:48:00,
2013-02-02 03:49:00,40.9,26.4,30.34,NNW,347,6.0,10.0,56,0.00,,---,0.00,0.00,VWS V14.00,2013-02-02 08:49:00,
2013-02-02 03:50:00,40.8,25.5,30.33,NNW,335,9.0,10.0,54,0.00,,---,0.00,0.00,VWS V14.00,2013-02-02 08:50:00,
2013-02-02 03:51:00,40.8,25.0,30.34,NNW,339,7.0,10.0,53,0.00,,---,0.00,0.00,VWS V14.00,2013-02-02 08:51:00,
2013-02-02 03:52:00,40.8,25.9,30.34,NNW,339,8.0,10.0,55,0.00,,---,0.00,0.00,VWS V14.00,2013-02-02 08:52:00,
2013-02-02 03:53:00,40.8,25.0,30.34,NNW,341,8.0,10.0,53,0.00,,---,0.00,0.00,VWS V14.00,2013-02-02 08:53:00,
2013-02-02 03:54:00,40.8,25.9,30.34,North,353,5.0,10.0,55,0.00,,---,0.00,0.00,VWS V14.00,2013-02-02 08:54:00,
2013-02-02 03:55:00,40.8,26.3,30.34,North,353,8.0,10.0,56,0.00,,---,0.00,0.00,VWS V14.00,2013-02-02 08:55:00,
2013-02-02 03:56:00,40.8,25.9,30.34,North,4,10.0,10.0,55,0.00,,---,0.00,0.00,VWS V14.00,2013-02-02 08:56:00,
2013-02-02 03:57:00,40.7,24.9,30.33,North,354,9.0,10.0,53,0.00,,---,0.00,0.00,VWS V14.00,2013-02-02 08:57:00,
2013-02-02 03:58:00,40.7,25.4,30.34,North,353,8.0,10.0,54,0.00,,---,0.00,0.00,VWS V14.00,2013-02-02 08:58:00,
2013-02-02 03:59:00,40.7,24.9,30.34,North,349,8.0,10.0,53,0.00,,---,0.00,0.00,VWS V14.00,2013-02-02 08:59:00,
2013-02-02 04:00:00,40.6,25.3,30.33,North,353,9.0,10.0,54,0.00,,---,0.00,0.00,VWS V14.00,2013-02-02 09:00:00,
2013-02-02 04:01:00,40.6,24.8,30.33,North,352,8.0,9.0,53,0.00,,---,0.00,0.00,VWS V14.00,2013-02-02 09:01:00,
2013-02-02 04:02:00,40.6,25.3,30.33,NNW,338,10.0,10.0,54,0.00,,---,0.00,0.00,VWS V14.00,2013-02-02 09:02:00,
2013-02-02 04:03:00,40.5,25.6,30.33,NNW,337,10.0,11.0,55,0.00,,---,0.00,0.00,VWS V14.00,2013-02-02 09:03:00,
2013-02-02 04:04:00,40.5,25.2,30.33,NNW,340,8.0,12.0,54,0.00,,---,0.00,0.00,VWS V14.00,2013-02-02 09:04:00,
2013-02-02 04:05:00,40.5,25.2,30.33,NNW,329,11.0,12.0,54,0.00,,---,0.00,0.00,VWS V14.00,2013-02-02 09:05:00,
2013-02-02 04:06:00,40.5,24.7,30.33,North,351,8.0,12.0,53,0.00,,---,0.00,0.00,VWS V14.00,2013-02-02 09:06:00,
2013-02-02 04:07:00,40.5,24.7,30.34,NNW,339,7.0,12.0,53,0.00,,---,0.00,0.00,VWS V14.00,2013-02-02 09:07:00,
2013-02-02 04:08:00,40.4,24.6,30.34,NNW,337,8.0,12.0,53,0.00,,---,0.00,0.00,VWS V14.00,2013-02-02 09:08:00,
2013-02-02 04:09:00,40.4,24.6,30.34,NNW,344,7.0,12.0,53,0.00,,---,0.00,0.00,VWS V14.00,2013-02-02 09:09:00,
2013-02-02 04:10:00,40.4,25.5,30.33,North,351,8.0,12.0,55,0.00,,---,0.00,0.00,VWS V14.00,2013-02-02 09:10:00,
2013-02-02 04:11:00,40.4,25.5,30.33,North,349,8.0,12.0,55,0.00,,---,0.00,0.00,VWS V14.00,2013-02-02 09:11:00,
2013-02-02 04:12:00,40.4,25.1,30.33,NNW,343,9.0,12.0,54,0.00,,---,0.00,0.00,VWS V14.00,2013-02-02 09:12:00,
2013-02-02 04:13:00,40.4,25.1,30.33,North,350,9.0,12.0,54,0.00,,---,0.00,0.00,VWS V14.00,2013-02-02 09:13:00,
2013-02-02 04:14:00,40.4,25.1,30.33,North,351,9.0,12.0,54,0.00,,---,0.00,0.00,VWS V14.00,2013-02-02 09:14:00,
2013-02-02 04:15:00,40.4,26.8,30.33,NNW,343,10.0,12.0,58,0.00,,---,0.00,0.00,VWS V14.00,2013-02-02 09:15:00,
2013-02-02 04:16:00,40.4,25.5,30.33,NNW,339,9.0,12.0,55,0.00,,---,0.00,0.00,VWS V14.00,2013-02-02 09:16:00,
2013-02-02 04:17:00,40.4,25.5,30.33,NNW,341,7.0,12.0,55,0.00,,---,0.00,0.00,VWS V14.00,2013-02-02 09:17:00,
2013-02-02 04:18:00,40.3,25.9,30.33,NNW,329,9.0,12.0,56,0.00,,---,0.00,0.00,VWS V14.00,2013-02-02 09:18:00,
2013-02-02 04:19:00,40.3,25.4,30.33,NNW,339,9.0,12.0,55,0.00,,---,0.00,0.00,VWS V14.00,2013-02-02 09:19:00,
2013-02-02 04:20:00,40.2,25.3,30.33,NNW,333,10.0,12.0,55,0.00,,---,0.00,0.00,VWS V14.00,2013-02-02 09:20:00,
2013-02-02 04:21:00,40.1,25.7,30.33,NNW,330,10.0,12.0,56,0.00,,---,0.00,0.00,VWS V14.00,2013-02-02 09:21:00,
2013-02-02 04:22:00,40.1,25.2,30.33,NNW,339,9.0,12.0,55,0.00,,---,0.00,0.00,VWS V14.00,2013-02-02 09:22:00,
2013-02-02 04:23:00,40.0,25.1,30.33,NNW,335,10.0,12.0,55,0.00,,---,0.00,0.00,VWS V14.00,2013-02-02 09:23:00,
2013-02-02 04:24:00,39.9,25.1,30.33,NNW,338,10.0,12.0,55,0.00,,---,0.00,0.00,VWS V14.00,2013-02-02 09:24:00,
2013-02-02 04:25:00,39.8,25.0,30.33,NNW,338,10.0,12.0,55,0.00,,---,0.00,0.00,VWS V14.00,2013-02-02 09:25:00,
2013-02-02 04:26:00,39.8,25.8,30.33,NNW,343,8.0,12.0,57,0.00,,---,0.00,0.00,VWS V14.00,2013-02-02 09:26:00,
2013-02-02 04:27:00,39.7,26.1,30.33,NNW,333,8.0,12.0,58,0.00,,---,0.00,0.00,VWS V14.00,2013-02-02 09:27:00,
2013-02-02 04:28:00,39.7,26.1,30.33,NNW,333,8.0,12.0,58,0.00,,---,0.00,0.00,VWS V14.00,2013-02-02 09:28:00,
2013-02-02 04:29:00,39.7,26.1,30.33,NNW,333,8.0,12.0,58,0.00,,---,0.00,0.00,VWS V14.00,2013-02-02 09:29:00,
2013-02-02 04:30:00,39.7,26.1,30.33,NNW,333,8.0,12.0,58,0.00,,---,0.00,0.00,VWS V14.00,2013-02-02 09:30:00,
2013-02-02 04:31:00,39.7,26.1,30.33,NNW,345,6.0,9.0,58,0.00,,---,0.00,0.00,VWS V14.00,2013-02-02 09:31:00,
2013-02-02 04:32:00,39.7,27.0,30.33,NNW,342,11.0,11.0,60,0.00,,---,0.00,0.00,VWS V14.00,2013-02-02 09:32:00,
2013-02-02 04:33:00,39.7,26.1,30.33,NNW,333,8.0,11.0,58,0.00,,---,0.00,0.00,VWS V14.00,2013-02-02 09:33:00,
2013-02-02 04:34:00,39.7,27.0,30.33,NNW,347,9.0,11.0,60,0.00,,---,0.00,0.00,VWS V14.00,2013-02-02 09:34:00,
2013-02-02 04:35:00,39.7,27.0,30.33,NNW,344,8.0,12.0,60,0.00,,---,0.00,0.00,VWS V14.00,2013-02-02 09:35:00,
2013-02-02 04:36:00,39.7,27.0,30.33,NNW,344,8.0,12.0,60,0.00,,---,0.00,0.00,VWS V14.00,2013-02-02 09:36:00,
2013-02-02 04:37:00,39.7,26.1,30.33,NNW,345,7.0,12.0,58,0.00,,---,0.00,0.00,VWS V14.00,2013-02-02 09:37:00,
2013-02-02 04:38:00,39.6,26.9,30.33,NNW,342,7.0,12.0,60,0.00,,---,0.00,0.00,VWS V14.00,2013-02-02 09:38:00,
2013-02-02 04:39:00,39.6,26.1,30.33,NNW,343,7.0,12.0,58,0.00,,---,0.00,0.00,VWS V14.00,2013-02-02 09:39:00,
2013-02-02 04:40:00,39.5,26.0,30.33,NNW,339,7.0,12.0,58,0.00,,---,0.00,0.00,VWS V14.00,2013-02-02 09:40:00,
2013-02-02 04:41:00,39.5,26.0,30.33,NNW,340,8.0,12.0,58,0.00,,---,0.00,0.00,VWS V14.00,2013-02-02 09:41:00,
2013-02-02 04:42:00,39.4,25.0,30.33,North,358,10.0,12.0,56,0.00,,---,0.00,0.00,VWS V14.00,2013-02-02 09:42:00,
2013-02-02 04:43:00,39.4,25.5,30.33,North,352,7.0,12.0,57,0.00,,---,0.00,0.00,VWS V14.00,2013-02-02 09:43:00,
2013-02-02 04:44:00,39.4,25.5,30.33,North,355,8.0,12.0,57,0.00,,---,0.00,0.00,VWS V14.00,2013-02-02 09:44:00,
2013-02-02 04:45:00,39.3,25.4,30.34,NNW,333,8.0,12.0,57,0.00,,---,0.00,0.00,VWS V14.00,2013-02-02 09:45:00,
2013-02-02 04:46:00,39.3,24.9,30.34,NNW,333,7.0,12.0,56,0.00,,---,0.00,0.00,VWS V14.00,2013-02-02 09:46:00,
2013-02-02 04:47:00,39.3,25.4,30.34,North,350,7.0,12.0,57,0.00,,---,0.00,0.00,VWS V14.00,2013-02-02 09:47:00,
2013-02-02 04:48:00,39.3,26.6,30.33,North,356,8.0,12.0,60,0.00,,---,0.00,0.00,VWS V14.00,2013-02-02 09:48:00,
2013-02-02 04:49:00,39.3,25.8,30.33,North,351,8.0,12.0,58,0.00,,---,0.00,0.00,VWS V14.00,2013-02-02 09:49:00,
2013-02-02 04:50:00,39.3,25.4,30.33,North,355,9.0,12.0,57,0.00,,---,0.00,0.00,VWS V14.00,2013-02-02 09:50:00,
2013-02-02 04:51:00,39.2,24.4,30.33,North,4,10.0,12.0,55,0.00,,---,0.00,0.00,VWS V14.00,2013-02-02 09:51:00,
2013-02-02 04:52:00,39.1,23.9,30.33,NNW,340,9.0,12.0,54,0.00,,---,0.00,0.00,VWS V14.00,2013-02-02 09:52:00,
2013-02-02 04:53:00,39.0,24.2,30.33,NNW,347,7.0,12.0,55,0.00,,---,0.00,0.00,VWS V14.00,2013-02-02 09:53:00,
2013-02-02 04:54:00,38.9,24.6,30.33,North,349,9.0,12.0,56,0.00,,---,0.00,0.00,VWS V14.00,2013-02-02 09:54:00,
2013-02-02 04:55:00,38.9,24.6,30.33,NNW,345,8.0,12.0,56,0.00,,---,0.00,0.00,VWS V14.00,2013-02-02 09:55:00,
2013-02-02 04:56:00,38.9,23.7,30.33,NNW,342,9.0,12.0,54,0.00,,---,0.00,0.00,VWS V14.00,2013-02-02 09:56:00,
2013-02-02 04:57:00,38.8,23.6,30.33,NNW,337,10.0,12.0,54,0.00,,---,0.00,0.00,VWS V14.00,2013-02-02 09:57:00,
2013-02-02 04:58:00,38.8,24.0,30.33,North,353,10.0,12.0,55,0.00,,---,0.00,0.00,VWS V14.00,2013-02-02 09:58:00,
2013-02-02 04:59:00,38.7,23.5,30.33,NNW,343,9.0,12.0,54,0.00,,---,0.00,0.00,VWS V14.00,2013-02-02 09:59:00,
2013-02-02 05:00:00,38.7,24.4,30.33,NNW,347,7.0,12.0,56,0.00,,---,0.00,0.00,VWS V14.00,2013-02-02 10:00:00,
2013-02-02 05:01:00,38.7,23.9,30.33,North,353,7.0,10.0,55,0.00,,---,0.00,0.00,VWS V14.00,2013-02-02 10:01:00,
2013-02-02 05:02:00,38.7,24.4,30.33,North,2,8.0,10.0,56,0.00,,---,0.00,0.00,VWS V14.00,2013-02-02 10:02:00,
2013-02-02 05:03:00,38.7,23.9,30.34,North,360,8.0,11.0,55,0.00,,---,0.00,0.00,VWS V14.00,2013-02-02 10:03:00,
2013-02-02 05:04:00,38.6,23.8,30.34,North,351,7.0,11.0,55,0.00,,---,0.00,0.00,VWS V14.00,2013-02-02 10:04:00,
2013-02-02 05:05:00,38.6,24.3,30.34,NNW,345,9.0,11.0,56,0.00,,---,0.00,0.00,VWS V14.00,2013-02-02 10:05:00,
2013-02-02 05:06:00,38.6,24.3,30.34,NNW,344,8.0,11.0,56,0.00,,---,0.00,0.00,VWS V14.00,2013-02-02 10:06:00,
2013-02-02 05:07:00,38.6,24.3,30.33,North,11,9.0,11.0,56,0.00,,---,0.00,0.00,VWS V14.00,2013-02-02 10:07:00,
2013-02-02 05:08:00,38.6,24.3,30.33,NNE,12,9.0,11.0,56,0.00,,---,0.00,0.00,VWS V14.00,2013-02-02 10:08:00,
2013-02-02 05:09:00,38.7,24.8,30.33,NNW,345,6.0,11.0,57,0.00,,---,0.00,0.00,VWS V14.00,2013-02-02 10:09:00,
2013-02-02 05:10:00,38.7,24.8,30.34,NNW,342,7.0,11.0,57,0.00,,---,0.00,0.00,VWS V14.00,2013-02-02 10:10:00,
2013-02-02 05:11:00,38.7,24.8,30.34,NNW,344,9.0,11.0,57,0.00,,---,0.00,0.00,VWS V14.00,2013-02-02 10:11:00,
2013-02-02 05:12:00,38.8,24.5,30.34,NNW,337,8.0,11.0,56,0.00,,---,0.00,0.00,VWS V14.00,2013-02-02 10:12:00,
2013-02-02 05:13:00,38.8,24.9,30.34,North,349,6.0,11.0,57,0.00,,---,0.00,0.00,VWS V14.00,2013-02-02 10:13:00,
2013-02-02 05:14:00,38.8,24.0,30.34,NNW,344,8.0,11.0,55,0.00,,---,0.00,0.00,VWS V14.00,2013-02-02 10:14:00,
2013-02-02 05:15:00,38.8,24.0,30.34,North,353,7.0,11.0,55,0.00,,---,0.00,0.00,VWS V14.00,2013-02-02 10:15:00,
2013-02-02 05:16:00,38.8,24.0,30.34,NNW,341,9.0,11.0,55,0.00,,---,0.00,0.00,VWS V14.00,2013-02-02 10:16:00,
2013-02-02 05:17:00,38.7,24.4,30.33,NNW,343,7.0,11.0,56,0.00,,---,0.00,0.00,VWS V14.00,2013-02-02 10:17:00,
2013-02-02 05:18:00,38.7,23.9,30.33,North,349,6.0,11.0,55,0.00,,---,0.00,0.00,VWS V14.00,2013-02-02 10:18:00,
2013-02-02 05:19:00,38.7,24.4,30.34,NNW,340,7.0,11.0,56,0.00,,---,0.00,0.00,VWS V14.00,2013-02-02 10:19:00,
2013-02-02 05:20:00,38.7,23.5,30.34,NNW,334,9.0,11.0,54,0.00,,---,0.00,0.00,VWS V14.00,2013-02-02 10:20:00,
2013-02-02 05:21:00,38.6,23.4,30.34,North,349,8.0,11.0,54,0.00,,---,0.00,0.00,VWS V14.00,2013-02-02 10:21:00,
2013-02-02 05:22:00,38.5,22.9,30.34,NNW,337,7.0,11.0,53,0.00,,---,0.00,0.00,VWS V14.00,2013-02-02 10:22:00,
2013-02-02 05:23:00,38.5,23.8,30.34,North,353,9.0,11.0,55,0.00,,---,0.00,0.00,VWS V14.00,2013-02-02 10:23:00,
2013-02-02 05:24:00,38.5,24.2,30.34,NNW,347,7.0,11.0,56,0.00,,---,0.00,0.00,VWS V14.00,2013-02-02 10:24:00,
2013-02-02 05:25:00,38.4,23.2,30.34,NNW,339,10.0,12.0,54,0.00,,---,0.00,0.00,VWS V14.00,2013-02-02 10:25:00,
2013-02-02 05:26:00,38.3,23.1,30.34,NNW,343,8.0,12.0,54,0.00,,---,0.00,0.00,VWS V14.00,2013-02-02 10:26:00,
2013-02-02 05:27:00,38.3,23.1,30.34,North,349,6.0,12.0,54,0.00,,---,0.00,0.00,VWS V14.00,2013-02-02 10:27:00,
2013-02-02 05:28:00,38.3,24.0,30.34,North,352,8.0,12.0,56,0.00,,---,0.00,0.00,VWS V14.00,2013-02-02 10:28:00,
2013-02-02 05:29:00,38.3,23.6,30.34,North,351,7.0,12.0,55,0.00,,---,0.00,0.00,VWS V14.00,2013-02-02 10:29:00,
2013-02-02 05:30:00,38.3,23.6,30.34,NNW,343,7.0,12.0,55,0.00,,---,0.00,0.00,VWS V14.00,2013-02-02 10:30:00,
2013-02-02 05:31:00,38.3,24.4,30.34,North,351,8.0,10.0,57,0.00,,---,0.00,0.00,VWS V14.00,2013-02-02 10:31:00,
2013-02-02 05:32:00,38.3,24.4,30.34,NNW,333,7.0,10.0,57,0.00,,---,0.00,0.00,VWS V14.00,2013-02-02 10:32:00,
2013-02-02 05:33:00,38.3,23.6,30.34,NNW,343,8.0,10.0,55,0.00,,---,0.00,0.00,VWS V14.00,2013-02-02 10:33:00,
2013-02-02 05:34:00,38.3,23.6,30.34,NNW,345,7.0,10.0,55,0.00,,---,0.00,0.00,VWS V14.00,2013-02-02 10:34:00,
2013-02-02 05:35:00,38.3,24.0,30.34,NNW,343,6.0,10.0,56,0.00,,---,0.00,0.00,VWS V14.00,2013-02-02 10:35:00,
2013-02-02 05:36:00,38.3,23.6,30.34,North,358,9.0,10.0,55,0.00,,---,0.00,0.00,VWS V14.00,2013-02-02 10:36:00,
2013-02-02 05:37:00,38.2,23.9,30.34,NNW,347,10.0,11.0,56,0.00,,---,0.00,0.00,VWS V14.00,2013-02-02 10:37:00,
2013-02-02 05:38:00,38.2,23.5,30.34,North,5,7.0,11.0,55,0.00,,---,0.00,0.00,VWS V14.00,2013-02-02 10:38:00,
2013-02-02 05:39:00,38.2,24.3,30.34,North,349,7.0,11.0,57,0.00,,---,0.00,0.00,VWS V14.00,2013-02-02 10:39:00,
2013-02-02 05:40:00,38.2,23.9,30.34,North,349,8.0,11.0,56,0.00,,---,0.00,0.00,VWS V14.00,2013-02-02 10:40:00,
2013-02-02 05:41:00,38.2,23.9,30.34,NNW,348,8.0,11.0,56,0.00,,---,0.00,0.00,VWS V14.00,2013-02-02 10:41:00,
2013-02-02 05:42:00,38.1,22.9,30.34,NNW,339,8.0,11.0,54,0.00,,---,0.00,0.00,VWS V14.00,2013-02-02 10:42:00,
2013-02-02 05:43:00,38.1,23.4,30.34,NNW,343,7.0,11.0,55,0.00,,---,0.00,0.00,VWS V14.00,2013-02-02 10:43:00,
2013-02-02 05:44:00,38.0,23.3,30.34,North,351,8.0,11.0,55,0.00,,---,0.00,0.00,VWS V14.00,2013-02-02 10:44:00,
2013-02-02 05:45:00,38.0,23.7,30.34,NNW,333,10.0,11.0,56,0.00,,---,0.00,0.00,VWS V14.00,2013-02-02 10:45:00,
2013-02-02 05:46:00,37.9,23.2,30.34,North,353,9.0,11.0,55,0.00,,---,0.00,0.00,VWS V14.00,2013-02-02 10:46:00,
2013-02-02 05:47:00,37.9,23.6,30.34,NNW,341,7.0,11.0,56,0.00,,---,0.00,0.00,VWS V14.00,2013-02-02 10:47:00,
2013-02-02 05:48:00,37.9,24.0,30.34,NNW,343,8.0,11.0,57,0.00,,---,0.00,0.00,VWS V14.00,2013-02-02 10:48:00,
2013-02-02 05:49:00,37.9,24.0,30.34,NNW,339,8.0,11.0,57,0.00,,---,0.00,0.00,VWS V14.00,2013-02-02 10:49:00,
2013-02-02 05:50:00,37.8,23.1,30.34,NNW,338,10.0,11.0,55,0.00,,---,0.00,0.00,VWS V14.00,2013-02-02 10:50:00,
2013-02-02 05:51:00,37.8,23.1,30.34,North,351,8.0,11.0,55,0.00,,---,0.00,0.00,VWS V14.00,2013-02-02 10:51:00,
2013-02-02 05:52:00,37.8,24.0,30.34,NNW,332,9.0,11.0,57,0.00,,---,0.00,0.00,VWS V14.00,2013-02-02 10:52:00,
2013-02-02 05:53:00,37.8,24.8,30.34,NNW,332,9.0,11.0,59,0.00,,---,0.00,0.00,VWS V14.00,2013-02-02 10:53:00,
2013-02-02 05:54:00,37.8,24.8,30.34,NNW,341,10.0,11.0,59,0.00,,---,0.00,0.00,VWS V14.00,2013-02-02 10:54:00,
2013-02-02 05:55:00,37.8,23.5,30.34,NNW,340,9.0,11.0,56,0.00,,---,0.00,0.00,VWS V14.00,2013-02-02 10:55:00,
2013-02-02 05:56:00,37.8,23.5,30.35,NNW,343,9.0,11.0,56,0.00,,---,0.00,0.00,VWS V14.00,2013-02-02 10:56:00,
2013-02-02 05:57:00,37.8,24.0,30.35,NNW,334,9.0,11.0,57,0.00,,---,0.00,0.00,VWS V14.00,2013-02-02 10:57:00,
2013-02-02 05:58:00,37.8,25.2,30.35,NNW,343,8.0,11.0,60,0.00,,---,0.00,0.00,VWS V14.00,2013-02-02 10:58:00,
2013-02-02 05:59:00,37.9,24.0,30.35,NNW,341,7.0,11.0,57,0.00,,---,0.00,0.00,VWS V14.00,2013-02-02 10:59:00,
2013-02-02 06:00:00,37.9,24.5,30.35,NNW,345,7.0,11.0,58,0.00,,---,0.00,0.00,VWS V14.00,2013-02-02 11:00:00,
2013-02-02 06:01:00,37.8,23.5,30.35,NNW,340,8.0,10.0,56,0.00,,---,0.00,0.00,VWS V14.00,2013-02-02 11:01:00,
2013-02-02 06:02:00,37.8,23.1,30.35,NNW,339,8.0,10.0,55,0.00,,---,0.00,0.00,VWS V14.00,2013-02-02 11:02:00,
2013-02-02 06:03:00,37.8,22.7,30.35,NNW,334,7.0,10.0,54,0.00,,---,0.00,0.00,VWS V14.00,2013-02-02 11:03:00,
2013-02-02 06:04:00,37.8,24.0,30.34,NNW,335,8.0,10.0,57,0.00,,---,0.00,0.00,VWS V14.00,2013-02-02 11:04:00,
2013-02-02 06:05:00,37.8,24.4,30.34,NNW,343,6.0,10.0,58,0.00,,---,0.00,0.00,VWS V14.00,2013-02-02 11:05:00,
2013-02-02 06:06:00,37.8,23.1,30.35,NNW,344,8.0,10.0,55,0.00,,---,0.00,0.00,VWS V14.00,2013-02-02 11:06:00,
2013-02-02 06:07:00,37.7,23.0,30.35,NNW,347,7.0,10.0,55,0.00,,---,0.00,0.00,VWS V14.00,2013-02-02 11:07:00,
2013-02-02 06:08:00,37.7,23.4,30.35,North,352,7.0,10.0,56,0.00,,---,0.00,0.00,VWS V14.00,2013-02-02 11:08:00,
2013-02-02 06:09:00,37.7,23.0,30.35,NNW,338,8.0,10.0,55,0.00,,---,0.00,0.00,VWS V14.00,2013-02-02 11:09:00,
2013-02-02 06:10:00,37.7,23.4,30.35,NNW,339,7.0,10.0,56,0.00,,---,0.00,0.00,VWS V14.00,2013-02-02 11:10:00,
2013-02-02 06:11:00,37.6,23.3,30.35,NNW,344,8.0,10.0,56,0.00,,---,0.00,0.00,VWS V14.00,2013-02-02 11:11:00,
2013-02-02 06:12:00,37.6,22.5,30.35,NNW,339,7.0,10.0,54,0.00,,---,0.00,0.00,VWS V14.00,2013-02-02 11:12:00,
2013-02-02 06:13:00,37.5,22.8,30.35,NNW,345,5.0,10.0,55,0.00,,---,0.00,0.00,VWS V14.00,2013-02-02 11:13:00,
2013-02-02 06:14:00,37.6,24.6,30.35,NNW,345,6.0,10.0,59,0.00,,---,0.00,0.00,VWS V14.00,2013-02-02 11:14:00,
2013-02-02 06:15:00,37.7,23.9,30.35,NNW,340,7.0,10.0,57,0.00,,---,0.00,0.00,VWS V14.00,2013-02-02 11:15:00,
2013-02-02 06:16:00,37.7,24.3,30.35,NNW,333,10.0,10.0,58,0.00,,---,0.00,0.00,VWS V14.00,2013-02-02 11:16:00,
2013-02-02 06:17:00,37.7,23.9,30.35,NNW,336,8.0,10.0,57,0.00,,---,0.00,0.00,VWS V14.00,2013-02-02 11:17:00,
2013-02-02 06:18:00,37.7,23.4,30.35,NNW,348,6.0,10.0,56,0.00,,---,0.00,0.00,VWS V14.00,2013-02-02 11:18:00,
2013-02-02 06:19:00,37.7,23.4,30.35,NNW,342,7.0,10.0,56,0.00,,---,0.00,0.00,VWS V14.00,2013-02-02 11:19:00,
2013-02-02 06:20:00,37.7,23.0,30.35,North,349,8.0,11.0,55,0.00,,---,0.00,0.00,VWS V14.00,2013-02-02 11:20:00,
2013-02-02 06:21:00,37.6,22.9,30.35,NNW,341,7.0,11.0,55,0.00,,---,0.00,0.00,VWS V14.00,2013-02-02 11:21:00,
2013-02-02 06:22:00,37.6,22.5,30.35,North,1,6.0,11.0,54,0.00,,---,0.00,0.00,VWS V14.00,2013-02-02 11:22:00,
2013-02-02 06:23:00,37.6,23.8,30.35,North,349,6.0,11.0,57,0.00,,---,0.00,0.00,VWS V14.00,2013-02-02 11:23:00,
2013-02-02 06:24:00,37.6,22.9,30.35,NNW,341,6.0,11.0,55,0.00,,---,0.00,0.00,VWS V14.00,2013-02-02 11:24:00,
2013-02-02 06:25:00,37.5,22.4,30.35,NNW,343,6.0,11.0,54,0.00,,---,0.00,0.00,VWS V14.00,2013-02-02 11:25:00,
2013-02-02 06:26:00,37.5,22.4,30.35,NNW,337,6.0,11.0,54,0.00,,---,0.00,0.00,VWS V14.00,2013-02-02 11:26:00,
2013-02-02 06:27:00,37.4,23.1,30.35,NNW,342,8.0,11.0,56,0.00,,---,0.00,0.00,VWS V14.00,2013-02-02 11:27:00,
2013-02-02 06:28:00,37.4,23.1,30.35,NNW,331,9.0,11.0,56,0.00,,---,0.00,0.00,VWS V14.00,2013-02-02 11:28:00,
2013-02-02 06:29:00,37.4,22.7,30.35,NNW,339,7.0,11.0,55,0.00,,---,0.00,0.00,VWS V14.00,2013-02-02 11:29:00,
2013-02-02 06:30:00,37.4,22.7,30.35,NNW,334,7.0,11.0,55,0.00,,---,0.00,0.00,VWS V14.00,2013-02-02 11:30:00,
2013-02-02 06:31:00,37.4,22.7,30.35,NNW,337,8.0,8.0,55,0.00,,---,0.00,0.00,VWS V14.00,2013-02-02 11:31:00,
2013-02-02 06:32:00,37.4,23.1,30.35,North,352,6.0,8.0,56,0.00,,---,0.00,0.00,VWS V14.00,2013-02-02 11:32:00,
2013-02-02 06:33:00,37.4,23.6,30.35,NNW,335,7.0,8.0,57,0.00,,---,0.00,0.00,VWS V14.00,2013-02-02 11:33:00,
2013-02-02 06:34:00,37.4,23.6,30.35,NNW,337,5.0,8.0,57,0.00,,---,0.00,0.00,VWS V14.00,2013-02-02 11:34:00,
2013-02-02 06:35:00,37.4,23.6,30.35,NNW,337,6.0,8.0,57,0.00,,---,0.00,0.00,VWS V14.00,2013-02-02 11:35:00,
2013-02-02 06:36:00,37.4,24.0,30.35,NNW,333,7.0,8.0,58,0.00,,---,0.00,0.00,VWS V14.00,2013-02-02 11:36:00,
2013-02-02 06:37:00,37.4,23.1,30.35,North,357,4.0,8.0,56,0.00,,---,0.00,0.00,VWS V14.00,2013-02-02 11:37:00,
2013-02-02 06:38:00,37.4,23.1,30.35,North,356,4.0,8.0,56,0.00,,---,0.00,0.00,VWS V14.00,2013-02-02 11:38:00,
2013-02-02 06:39:00,37.4,23.6,30.35,NNW,336,7.0,8.0,57,0.00,,---,0.00,0.00,VWS V14.00,2013-02-02 11:39:00,
2013-02-02 06:40:00,37.4,23.1,30.35,NNW,335,6.0,8.0,56,0.00,,---,0.00,0.00,VWS V14.00,2013-02-02 11:40:00,
2013-02-02 06:41:00,37.3,23.1,30.35,NNW,340,5.0,8.0,56,0.00,,---,0.00,0.00,VWS V14.00,2013-02-02 11:41:00,
2013-02-02 06:42:00,37.3,23.1,30.35,North,352,5.0,8.0,56,0.00,,---,0.00,0.00,VWS V14.00,2013-02-02 11:42:00,
2013-02-02 06:43:00,37.3,23.1,30.35,North,353,5.0,8.0,56,0.00,,---,0.00,0.00,VWS V14.00,2013-02-02 11:43:00,
2013-02-02 06:44:00,37.3,23.1,30.35,NNW,343,5.0,8.0,56,0.00,,---,0.00,0.00,VWS V14.00,2013-02-02 11:44:00,
2013-02-02 06:45:00,37.2,23.0,30.35,NNW,347,6.0,8.0,56,0.00,,---,0.00,0.00,VWS V14.00,2013-02-02 11:45:00,
2013-02-02 06:46:00,37.2,23.0,30.35,NNW,344,5.0,8.0,56,0.00,,---,0.00,0.00,VWS V14.00,2013-02-02 11:46:00,
2013-02-02 06:47:00,37.3,23.5,30.35,NNW,343,8.0,8.0,57,0.00,,---,0.00,0.00,VWS V14.00,2013-02-02 11:47:00,
2013-02-02 06:48:00,37.3,23.1,30.35,NW,326,7.0,8.0,56,0.00,,---,0.00,0.00,VWS V14.00,2013-02-02 11:48:00,
2013-02-02 06:49:00,37.3,23.5,30.35,NW,321,6.0,9.0,57,0.00,,---,0.00,0.00,VWS V14.00,2013-02-02 11:49:00,
2013-02-02 06:50:00,37.4,24.4,30.35,North,349,5.0,9.0,59,0.00,,---,0.00,0.00,VWS V14.00,2013-02-02 11:50:00,
2013-02-02 06:51:00,37.4,23.1,30.35,NNW,345,6.0,9.0,56,0.00,,---,0.00,0.00,VWS V14.00,2013-02-02 11:51:00,
2013-02-02 06:52:00,37.4,22.7,30.35,NNW,334,5.0,9.0,55,0.00,,---,0.00,0.00,VWS V14.00,2013-02-02 11:52:00,
2013-02-02 06:53:00,37.5,24.5,30.35,NNW,331,7.0,9.0,59,0.00,,---,0.00,0.00,VWS V14.00,2013-02-02 11:53:00,
2013-02-02 06:54:00,37.5,24.9,30.35,NNW,337,4.0,9.0,60,0.00,,---,0.00,0.00,VWS V14.00,2013-02-02 11:54:00,
2013-02-02 06:55:00,37.6,25.0,30.35,NNW,334,6.0,9.0,60,0.00,,---,0.00,0.00,VWS V14.00,2013-02-02 11:55:00,
2013-02-02 06:56:00,37.6,24.6,30.35,NNW,328,8.0,9.0,59,0.00,,---,0.00,0.00,VWS V14.00,2013-02-02 11:56:00,
2013-02-02 06:57:00,37.6,24.2,30.35,NW,314,3.0,9.0,58,0.00,,---,0.00,0.00,VWS V14.00,2013-02-02 11:57:00,
2013-02-02 06:58:00,37.6,23.8,30.35,NW,314,2.0,9.0,57,0.00,,---,0.00,0.00,VWS V14.00,2013-02-02 11:58:00,
2013-02-02 06:59:00,37.5,24.1,30.35,North,360,7.0,9.0,58,0.00,,---,0.00,0.00,VWS V14.00,2013-02-02 11:59:00,
2013-02-02 07:00:00,37.5,24.5,30.35,NNW,333,5.0,9.0,59,0.00,,---,0.00,0.00,VWS V14.00,2013-02-02 12:00:00,
2013-02-02 07:01:00,37.5,24.1,30.35,NNW,332,7.0,8.0,58,0.00,,---,0.00,0.00,VWS V14.00,2013-02-02 12:01:00,
2013-02-02 07:02:00,37.5,24.5,30.35,NW,326,7.0,8.0,59,0.00,,---,0.00,5.00,VWS V14.00,2013-02-02 12:02:00,
2013-02-02 07:03:00,37.5,24.9,30.35,NW,326,4.0,8.0,60,0.00,,---,0.00,5.00,VWS V14.00,2013-02-02 12:03:00,
2013-02-02 07:04:00,37.5,24.5,30.35,NW,309,6.0,8.0,59,0.00,,---,0.00,5.00,VWS V14.00,2013-02-02 12:04:00,
2013-02-02 07:05:00,37.4,24.0,30.35,NW,310,4.0,8.0,58,0.00,,---,0.00,5.00,VWS V14.00,2013-02-02 12:05:00,
2013-02-02 07:06:00,37.4,24.4,30.35,NW,315,3.0,8.0,59,0.00,,---,0.00,5.00,VWS V14.00,2013-02-02 12:06:00,
2013-02-02 07:07:00,37.3,23.9,30.35,NW,324,7.0,8.0,58,0.00,,---,0.00,7.00,VWS V14.00,2013-02-02 12:07:00,
2013-02-02 07:08:00,37.3,24.3,30.35,NW,312,7.0,8.0,59,0.00,,---,0.00,7.00,VWS V14.00,2013-02-02 12:08:00,
2013-02-02 07:09:00,37.3,24.3,30.35,NW,326,9.0,10.0,59,0.00,,---,0.00,9.00,VWS V14.00,2013-02-02 12:09:00,
2013-02-02 07:10:00,37.3,24.7,30.35,NW,324,5.0,10.0,60,0.00,,---,0.00,9.00,VWS V14.00,2013-02-02 12:10:00,
2013-02-02 07:11:00,37.3,25.1,30.36,NW,320,6.0,10.0,61,0.00,,---,0.00,9.00,VWS V14.00,2013-02-02 12:11:00,
2013-02-02 07:12:00,37.3,24.7,30.36,NNW,329,8.0,10.0,60,0.00,,---,0.00,11.00,VWS V14.00,2013-02-02 12:12:00,
2013-02-02 07:13:00,37.2,25.0,30.36,NNW,330,9.0,10.0,61,0.00,,---,0.00,12.00,VWS V14.00,2013-02-02 12:13:00,
2013-02-02 07:14:00,37.2,24.6,30.36,NNW,339,5.0,10.0,60,0.00,,---,0.00,12.00,VWS V14.00,2013-02-02 12:14:00,
2013-02-02 07:15:00,37.2,24.6,30.36,NNW,345,7.0,10.0,60,0.00,,---,0.00,12.00,VWS V14.00,2013-02-02 12:15:00,
2013-02-02 07:16:00,37.2,24.6,30.36,NNW,345,7.0,10.0,60,0.00,,---,0.00,12.00,VWS V14.00,2013-02-02 12:16:00,
2013-02-02 07:17:00,37.2,24.6,30.36,NNW,345,7.0,10.0,60,0.00,,---,0.00,12.00,VWS V14.00,2013-02-02 12:17:00,
2013-02-02 07:18:00,37.2,24.6,30.36,NNW,345,7.0,10.0,60,0.00,,---,0.00,12.00,VWS V14.00,2013-02-02 12:18:00,
2013-02-02 07:19:00,37.2,24.6,30.36,NNW,345,7.0,10.0,60,0.00,,---,0.00,12.00,VWS V14.00,2013-02-02 12:19:00,
2013-02-02 07:20:00,36.9,23.5,30.36,NNW,328,7.0,10.0,58,0.00,,---,0.00,16.00,VWS V14.00,2013-02-02 12:20:00,
2013-02-02 07:21:00,36.9,24.3,30.36,NW,318,10.0,10.0,60,0.00,,---,0.00,16.00,VWS V14.00,2013-02-02 12:21:00,
2013-02-02 07:22:00,36.9,24.7,30.36,NNW,330,10.0,10.0,61,0.00,,---,0.00,18.00,VWS V14.00,2013-02-02 12:22:00,
2013-02-02 07:23:00,36.9,24.3,30.36,NNW,328,9.0,10.0,60,0.00,,---,0.00,18.00,VWS V14.00,2013-02-02 12:23:00,
2013-02-02 07:24:00,36.9,23.9,30.36,NNW,348,8.0,10.0,59,0.00,,---,0.00,19.00,VWS V14.00,2013-02-02 12:24:00,
2013-02-02 07:25:00,36.9,24.3,30.36,NNW,342,8.0,10.0,60,0.00,,---,0.00,21.00,VWS V14.00,2013-02-02 12:25:00,
2013-02-02 07:26:00,36.8,24.2,30.36,NNW,329,7.0,10.0,60,0.00,,---,0.00,23.00,VWS V14.00,2013-02-02 12:26:00,
2013-02-02 07:27:00,36.8,23.4,30.36,NW,324,9.0,10.0,58,0.00,,---,0.00,25.00,VWS V14.00,2013-02-02 12:27:00,
2013-02-02 07:28:00,36.8,23.8,30.36,NNW,336,6.0,10.0,59,0.00,,---,0.00,26.00,VWS V14.00,2013-02-02 12:28:00,
2013-02-02 07:29:00,36.7,23.7,30.36,NW,326,10.0,10.0,59,0.00,,---,0.00,28.00,VWS V14.00,2013-02-02 12:29:00,
2013-02-02 07:30:00,36.6,23.6,30.36,NW,321,7.0,10.0,59,0.00,,---,0.00,30.00,VWS V14.00,2013-02-02 12:30:00,
2013-02-02 07:31:00,36.7,24.1,30.36,NNW,329,7.0,9.0,60,0.00,,---,0.00,33.00,VWS V14.00,2013-02-02 12:31:00,
2013-02-02 07:32:00,36.6,22.8,30.36,NW,318,7.0,9.0,57,0.00,,---,0.00,37.00,VWS V14.00,2013-02-02 12:32:00,
2013-02-02 07:33:00,36.7,23.7,30.36,NW,320,8.0,9.0,59,0.00,,---,0.00,39.00,VWS V14.00,2013-02-02 12:33:00,
2013-02-02 07:34:00,36.6,22.8,30.36,NW,320,5.0,9.0,57,0.00,,---,0.00,42.00,VWS V14.00,2013-02-02 12:34:00,
2013-02-02 07:35:00,36.6,23.2,30.36,NNW,328,6.0,9.0,58,0.00,,---,0.00,44.00,VWS V14.00,2013-02-02 12:35:00,
2013-02-02 07:36:00,36.7,23.7,30.36,NNW,333,6.0,9.0,59,0.00,,---,0.00,46.00,VWS V14.00,2013-02-02 12:36:00,
2013-02-02 07:37:00,36.8,24.2,30.36,NNW,330,9.0,9.0,60,0.00,,---,0.00,46.00,VWS V14.00,2013-02-02 12:37:00,
2013-02-02 07:38:00,36.8,23.8,30.36,NW,326,8.0,9.0,59,0.00,,---,0.00,46.00,VWS V14.00,2013-02-02 12:38:00,
2013-02-02 07:39:00,36.8,24.2,30.36,NW,312,6.0,9.0,60,0.00,,---,0.00,49.00,VWS V14.00,2013-02-02 12:39:00,
2013-02-02 07:40:00,36.9,23.9,30.36,NW,326,7.0,9.0,59,0.00,,---,0.00,53.00,VWS V14.00,2013-02-02 12:40:00,
2013-02-02 07:41:00,36.9,23.5,30.36,NNW,335,8.0,10.0,58,0.00,,---,0.00,60.00,VWS V14.00,2013-02-02 12:41:00,
2013-02-02 07:42:00,36.9,23.5,30.36,NNW,333,8.0,10.0,58,0.00,,---,0.00,63.00,VWS V14.00,2013-02-02 12:42:00,
2013-02-02 07:43:00,36.8,23.0,30.36,NNW,347,6.0,10.0,57,0.00,,---,0.00,72.00,VWS V14.00,2013-02-02 12:43:00,
2013-02-02 07:44:00,36.8,23.4,30.36,NNW,335,6.0,10.0,58,0.00,,---,0.00,77.00,VWS V14.00,2013-02-02 12:44:00,
2013-02-02 07:45:00,36.8,23.4,30.36,NNW,348,5.0,10.0,58,0.00,,---,0.00,83.00,VWS V14.00,2013-02-02 12:45:00,
2013-02-02 07:46:00,36.9,23.1,30.36,NNW,343,4.0,10.0,57,0.00,,---,0.00,88.00,VWS V14.00,2013-02-02 12:46:00,
2013-02-02 07:47:00,36.9,23.5,30.36,NNW,338,6.0,10.0,58,0.00,,---,0.00,93.00,VWS V14.00,2013-02-02 12:47:00,
2013-02-02 07:48:00,37.0,24.0,30.36,NNW,337,4.0,10.0,59,0.00,,---,0.00,104.00,VWS V14.00,2013-02-02 12:48:00,
2013-02-02 07:49:00,37.0,23.2,30.36,NNW,335,7.0,10.0,57,0.00,,---,0.00,109.00,VWS V14.00,2013-02-02 12:49:00,
2013-02-02 07:50:00,37.0,24.4,30.36,NNW,327,8.0,10.0,60,0.00,,---,0.00,114.00,VWS V14.00,2013-02-02 12:50:00,
2013-02-02 07:51:00,37.0,23.2,30.36,NNW,328,5.0,10.0,57,0.00,,---,0.00,120.00,VWS V14.00,2013-02-02 12:51:00,
2013-02-02 07:52:00,37.0,23.6,30.36,NW,324,3.0,10.0,58,0.00,,---,0.00,123.00,VWS V14.00,2013-02-02 12:52:00,
2013-02-02 07:53:00,37.1,23.3,30.36,NW,324,4.0,10.0,57,0.00,,---,0.00,128.00,VWS V14.00,2013-02-02 12:53:00,
2013-02-02 07:54:00,37.1,23.3,30.36,NW,324,4.0,10.0,57,0.00,,---,0.00,132.00,VWS V14.00,2013-02-02 12:54:00,
2013-02-02 07:55:00,37.2,23.4,30.36,NW,318,5.0,10.0,57,0.00,,---,0.00,139.00,VWS V14.00,2013-02-02 12:55:00,
2013-02-02 07:56:00,37.2,23.0,30.36,NNW,329,5.0,10.0,56,0.00,,---,0.00,142.00,VWS V14.00,2013-02-02 12:56:00,
2013-02-02 07:57:00,37.3,23.5,30.36,NNW,330,7.0,10.0,57,0.00,,---,0.00,146.00,VWS V14.00,2013-02-02 12:57:00,
2013-02-02 07:58:00,37.3,23.1,30.36,NNW,341,5.0,10.0,56,0.00,,---,0.00,148.00,VWS V14.00,2013-02-02 12:58:00,
2013-02-02 07:59:00,37.3,22.6,30.36,NNW,337,7.0,10.0,55,0.00,,---,0.00,151.00,VWS V14.00,2013-02-02 12:59:00,
2013-02-02 08:00:00,37.4,23.1,30.36,NNW,339,5.0,10.0,56,0.00,,---,0.00,158.00,VWS V14.00,2013-02-02 13:00:00,
2013-02-02 08:01:00,37.4,22.7,30.36,NNW,347,5.0,7.0,55,0.00,,---,0.00,162.00,VWS V14.00,2013-02-02 13:01:00,
2013-02-02 08:02:00,37.5,22.8,30.36,NNW,347,6.0,7.0,55,0.00,,---,0.00,163.00,VWS V14.00,2013-02-02 13:02:00,
2013-02-02 08:03:00,37.6,22.5,30.36,NNW,347,4.0,7.0,54,0.00,,---,0.00,167.00,VWS V14.00,2013-02-02 13:03:00,
2013-02-02 08:04:00,37.7,23.4,30.36,NNW,347,4.0,7.0,56,0.00,,---,0.00,171.00,VWS V14.00,2013-02-02 13:04:00,
2013-02-02 08:05:00,37.8,23.1,30.36,NNW,347,3.0,7.0,55,0.00,,---,0.00,174.00,VWS V14.00,2013-02-02 13:05:00,
2013-02-02 08:06:00,37.9,23.2,30.35,NNW,347,3.0,7.0,55,0.00,,---,0.00,176.00,VWS V14.00,2013-02-02 13:06:00,
2013-02-02 08:07:00,37.9,23.6,30.35,NNW,347,1.0,7.0,56,0.00,,---,0.00,176.00,VWS V14.00,2013-02-02 13:07:00,
2013-02-02 08:08:00,38.0,23.7,30.35,NNW,346,4.0,7.0,56,0.00,,---,0.00,176.00,VWS V14.00,2013-02-02 13:08:00,
2013-02-02 08:09:00,38.2,23.5,30.35,NNW,346,3.0,7.0,55,0.00,,---,0.00,178.00,VWS V14.00,2013-02-02 13:09:00,
2013-02-02 08:10:00,38.2,23.5,30.35,NNW,346,4.0,7.0,55,0.00,,---,0.00,178.00,VWS V14.00,2013-02-02 13:10:00,
2013-02-02 08:11:00,38.3,22.7,30.35,NNW,346,3.0,7.0,53,0.00,,---,0.00,174.00,VWS V14.00,2013-02-02 13:11:00,
2013-02-02 08:12:00,38.3,23.1,30.35,NNW,346,3.0,7.0,54,0.00,,---,0.00,169.00,VWS V14.00,2013-02-02 13:12:00,
2013-02-02 08:13:00,38.4,23.7,30.35,NNW,346,1.0,7.0,55,0.00,,---,0.00,165.00,VWS V14.00,2013-02-02 13:13:00,
2013-02-02 08:14:00,38.4,24.1,30.35,NNW,346,3.0,7.0,56,0.00,,---,0.00,162.00,VWS V14.00,2013-02-02 13:14:00,
2013-02-02 08:15:00,38.5,23.3,30.35,NNW,346,4.0,7.0,54,0.00,,---,0.00,160.00,VWS V14.00,2013-02-02 13:15:00,
2013-02-02 08:16:00,38.6,23.8,30.35,NNW,346,3.0,7.0,55,0.00,,---,0.00,158.00,VWS V14.00,2013-02-02 13:16:00,
2013-02-02 08:17:00,38.6,23.8,30.35,NNW,346,3.0,7.0,55,0.00,,---,0.00,156.00,VWS V14.00,2013-02-02 13:17:00,
2013-02-02 08:18:00,38.7,23.5,30.35,NNW,346,3.0,7.0,54,0.00,,---,0.00,158.00,VWS V14.00,2013-02-02 13:18:00,
2013-02-02 08:19:00,38.8,24.5,30.36,NNW,343,5.0,7.0,56,0.00,,---,0.00,160.00,VWS V14.00,2013-02-02 13:19:00,
2013-02-02 08:20:00,38.9,24.6,30.36,NNW,328,5.0,7.0,56,0.00,,---,0.00,163.00,VWS V14.00,2013-02-02 13:20:00,
2013-02-02 08:21:00,39.0,24.6,30.35,NNW,330,4.0,7.0,56,0.00,,---,0.00,167.00,VWS V14.00,2013-02-02 13:21:00,
2013-02-02 08:22:00,39.0,24.2,30.36,NNW,330,4.0,7.0,55,0.00,,---,0.00,172.00,VWS V14.00,2013-02-02 13:22:00,
2013-02-02 08:23:00,39.1,24.3,30.36,NNW,330,3.0,7.0,55,0.00,,---,0.00,178.00,VWS V14.00,2013-02-02 13:23:00,
2013-02-02 08:24:00,39.2,25.3,30.36,NNW,330,4.0,7.0,57,0.00,,---,0.00,192.00,VWS V14.00,2013-02-02 13:24:00,
2013-02-02 08:25:00,39.3,24.9,30.36,NNW,328,5.0,7.0,56,0.00,,---,0.00,200.00,VWS V14.00,2013-02-02 13:25:00,
2013-02-02 08:26:00,39.3,24.5,30.36,NNW,328,3.0,7.0,55,0.00,,---,0.00,209.00,VWS V14.00,2013-02-02 13:26:00,
2013-02-02 08:27:00,39.3,24.1,30.36,NNW,328,3.0,7.0,54,0.00,,---,0.00,218.00,VWS V14.00,2013-02-02 13:27:00,
2013-02-02 08:28:00,39.4,24.1,30.36,NNW,328,3.0,7.0,54,0.00,,---,0.00,229.00,VWS V14.00,2013-02-02 13:28:00,
2013-02-02 08:29:00,39.4,24.6,30.36,NNW,328,2.0,7.0,55,0.00,,---,0.00,239.00,VWS V14.00,2013-02-02 13:29:00,
2013-02-02 08:30:00,39.5,25.5,30.36,NNW,328,4.0,7.0,57,0.00,,---,0.00,258.00,VWS V14.00,2013-02-02 13:30:00,
2013-02-02 08:31:00,39.6,25.2,30.36,NNW,328,3.0,4.0,56,0.00,,---,0.00,267.00,VWS V14.00,2013-02-02 13:31:00,
2013-02-02 08:32:00,39.6,24.8,30.36,NNW,328,5.0,5.0,55,0.00,,---,0.00,272.00,VWS V14.00,2013-02-02 13:32:00,
2013-02-02 08:33:00,39.7,24.9,30.36,NNW,327,6.0,6.0,55,0.00,,---,0.00,276.00,VWS V14.00,2013-02-02 13:33:00,
2013-02-02 08:34:00,39.7,24.9,30.36,NNW,327,4.0,6.0,55,0.00,,---,0.00,279.00,VWS V14.00,2013-02-02 13:34:00,
2013-02-02 08:35:00,39.7,24.9,30.36,NW,326,4.0,7.0,55,0.00,,---,0.00,287.00,VWS V14.00,2013-02-02 13:35:00,
2013-02-02 08:36:00,39.8,25.0,30.36,NW,326,4.0,7.0,55,0.00,,---,0.00,290.00,VWS V14.00,2013-02-02 13:36:00,
2013-02-02 08:37:00,39.8,25.0,30.36,NW,326,4.0,7.0,55,0.00,,---,0.00,292.00,VWS V14.00,2013-02-02 13:37:00,
2013-02-02 08:38:00,39.8,24.5,30.36,NW,326,4.0,7.0,54,0.00,,---,0.00,295.00,VWS V14.00,2013-02-02 13:38:00,
2013-02-02 08:39:00,39.9,25.1,30.36,NW,326,6.0,7.0,55,0.00,,---,0.00,299.00,VWS V14.00,2013-02-02 13:39:00,
2013-02-02 08:40:00,39.9,25.1,30.36,NNW,345,3.0,7.0,55,0.00,,---,0.00,301.00,VWS V14.00,2013-02-02 13:40:00,
2013-02-02 08:41:00,40.0,25.1,30.36,NNW,338,6.0,7.0,55,0.00,,---,0.00,308.00,VWS V14.00,2013-02-02 13:41:00,
2013-02-02 08:42:00,40.1,25.7,30.36,NNW,337,3.0,7.0,56,0.00,,---,0.00,309.00,VWS V14.00,2013-02-02 13:42:00,
2013-02-02 08:43:00,40.2,25.8,30.36,NNW,337,4.0,7.0,56,0.00,,---,0.00,313.00,VWS V14.00,2013-02-02 13:43:00,
2013-02-02 08:44:00,40.3,25.4,30.36,NNW,336,4.0,7.0,55,0.00,,---,0.00,316.00,VWS V14.00,2013-02-02 13:44:00,
2013-02-02 08:45:00,40.4,26.0,30.36,NNW,336,3.0,7.0,56,0.00,,---,0.00,320.00,VWS V14.00,2013-02-02 13:45:00,
2013-02-02 08:46:00,40.4,25.1,30.36,NNW,336,3.0,7.0,54,0.00,,---,0.00,323.00,VWS V14.00,2013-02-02 13:46:00,
2013-02-02 08:47:00,40.4,25.5,30.36,NNW,336,1.0,7.0,55,0.00,,---,0.00,329.00,VWS V14.00,2013-02-02 13:47:00,
2013-02-02 08:48:00,40.5,25.2,30.36,NNW,335,3.0,7.0,54,0.00,,---,0.00,332.00,VWS V14.00,2013-02-02 13:48:00,
2013-02-02 08:49:00,40.5,26.0,30.36,NNW,335,2.0,7.0,56,0.00,,---,0.00,336.00,VWS V14.00,2013-02-02 13:49:00,
2013-02-02 08:50:00,40.6,25.3,30.36,NNW,335,0.0,7.0,54,0.00,,---,0.00,339.00,VWS V14.00,2013-02-02 13:50:00,
2013-02-02 08:51:00,40.7,25.4,30.35,NNW,335,3.0,7.0,54,0.00,,---,0.00,341.00,VWS V14.00,2013-02-02 13:51:00,
2013-02-02 08:52:00,40.7,25.4,30.35,NNW,335,2.0,7.0,54,0.00,,---,0.00,343.00,VWS V14.00,2013-02-02 13:52:00,
2013-02-02 08:53:00,40.8,25.5,30.35,NNW,335,2.0,7.0,54,0.00,,---,0.00,350.00,VWS V14.00,2013-02-02 13:53:00,
2013-02-02 08:54:00,40.8,25.5,30.35,NNW,335,2.0,7.0,54,0.00,,---,0.00,353.00,VWS V14.00,2013-02-02 13:54:00,
2013-02-02 08:55:00,40.9,25.5,30.36,NNW,335,0.0,7.0,54,0.00,,---,0.00,357.00,VWS V14.00,2013-02-02 13:55:00,
2013-02-02 08:56:00,40.9,25.5,30.36,NNW,335,2.0,7.0,54,0.00,,---,0.00,359.00,VWS V14.00,2013-02-02 13:56:00,
2013-02-02 08:57:00,41.1,25.7,30.36,NNW,335,4.0,7.0,54,0.00,,---,0.00,362.00,VWS V14.00,2013-02-02 13:57:00,
2013-02-02 08:58:00,41.1,25.7,30.36,NNW,335,1.0,7.0,54,0.00,,---,0.00,364.00,VWS V14.00,2013-02-02 13:58:00,
2013-02-02 08:59:00,41.3,26.4,30.36,NNW,335,3.0,7.0,55,0.00,,---,0.00,371.00,VWS V14.00,2013-02-02 13:59:00,
2013-02-02 09:00:00,41.3,26.4,30.35,NNW,335,2.0,7.0,55,0.00,,---,0.00,373.00,VWS V14.00,2013-02-02 14:00:00,
2013-02-02 09:01:00,41.4,26.5,30.36,NNW,335,1.0,3.0,55,0.00,,---,0.00,376.00,VWS V14.00,2013-02-02 14:01:00,
2013-02-02 09:02:00,41.5,26.1,30.36,NNW,335,0.0,3.0,54,0.00,,---,0.00,380.00,VWS V14.00,2013-02-02 14:02:00,
2013-02-02 09:03:00,41.6,26.6,30.36,NNW,335,1.0,3.0,55,0.00,,---,0.00,383.00,VWS V14.00,2013-02-02 14:03:00,
2013-02-02 09:04:00,41.7,26.7,30.36,NNW,335,0.0,3.0,55,0.00,,---,0.00,387.00,VWS V14.00,2013-02-02 14:04:00,
2013-02-02 09:05:00,41.8,26.8,30.36,NNW,335,0.0,3.0,55,0.00,,---,0.00,390.00,VWS V14.00,2013-02-02 14:05:00,
2013-02-02 09:06:00,41.8,26.8,30.35,NNW,335,2.0,3.0,55,0.00,,---,0.00,394.00,VWS V14.00,2013-02-02 14:06:00,
2013-02-02 09:07:00,42.0,27.9,30.36,NNW,335,3.0,3.0,57,0.00,,---,0.00,394.00,VWS V14.00,2013-02-02 14:07:00,
2013-02-02 09:08:00,42.1,27.1,30.36,NNW,335,1.0,3.0,55,0.00,,---,0.00,396.00,VWS V14.00,2013-02-02 14:08:00,
2013-02-02 09:09:00,42.2,27.2,30.36,NNW,335,2.0,3.0,55,0.00,,---,0.00,394.00,VWS V14.00,2013-02-02 14:09:00,
2013-02-02 09:10:00,42.3,27.3,30.36,NNW,335,3.0,4.0,55,0.00,,---,0.00,396.00,VWS V14.00,2013-02-02 14:10:00,
2013-02-02 09:11:00,42.4,27.4,30.36,NNW,335,2.0,4.0,55,0.00,,---,0.00,396.00,VWS V14.00,2013-02-02 14:11:00,
2013-02-02 09:12:00,42.5,27.9,30.36,NNW,335,0.0,4.0,56,0.00,,---,0.00,394.00,VWS V14.00,2013-02-02 14:12:00,
2013-02-02 09:13:00,42.6,28.0,30.36,NNW,335,2.0,4.0,56,0.00,,---,0.00,394.00,VWS V14.00,2013-02-02 14:13:00,
2013-02-02 09:14:00,42.7,28.1,30.36,NNW,335,2.0,4.0,56,0.00,,---,0.00,396.00,VWS V14.00,2013-02-02 14:14:00,
2013-02-02 09:15:00,42.7,27.7,30.36,NNW,335,2.0,4.0,55,0.00,,---,0.00,394.00,VWS V14.00,2013-02-02 14:15:00,
2013-02-02 09:16:00,42.8,28.2,30.36,NNW,335,3.0,4.0,56,0.00,,---,0.00,394.00,VWS V14.00,2013-02-02 14:16:00,
2013-02-02 09:17:00,42.9,28.3,30.36,NNW,335,3.0,4.0,56,0.00,,---,0.00,392.00,VWS V14.00,2013-02-02 14:17:00,
2013-02-02 09:18:00,43.0,28.0,30.35,NNW,335,2.0,4.0,55,0.00,,---,0.00,394.00,VWS V14.00,2013-02-02 14:18:00,
2013-02-02 09:19:00,43.1,28.5,30.36,NNW,335,4.0,4.0,56,0.00,,---,0.00,392.00,VWS V14.00,2013-02-02 14:19:00,
2013-02-02 09:20:00,43.2,28.6,30.36,NNW,335,1.0,4.0,56,0.00,,---,0.00,394.00,VWS V14.00,2013-02-02 14:20:00,
2013-02-02 09:21:00,43.2,28.6,30.35,NNW,335,3.0,4.0,56,0.00,,---,0.00,394.00,VWS V14.00,2013-02-02 14:21:00,
2013-02-02 09:22:00,43.3,28.7,30.36,NNW,335,3.0,4.0,56,0.00,,---,0.00,394.00,VWS V14.00,2013-02-02 14:22:00,
2013-02-02 09:23:00,43.4,28.8,30.35,NNW,335,2.0,4.0,56,0.00,,---,0.00,396.00,VWS V14.00,2013-02-02 14:23:00,
2013-02-02 09:24:00,43.5,28.9,30.35,NNW,335,1.0,4.0,56,0.00,,---,0.00,397.00,VWS V14.00,2013-02-02 14:24:00,
2013-02-02 09:25:00,43.6,28.5,30.35,NNW,335,0.0,4.0,55,0.00,,---,0.00,397.00,VWS V14.00,2013-02-02 14:25:00,
2013-02-02 09:26:00,43.7,29.0,30.35,NNW,335,0.0,4.0,56,0.00,,---,0.00,397.00,VWS V14.00,2013-02-02 14:26:00,
2013-02-02 09:27:00,43.8,29.1,30.35,NNW,335,0.0,4.0,56,0.00,,---,0.00,399.00,VWS V14.00,2013-02-02 14:27:00,
2013-02-02 09:28:00,44.0,29.8,30.35,NNW,335,0.0,4.0,57,0.00,,---,0.00,403.00,VWS V14.00,2013-02-02 14:28:00,
2013-02-02 09:29:00,44.2,30.0,30.35,NNW,335,0.0,4.0,57,0.00,,---,0.00,404.00,VWS V14.00,2013-02-02 14:29:00,
2013-02-02 09:30:00,44.4,30.1,30.35,NNW,335,0.0,4.0,57,0.00,,---,0.00,406.00,VWS V14.00,2013-02-02 14:30:00,
2013-02-02 09:31:00,44.8,30.9,30.35,NNW,335,0.0,0.0,58,0.00,,---,0.00,408.00,VWS V14.00,2013-02-02 14:31:00,
2013-02-02 09:32:00,45.1,30.8,30.35,NNW,335,2.0,3.0,57,0.00,,---,0.00,411.00,VWS V14.00,2013-02-02 14:32:00,
2013-02-02 09:33:00,45.4,30.2,30.35,NNW,335,2.0,3.0,55,0.00,,---,0.00,413.00,VWS V14.00,2013-02-02 14:33:00,
2013-02-02 09:34:00,45.6,29.9,30.35,NNW,335,0.0,3.0,54,0.00,,---,0.00,422.00,VWS V14.00,2013-02-02 14:34:00,
2013-02-02 09:35:00,45.8,30.1,30.35,NNW,335,0.0,3.0,54,0.00,,---,0.00,425.00,VWS V14.00,2013-02-02 14:35:00,
2013-02-02 09:36:00,45.9,30.2,30.35,NNW,335,0.0,3.0,54,0.00,,---,0.00,431.00,VWS V14.00,2013-02-02 14:36:00,
2013-02-02 09:37:00,46.0,30.3,30.35,NNW,335,0.0,3.0,54,0.00,,---,0.00,436.00,VWS V14.00,2013-02-02 14:37:00,
2013-02-02 09:38:00,46.1,30.4,30.35,NNW,335,0.0,3.0,54,0.00,,---,0.00,439.00,VWS V14.00,2013-02-02 14:38:00,
2013-02-02 09:39:00,46.2,30.9,30.35,NNW,335,0.0,3.0,55,0.00,,---,0.00,445.00,VWS V14.00,2013-02-02 14:39:00,
2013-02-02 09:40:00,46.3,31.0,30.35,NNW,335,0.0,3.0,55,0.00,,---,0.00,454.00,VWS V14.00,2013-02-02 14:40:00,
2013-02-02 09:41:00,46.5,31.7,30.35,NNW,335,0.0,3.0,56,0.00,,---,0.00,459.00,VWS V14.00,2013-02-02 14:41:00,
2013-02-02 09:42:00,46.7,30.5,30.35,NNW,335,0.0,3.0,53,0.00,,---,0.00,464.00,VWS V14.00,2013-02-02 14:42:00,
2013-02-02 09:43:00,46.8,30.6,30.35,NNW,335,0.0,3.0,53,0.00,,---,0.00,468.00,VWS V14.00,2013-02-02 14:43:00,
2013-02-02 09:44:00,47.0,30.8,30.35,NNW,335,0.0,3.0,53,0.00,,---,0.00,471.00,VWS V14.00,2013-02-02 14:44:00,
2013-02-02 09:45:00,47.2,31.9,30.35,NNW,335,0.0,3.0,55,0.00,,---,0.00,478.00,VWS V14.00,2013-02-02 14:45:00,
2013-02-02 09:46:00,47.6,32.2,30.35,NNW,335,0.0,3.0,55,0.00,,---,0.00,489.00,VWS V14.00,2013-02-02 14:46:00,
2013-02-02 09:47:00,47.9,32.1,30.35,NNW,335,0.0,3.0,54,0.00,,---,0.00,494.00,VWS V14.00,2013-02-02 14:47:00,
2013-02-02 09:48:00,48.2,31.9,30.35,NNW,335,0.0,3.0,53,0.00,,---,0.00,499.00,VWS V14.00,2013-02-02 14:48:00,
2013-02-02 09:49:00,48.5,31.2,30.35,NNW,335,0.0,3.0,51,0.00,,---,0.00,504.00,VWS V14.00,2013-02-02 14:49:00,
2013-02-02 09:50:00,48.8,31.5,30.35,NNW,335,0.0,3.0,51,0.00,,---,0.00,510.00,VWS V14.00,2013-02-02 14:50:00,
2013-02-02 09:51:00,49.0,31.7,30.35,NNW,335,0.0,3.0,51,0.00,,---,0.00,513.00,VWS V14.00,2013-02-02 14:51:00,
2013-02-02 09:52:00,49.2,31.9,30.35,NNW,335,0.0,3.0,51,0.00,,---,0.00,522.00,VWS V14.00,2013-02-02 14:52:00,
2013-02-02 09:53:00,49.3,32.0,30.35,NNW,335,0.0,3.0,51,0.00,,---,0.00,526.00,VWS V14.00,2013-02-02 14:53:00,
2013-02-02 09:54:00,49.4,32.0,30.35,NNW,335,0.0,3.0,51,0.00,,---,0.00,529.00,VWS V14.00,2013-02-02 14:54:00,
2013-02-02 09:55:00,49.3,32.0,30.35,NNW,335,0.0,3.0,51,0.00,,---,0.00,533.00,VWS V14.00,2013-02-02 14:55:00,
2013-02-02 09:56:00,49.2,32.3,30.35,NNW,335,0.0,3.0,52,0.00,,---,0.00,538.00,VWS V14.00,2013-02-02 14:56:00,
2013-02-02 09:57:00,49.2,32.3,30.35,NNW,335,0.0,3.0,52,0.00,,---,0.00,541.00,VWS V14.00,2013-02-02 14:57:00,
2013-02-02 09:58:00,49.2,32.3,30.36,NNW,335,0.0,3.0,52,0.00,,---,0.00,550.00,VWS V14.00,2013-02-02 14:58:00,
2013-02-02 09:59:00,49.2,31.9,30.36,NNW,335,0.0,3.0,51,0.00,,---,0.00,555.00,VWS V14.00,2013-02-02 14:59:00,
2013-02-02 10:00:00,49.3,32.0,30.36,NNW,335,0.0,3.0,51,0.00,,---,0.00,557.00,VWS V14.00,2013-02-02 15:00:00,
2013-02-02 10:01:00,49.4,32.5,30.35,NNW,335,0.0,0.0,52,0.00,,---,0.00,563.00,VWS V14.00,2013-02-02 15:01:00,
2013-02-02 10:02:00,49.5,32.1,30.35,NNW,335,0.0,0.0,51,0.00,,---,0.00,566.00,VWS V14.00,2013-02-02 15:02:00,
2013-02-02 10:03:00,49.5,32.6,30.36,NNW,335,0.0,0.0,52,0.00,,---,0.00,573.00,VWS V14.00,2013-02-02 15:03:00,
2013-02-02 10:04:00,49.5,32.6,30.35,NNW,335,0.0,0.0,52,0.00,,---,0.00,577.00,VWS V14.00,2013-02-02 15:04:00,
2013-02-02 10:05:00,49.5,32.6,30.35,NNW,335,0.0,0.0,52,0.00,,---,0.00,580.00,VWS V14.00,2013-02-02 15:05:00,
2013-02-02 10:06:00,49.5,32.6,30.35,NNW,335,0.0,0.0,52,0.00,,---,0.00,582.00,VWS V14.00,2013-02-02 15:06:00,
2013-02-02 10:07:00,49.4,32.0,30.35,NNW,335,0.0,0.0,51,0.00,,---,0.00,584.00,VWS V14.00,2013-02-02 15:07:00,
2013-02-02 10:08:00,49.4,32.0,30.35,NNW,335,0.0,0.0,51,0.00,,---,0.00,587.00,VWS V14.00,2013-02-02 15:08:00,
2013-02-02 10:09:00,49.4,32.0,30.35,NNW,335,0.0,0.0,51,0.00,,---,0.00,591.00,VWS V14.00,2013-02-02 15:09:00,
2013-02-02 10:10:00,49.4,32.5,30.35,NNW,335,0.0,0.0,52,0.00,,---,0.00,594.00,VWS V14.00,2013-02-02 15:10:00,
2013-02-02 10:11:00,49.7,32.8,30.35,NNW,335,0.0,0.0,52,0.00,,---,0.00,596.00,VWS V14.00,2013-02-02 15:11:00,
2013-02-02 10:12:00,49.9,33.5,30.35,NNW,335,0.0,0.0,53,0.00,,---,0.00,599.00,VWS V14.00,2013-02-02 15:12:00,
2013-02-02 10:13:00,50.1,32.7,30.35,NNW,335,0.0,0.0,51,0.00,,---,0.00,599.00,VWS V14.00,2013-02-02 15:13:00,
2013-02-02 10:14:00,50.4,33.0,30.35,NNW,335,0.0,0.0,51,0.00,,---,0.00,603.00,VWS V14.00,2013-02-02 15:14:00,
2013-02-02 10:15:00,50.6,33.2,30.35,NNW,335,0.0,0.0,51,0.00,,---,0.00,608.00,VWS V14.00,2013-02-02 15:15:00,
2013-02-02 10:16:00,50.9,33.4,30.35,NNW,335,0.0,0.0,51,0.00,,---,0.00,612.00,VWS V14.00,2013-02-02 15:16:00,
2013-02-02 10:17:00,51.1,34.6,30.35,NNW,335,0.0,0.0,53,0.00,,---,0.00,610.00,VWS V14.00,2013-02-02 15:17:00,
2013-02-02 10:18:00,51.3,34.3,30.35,NNW,335,0.0,0.0,52,0.00,,---,0.00,612.00,VWS V14.00,2013-02-02 15:18:00,
2013-02-02 10:19:00,51.4,34.4,30.35,NNW,335,0.0,0.0,52,0.00,,---,0.00,615.00,VWS V14.00,2013-02-02 15:19:00,
2013-02-02 10:20:00,51.5,34.0,30.35,NNW,335,0.0,0.0,51,0.00,,---,0.00,619.00,VWS V14.00,2013-02-02 15:20:00,
2013-02-02 10:21:00,51.6,33.6,30.35,NNW,335,0.0,0.0,50,0.00,,---,0.00,622.00,VWS V14.00,2013-02-02 15:21:00,
2013-02-02 10:22:00,51.7,34.2,30.35,NNW,335,0.0,0.0,51,0.00,,---,0.00,621.00,VWS V14.00,2013-02-02 15:22:00,
2013-02-02 10:23:00,51.9,34.4,30.35,NNW,335,2.0,2.0,51,0.00,,---,0.00,624.00,VWS V14.00,2013-02-02 15:23:00,
2013-02-02 10:24:00,52.1,34.0,30.35,NNW,335,1.0,3.0,50,0.00,,---,0.00,629.00,VWS V14.00,2013-02-02 15:24:00,
2013-02-02 10:25:00,52.3,33.7,30.35,NNW,335,0.0,3.0,49,0.00,,---,0.00,631.00,VWS V14.00,2013-02-02 15:25:00,
2013-02-02 10:26:00,52.5,34.4,30.34,NNW,335,1.0,3.0,50,0.00,,---,0.00,629.00,VWS V14.00,2013-02-02 15:26:00,
2013-02-02 10:27:00,52.6,34.0,30.34,NNW,335,1.0,3.0,49,0.00,,---,0.00,638.00,VWS V14.00,2013-02-02 15:27:00,
2013-02-02 10:28:00,52.6,34.0,30.34,NNW,335,0.0,3.0,49,0.00,,---,0.00,638.00,VWS V14.00,2013-02-02 15:28:00,
2013-02-02 10:29:00,52.6,34.0,30.34,NNW,335,0.0,3.0,49,0.00,,---,0.00,642.00,VWS V14.00,2013-02-02 15:29:00,
2013-02-02 10:30:00,52.6,34.0,30.34,NNW,335,0.0,3.0,49,0.00,,---,0.00,645.00,VWS V14.00,2013-02-02 15:30:00,
2013-02-02 10:31:00,52.7,34.6,30.34,NNW,335,0.0,0.0,50,0.00,,---,0.00,643.00,VWS V14.00,2013-02-02 15:31:00,
2013-02-02 10:32:00,52.8,34.2,30.34,NNW,335,0.0,0.0,49,0.00,,---,0.00,649.00,VWS V14.00,2013-02-02 15:32:00,
2013-02-02 10:33:00,52.8,34.2,30.34,NNW,335,4.0,4.0,49,0.00,,---,0.00,652.00,VWS V14.00,2013-02-02 15:33:00,
2013-02-02 10:34:00,52.8,34.7,30.34,NNW,335,4.0,4.0,50,0.00,,---,0.00,654.00,VWS V14.00,2013-02-02 15:34:00,
2013-02-02 10:35:00,52.7,34.1,30.34,NNW,335,2.0,4.0,49,0.00,,---,0.00,656.00,VWS V14.00,2013-02-02 15:35:00,
2013-02-02 10:36:00,52.6,34.0,30.35,NNW,335,1.0,4.0,49,0.00,,---,0.00,657.00,VWS V14.00,2013-02-02 15:36:00,
2013-02-02 10:37:00,52.5,33.9,30.35,NNW,335,1.0,4.0,49,0.00,,---,0.00,659.00,VWS V14.00,2013-02-02 15:37:00,
2013-02-02 10:38:00,52.4,34.3,30.34,NNW,335,0.0,4.0,50,0.00,,---,0.00,661.00,VWS V14.00,2013-02-02 15:38:00,
2013-02-02 10:39:00,52.4,34.8,30.34,NNW,335,2.0,4.0,51,0.00,,---,0.00,664.00,VWS V14.00,2013-02-02 15:39:00,
2013-02-02 10:40:00,52.4,34.3,30.34,NNW,335,2.0,4.0,50,0.00,,---,0.00,666.00,VWS V14.00,2013-02-02 15:40:00,
2013-02-02 10:41:00,52.3,34.2,30.34,NNW,335,0.0,4.0,50,0.00,,---,0.00,668.00,VWS V14.00,2013-02-02 15:41:00,
2013-02-02 10:42:00,52.3,34.2,30.34,NNW,335,2.0,4.0,50,0.00,,---,0.00,670.00,VWS V14.00,2013-02-02 15:42:00,
2013-02-02 10:43:00,52.3,34.2,30.34,NNW,335,0.0,4.0,50,0.00,,---,0.00,671.00,VWS V14.00,2013-02-02 15:43:00,
2013-02-02 10:44:00,52.4,34.8,30.34,NNW,335,0.0,4.0,51,0.00,,---,0.00,673.00,VWS V14.00,2013-02-02 15:44:00,
2013-02-02 10:45:00,52.4,34.8,30.33,NNW,335,0.0,4.0,51,0.00,,---,0.00,679.00,VWS V14.00,2013-02-02 15:45:00,
2013-02-02 10:46:00,52.5,34.4,30.33,NNW,335,0.0,4.0,50,0.00,,---,0.00,679.00,VWS V14.00,2013-02-02 15:46:00,
2013-02-02 10:47:00,52.7,34.1,30.34,NNW,335,0.0,4.0,49,0.00,,---,0.00,679.00,VWS V14.00,2013-02-02 15:47:00,
2013-02-02 10:48:00,52.9,35.3,30.33,NNW,335,0.0,4.0,51,0.00,,---,0.00,682.00,VWS V14.00,2013-02-02 15:48:00,
2013-02-02 10:49:00,53.2,35.1,30.34,NNW,335,0.0,4.0,50,0.00,,---,0.00,686.00,VWS V14.00,2013-02-02 15:49:00,
2013-02-02 10:50:00,53.4,34.7,30.34,NNW,335,2.0,4.0,49,0.00,,---,0.00,687.00,VWS V14.00,2013-02-02 15:50:00,
2013-02-02 10:51:00,53.7,34.0,30.34,NNW,335,0.0,4.0,47,0.00,,---,0.00,689.00,VWS V14.00,2013-02-02 15:51:00,
2013-02-02 10:52:00,53.8,34.1,30.33,NNW,335,0.0,4.0,47,0.00,,---,0.00,689.00,VWS V14.00,2013-02-02 15:52:00,
2013-02-02 10:53:00,54.0,34.8,30.34,NNW,335,0.0,4.0,48,0.00,,---,0.00,689.00,VWS V14.00,2013-02-02 15:53:00,
2013-02-02 10:54:00,54.2,35.5,30.34,NNW,335,0.0,4.0,49,0.00,,---,0.00,693.00,VWS V14.00,2013-02-02 15:54:00,
2013-02-02 10:55:00,54.3,35.6,30.34,NNW,335,0.0,4.0,49,0.00,,---,0.00,696.00,VWS V14.00,2013-02-02 15:55:00,
2013-02-02 10:56:00,54.4,35.1,30.34,NNW,335,0.0,4.0,48,0.00,,---,0.00,698.00,VWS V14.00,2013-02-02 15:56:00,
2013-02-02 10:57:00,54.6,35.3,30.34,NNW,335,0.0,4.0,48,0.00,,---,0.00,700.00,VWS V14.00,2013-02-02 15:57:00,
2013-02-02 10:58:00,54.8,34.4,30.33,NNW,335,0.0,4.0,46,0.00,,---,0.00,701.00,VWS V14.00,2013-02-02 15:58:00,
2013-02-02 10:59:00,54.8,34.4,30.33,NNW,335,0.0,4.0,46,0.00,,---,0.00,703.00,VWS V14.00,2013-02-02 15:59:00,
2013-02-02 11:00:00,54.8,33.9,30.33,NNW,335,0.0,4.0,45,0.00,,---,0.00,705.00,VWS V14.00,2013-02-02 16:00:00,
2013-02-02 11:01:00,54.9,34.5,30.33,NNW,335,0.0,0.0,46,0.00,,---,0.00,705.00,VWS V14.00,2013-02-02 16:01:00,
2013-02-02 11:02:00,55.0,34.1,30.33,NNW,335,0.0,0.0,45,0.00,,---,0.00,708.00,VWS V14.00,2013-02-02 16:02:00,
2013-02-02 11:03:00,55.1,34.7,30.33,NNW,335,0.0,0.0,46,0.00,,---,0.00,710.00,VWS V14.00,2013-02-02 16:03:00,
2013-02-02 11:04:00,55.4,35.0,30.33,NNW,335,0.0,0.0,46,0.00,,---,0.00,714.00,VWS V14.00,2013-02-02 16:04:00,
2013-02-02 11:05:00,55.6,36.2,30.33,NNW,335,0.0,0.0,48,0.00,,---,0.00,712.00,VWS V14.00,2013-02-02 16:05:00,
2013-02-02 11:06:00,55.8,34.2,30.33,NNW,335,0.0,0.0,44,0.00,,---,0.00,715.00,VWS V14.00,2013-02-02 16:06:00,
2013-02-02 11:07:00,55.9,34.9,30.33,NNW,335,0.0,0.0,45,0.00,,---,0.00,715.00,VWS V14.00,2013-02-02 16:07:00,
2013-02-02 11:08:00,56.0,34.4,30.33,NNW,335,0.0,0.0,44,0.00,,---,0.00,719.00,VWS V14.00,2013-02-02 16:08:00,
2013-02-02 11:09:00,55.9,33.8,30.33,NNW,335,0.0,0.0,43,0.00,,---,0.00,719.00,VWS V14.00,2013-02-02 16:09:00,
2013-02-02 11:10:00,55.9,33.8,30.33,NNW,335,0.0,0.0,43,0.00,,---,0.00,719.00,VWS V14.00,2013-02-02 16:10:00,
2013-02-02 11:11:00,55.9,34.3,30.33,NNW,335,0.0,0.0,44,0.00,,---,0.00,719.00,VWS V14.00,2013-02-02 16:11:00,
2013-02-02 11:12:00,55.8,33.1,30.33,NNW,335,0.0,0.0,42,0.00,,---,0.00,719.00,VWS V14.00,2013-02-02 16:12:00,
2013-02-02 11:13:00,55.8,32.5,30.33,NNW,335,0.0,0.0,41,0.00,,---,0.00,717.00,VWS V14.00,2013-02-02 16:13:00,
2013-02-02 11:14:00,55.8,32.5,30.33,NNW,335,0.0,0.0,41,0.00,,---,0.00,712.00,VWS V14.00,2013-02-02 16:14:00,
2013-02-02 11:15:00,55.8,32.5,30.33,NNW,335,0.0,0.0,41,0.00,,---,0.00,708.00,VWS V14.00,2013-02-02 16:15:00,
2013-02-02 11:16:00,55.9,32.6,30.33,NNW,335,0.0,0.0,41,0.00,,---,0.00,707.00,VWS V14.00,2013-02-02 16:16:00,
2013-02-02 11:17:00,56.1,33.3,30.33,NNW,335,0.0,0.0,42,0.00,,---,0.00,701.00,VWS V14.00,2013-02-02 16:17:00,
2013-02-02 11:18:00,56.3,34.1,30.32,NNW,335,0.0,0.0,43,0.00,,---,0.00,696.00,VWS V14.00,2013-02-02 16:18:00,
2013-02-02 11:19:00,56.5,34.9,30.32,NNW,335,0.0,0.0,44,0.00,,---,0.00,684.00,VWS V14.00,2013-02-02 16:19:00,
2013-02-02 11:20:00,56.4,33.0,30.32,NNW,335,0.0,0.0,41,0.00,,---,0.00,675.00,VWS V14.00,2013-02-02 16:20:00,
2013-02-02 11:21:00,56.3,31.7,30.32,NNW,335,0.0,0.0,39,0.00,,---,0.00,666.00,VWS V14.00,2013-02-02 16:21:00,
2013-02-02 11:22:00,56.2,31.6,30.32,NNW,335,0.0,0.0,39,0.00,,---,0.00,657.00,VWS V14.00,2013-02-02 16:22:00,
2013-02-02 11:23:00,56.2,31.0,30.32,NNW,335,0.0,0.0,38,0.00,,---,0.00,649.00,VWS V14.00,2013-02-02 16:23:00,
2013-02-02 11:24:00,56.2,31.0,30.32,NNW,335,0.0,0.0,38,0.00,,---,0.00,640.00,VWS V14.00,2013-02-02 16:24:00,
2013-02-02 11:25:00,56.3,30.4,30.32,NNW,335,1.0,1.0,37,0.00,,---,0.00,619.00,VWS V14.00,2013-02-02 16:25:00,
2013-02-02 11:26:00,56.3,31.0,30.32,NNW,335,0.0,2.0,38,0.00,,---,0.00,608.00,VWS V14.00,2013-02-02 16:26:00,
2013-02-02 11:27:00,56.4,31.1,30.32,NNW,335,0.0,2.0,38,0.00,,---,0.00,599.00,VWS V14.00,2013-02-02 16:27:00,
2013-02-02 11:28:00,56.4,31.1,30.32,NNW,335,0.0,2.0,38,0.00,,---,0.00,589.00,VWS V14.00,2013-02-02 16:28:00,
2013-02-02 11:29:00,56.5,30.6,30.31,NNW,335,0.0,2.0,37,0.00,,---,0.00,578.00,VWS V14.00,2013-02-02 16:29:00,
2013-02-02 11:30:00,56.6,29.3,30.31,NNW,335,0.0,2.0,35,0.00,,---,0.00,568.00,VWS V14.00,2013-02-02 16:30:00,
2013-02-02 11:31:00,56.8,28.0,30.31,NNW,335,0.0,0.0,33,0.00,,---,0.00,547.00,VWS V14.00,2013-02-02 16:31:00,
2013-02-02 11:32:00,56.9,28.1,30.31,NNW,335,0.0,0.0,33,0.00,,---,0.00,536.00,VWS V14.00,2013-02-02 16:32:00,
2013-02-02 11:33:00,57.0,25.9,30.31,NNW,335,0.0,0.0,30,0.00,,---,0.00,526.00,VWS V14.00,2013-02-02 16:33:00,
2013-02-02 11:34:00,57.2,26.9,30.31,NNW,335,0.0,0.0,31,0.00,,---,0.00,517.00,VWS V14.00,2013-02-02 16:34:00,
2013-02-02 11:35:00,57.4,28.5,30.31,NNW,335,0.0,0.0,33,0.00,,---,0.00,508.00,VWS V14.00,2013-02-02 16:35:00,
2013-02-02 11:36:00,57.5,26.3,30.31,NNW,335,0.0,0.0,30,0.00,,---,0.00,501.00,VWS V14.00,2013-02-02 16:36:00,
2013-02-02 11:37:00,57.6,26.4,30.31,NNW,335,0.0,0.0,30,0.00,,---,0.00,489.00,VWS V14.00,2013-02-02 16:37:00,
2013-02-02 11:38:00,57.6,26.4,30.31,NNW,335,0.0,0.0,30,0.00,,---,0.00,482.00,VWS V14.00,2013-02-02 16:38:00,
2013-02-02 11:39:00,57.6,25.6,30.31,NNW,335,0.0,0.0,29,0.00,,---,0.00,478.00,VWS V14.00,2013-02-02 16:39:00,
2013-02-02 11:40:00,57.6,25.6,30.31,NNW,335,0.0,0.0,29,0.00,,---,0.00,475.00,VWS V14.00,2013-02-02 16:40:00,
2013-02-02 11:41:00,57.6,26.4,30.31,NNW,335,0.0,0.0,30,0.00,,---,0.00,473.00,VWS V14.00,2013-02-02 16:41:00,
2013-02-02 11:42:00,57.6,26.4,30.31,NNW,335,0.0,0.0,30,0.00,,---,0.00,473.00,VWS V14.00,2013-02-02 16:42:00,
2013-02-02 11:43:00,57.6,26.4,30.30,NNW,335,0.0,0.0,30,0.00,,---,0.00,476.00,VWS V14.00,2013-02-02 16:43:00,
2013-02-02 11:44:00,57.6,28.0,30.31,NNW,335,0.0,0.0,32,0.00,,---,0.00,482.00,VWS V14.00,2013-02-02 16:44:00,
2013-02-02 11:45:00,57.6,27.2,30.31,NNW,335,0.0,0.0,31,0.00,,---,0.00,487.00,VWS V14.00,2013-02-02 16:45:00,
2013-02-02 11:46:00,57.6,27.2,30.30,NNW,335,0.0,0.0,31,0.00,,---,0.00,492.00,VWS V14.00,2013-02-02 16:46:00,
2013-02-02 11:47:00,57.6,26.4,30.30,NNW,335,0.0,0.0,30,0.00,,---,0.00,501.00,VWS V14.00,2013-02-02 16:47:00,
2013-02-02 11:48:00,57.5,26.3,30.30,NNW,335,0.0,0.0,30,0.00,,---,0.00,510.00,VWS V14.00,2013-02-02 16:48:00,
2013-02-02 11:49:00,57.5,26.3,30.30,NNW,335,0.0,0.0,30,0.00,,---,0.00,519.00,VWS V14.00,2013-02-02 16:49:00,
2013-02-02 11:50:00,57.3,27.0,30.30,NNW,335,0.0,0.0,31,0.00,,---,0.00,540.00,VWS V14.00,2013-02-02 16:50:00,
2013-02-02 11:51:00,57.3,26.2,30.30,NNW,335,3.0,3.0,30,0.00,,---,0.00,554.00,VWS V14.00,2013-02-02 16:51:00,
2013-02-02 11:52:00,57.2,26.9,30.30,NNW,335,3.0,3.0,31,0.00,,---,0.00,566.00,VWS V14.00,2013-02-02 16:52:00,
2013-02-02 11:53:00,57.1,27.5,30.30,NNW,336,3.0,3.0,32,0.00,,---,0.00,580.00,VWS V14.00,2013-02-02 16:53:00,
2013-02-02 11:54:00,57.1,27.5,30.30,NNW,336,2.0,3.0,32,0.00,,---,0.00,594.00,VWS V14.00,2013-02-02 16:54:00,
2013-02-02 11:55:00,57.1,28.3,30.30,NNW,336,2.0,3.0,33,0.00,,---,0.00,621.00,VWS V14.00,2013-02-02 16:55:00,
2013-02-02 11:56:00,57.1,27.5,30.30,NNW,336,3.0,4.0,32,0.00,,---,0.00,633.00,VWS V14.00,2013-02-02 16:56:00,
2013-02-02 11:57:00,57.0,28.2,30.29,NNW,347,4.0,4.0,33,0.00,,---,0.00,649.00,VWS V14.00,2013-02-02 16:57:00,
2013-02-02 11:58:00,56.9,28.8,30.29,NNW,347,3.0,4.0,34,0.00,,---,0.00,663.00,VWS V14.00,2013-02-02 16:58:00,
2013-02-02 11:59:00,56.8,28.8,30.29,NE,35,4.0,5.0,34,0.00,,---,0.00,675.00,VWS V14.00,2013-02-02 16:59:00,
2013-02-02 12:00:00,56.7,28.7,30.29,NE,52,5.0,5.0,34,0.00,,---,0.00,687.00,VWS V14.00,2013-02-02 17:00:00,
2013-02-02 12:01:00,56.6,30.0,30.29,NE,53,4.0,6.0,36,0.00,,---,0.00,714.00,VWS V14.00,2013-02-02 17:01:00,
2013-02-02 12:02:00,56.5,28.5,30.29,NE,53,3.0,6.0,34,0.00,,---,0.00,726.00,VWS V14.00,2013-02-02 17:02:00,
2013-02-02 12:03:00,56.3,29.7,30.29,NE,53,5.0,6.0,36,0.00,,---,0.00,733.00,VWS V14.00,2013-02-02 17:03:00,
2013-02-02 12:04:00,56.3,30.4,30.29,ENE,77,4.0,6.0,37,0.00,,---,0.00,744.00,VWS V14.00,2013-02-02 17:04:00,
2013-02-02 12:05:00,56.2,29.6,30.29,East,93,5.0,7.0,36,0.00,,---,0.00,752.00,VWS V14.00,2013-02-02 17:05:00,
2013-02-02 12:06:00,56.0,26.6,30.29,East,93,5.0,7.0,32,0.00,,---,0.00,765.00,VWS V14.00,2013-02-02 17:06:00,
2013-02-02 12:07:00,55.9,27.2,30.29,East,91,5.0,7.0,33,0.00,,---,0.00,770.00,VWS V14.00,2013-02-02 17:07:00,
2013-02-02 12:08:00,55.8,27.1,30.29,East,93,6.0,7.0,33,0.00,,---,0.00,770.00,VWS V14.00,2013-02-02 17:08:00,
2013-02-02 12:09:00,55.7,27.8,30.29,East,93,5.0,7.0,34,0.00,,---,0.00,779.00,VWS V14.00,2013-02-02 17:09:00,
2013-02-02 12:10:00,55.7,26.3,30.28,East,97,5.0,7.0,32,0.00,,---,0.00,782.00,VWS V14.00,2013-02-02 17:10:00,
2013-02-02 12:11:00,55.7,27.1,30.29,East,96,6.0,7.0,33,0.00,,---,0.00,786.00,VWS V14.00,2013-02-02 17:11:00,
2013-02-02 12:12:00,55.6,27.0,30.28,East,101,6.0,7.0,33,0.00,,---,0.00,788.00,VWS V14.00,2013-02-02 17:12:00,
2013-02-02 12:13:00,55.6,27.0,30.29,East,98,6.0,7.0,33,0.00,,---,0.00,788.00,VWS V14.00,2013-02-02 17:13:00,
2013-02-02 12:14:00,55.6,27.7,30.29,East,97,5.0,7.0,34,0.00,,---,0.00,788.00,VWS V14.00,2013-02-02 17:14:00,
2013-02-02 12:15:00,55.7,29.2,30.28,East,97,5.0,7.0,36,0.00,,---,0.00,789.00,VWS V14.00,2013-02-02 17:15:00,
2013-02-02 12:16:00,55.7,29.2,30.28,East,97,4.0,7.0,36,0.00,,---,0.00,789.00,VWS V14.00,2013-02-02 17:16:00,
2013-02-02 12:17:00,55.7,29.9,30.28,East,97,3.0,7.0,37,0.00,,---,0.00,788.00,VWS V14.00,2013-02-02 17:17:00,
2013-02-02 12:18:00,55.8,28.6,30.28,East,97,5.0,7.0,35,0.00,,---,0.00,788.00,VWS V14.00,2013-02-02 17:18:00,
2013-02-02 12:19:00,55.9,28.7,30.28,East,96,4.0,7.0,35,0.00,,---,0.00,789.00,VWS V14.00,2013-02-02 17:19:00,
2013-02-02 12:20:00,55.9,28.7,30.28,East,96,4.0,7.0,35,0.00,,---,0.00,789.00,VWS V14.00,2013-02-02 17:20:00,
2013-02-02 12:21:00,56.1,30.2,30.28,East,96,6.0,7.0,37,0.00,,---,0.00,788.00,VWS V14.00,2013-02-02 17:21:00,
2013-02-02 12:22:00,56.2,29.6,30.28,East,96,3.0,7.0,36,0.00,,---,0.00,789.00,VWS V14.00,2013-02-02 17:22:00,
2013-02-02 12:23:00,56.3,29.7,30.28,East,96,5.0,7.0,36,0.00,,---,0.00,789.00,VWS V14.00,2013-02-02 17:23:00,
2013-02-02 12:24:00,56.5,29.9,30.28,East,96,4.0,7.0,36,0.00,,---,0.00,791.00,VWS V14.00,2013-02-02 17:24:00,
2013-02-02 12:25:00,56.7,29.4,30.28,East,94,3.0,7.0,35,0.00,,---,0.00,789.00,VWS V14.00,2013-02-02 17:25:00,
2013-02-02 12:26:00,56.8,31.5,30.28,East,94,4.0,7.0,38,0.00,,---,0.00,789.00,VWS V14.00,2013-02-02 17:26:00,
2013-02-02 12:27:00,56.9,32.8,30.27,East,94,5.0,7.0,40,0.00,,---,0.00,791.00,VWS V14.00,2013-02-02 17:27:00,
2013-02-02 12:28:00,57.0,30.3,30.27,East,94,5.0,7.0,36,0.00,,---,0.00,791.00,VWS V14.00,2013-02-02 17:28:00,
2013-02-02 12:29:00,57.0,28.9,30.27,East,94,4.0,7.0,34,0.00,,---,0.00,793.00,VWS V14.00,2013-02-02 17:29:00,
2013-02-02 12:30:00,57.0,28.9,30.27,East,94,4.0,7.0,34,0.00,,---,0.00,791.00,VWS V14.00,2013-02-02 17:30:00,
2013-02-02 12:31:00,57.0,30.3,30.27,East,94,2.0,4.0,36,0.00,,---,0.00,791.00,VWS V14.00,2013-02-02 17:31:00,
2013-02-02 12:32:00,57.1,31.1,30.27,East,94,2.0,4.0,37,0.00,,---,0.00,793.00,VWS V14.00,2013-02-02 17:32:00,
2013-02-02 12:33:00,57.1,30.4,30.27,East,94,2.0,4.0,36,0.00,,---,0.00,793.00,VWS V14.00,2013-02-02 17:33:00,
2013-02-02 12:34:00,57.2,32.5,30.27,East,94,1.0,4.0,39,0.00,,---,0.00,793.00,VWS V14.00,2013-02-02 17:34:00,
2013-02-02 12:35:00,57.3,30.6,30.27,East,94,0.0,4.0,36,0.00,,---,0.00,793.00,VWS V14.00,2013-02-02 17:35:00,
2013-02-02 12:36:00,57.3,31.3,30.27,East,94,3.0,4.0,37,0.00,,---,0.00,793.00,VWS V14.00,2013-02-02 17:36:00,
2013-02-02 12:37:00,57.5,32.1,30.27,East,94,4.0,5.0,38,0.00,,---,0.00,793.00,VWS V14.00,2013-02-02 17:37:00,
2013-02-02 12:38:00,57.5,34.0,30.26,East,94,4.0,5.0,41,0.00,,---,0.00,791.00,VWS V14.00,2013-02-02 17:38:00,
2013-02-02 12:39:00,57.5,31.5,30.26,East,94,4.0,5.0,37,0.00,,---,0.00,791.00,VWS V14.00,2013-02-02 17:39:00,
2013-02-02 12:40:00,57.5,30.8,30.26,East,94,5.0,5.0,36,0.00,,---,0.00,791.00,VWS V14.00,2013-02-02 17:40:00,
2013-02-02 12:41:00,57.5,30.8,30.26,ENE,65,6.0,6.0,36,0.00,,---,0.00,791.00,VWS V14.00,2013-02-02 17:41:00,
2013-02-02 12:42:00,57.6,30.9,30.26,ENE,62,5.0,6.0,36,0.00,,---,0.00,789.00,VWS V14.00,2013-02-02 17:42:00,
2013-02-02 12:43:00,57.7,30.3,30.26,ENE,62,3.0,6.0,35,0.00,,---,0.00,793.00,VWS V14.00,2013-02-02 17:43:00,
2013-02-02 12:44:00,57.8,31.0,30.26,ENE,62,0.0,6.0,36,0.00,,---,0.00,793.00,VWS V14.00,2013-02-02 17:44:00,
2013-02-02 12:45:00,58.0,33.2,30.26,ENE,62,0.0,6.0,39,0.00,,---,0.00,793.00,VWS V14.00,2013-02-02 17:45:00,
2013-02-02 12:46:00,58.2,34.0,30.26,ENE,62,0.0,6.0,40,0.00,,---,0.00,791.00,VWS V14.00,2013-02-02 17:46:00,
2013-02-02 12:47:00,58.5,33.7,30.26,ENE,62,0.0,6.0,39,0.00,,---,0.00,791.00,VWS V14.00,2013-02-02 17:47:00,
2013-02-02 12:48:00,58.7,31.8,30.26,ENE,62,0.0,6.0,36,0.00,,---,0.00,795.00,VWS V14.00,2013-02-02 17:48:00,
2013-02-02 12:49:00,58.9,32.7,30.26,ENE,62,0.0,6.0,37,0.00,,---,0.00,789.00,VWS V14.00,2013-02-02 17:49:00,
2013-02-02 12:50:00,59.0,32.8,30.26,ENE,63,3.0,6.0,37,0.00,,---,0.00,789.00,VWS V14.00,2013-02-02 17:50:00,
2013-02-02 12:51:00,58.9,30.6,30.26,ENE,63,3.0,6.0,34,0.00,,---,0.00,789.00,VWS V14.00,2013-02-02 17:51:00,
2013-02-02 12:52:00,58.7,31.1,30.26,ENE,63,2.0,6.0,35,0.00,,---,0.00,788.00,VWS V14.00,2013-02-02 17:52:00,
2013-02-02 12:53:00,58.8,31.9,30.26,ENE,63,2.0,6.0,36,0.00,,---,0.00,788.00,VWS V14.00,2013-02-02 17:53:00,
2013-02-02 12:54:00,58.8,31.9,30.26,ENE,62,2.0,6.0,36,0.00,,---,0.00,788.00,VWS V14.00,2013-02-02 17:54:00,
2013-02-02 12:55:00,58.9,32.7,30.26,ENE,62,2.0,6.0,37,0.00,,---,0.00,788.00,VWS V14.00,2013-02-02 17:55:00,
2013-02-02 12:56:00,59.0,34.1,30.25,ENE,62,0.0,6.0,39,0.00,,---,0.00,788.00,VWS V14.00,2013-02-02 17:56:00,
2013-02-02 12:57:00,59.2,34.9,30.25,ENE,62,0.0,6.0,40,0.00,,---,0.00,789.00,VWS V14.00,2013-02-02 17:57:00,
2013-02-02 12:58:00,59.3,33.0,30.25,ENE,62,2.0,6.0,37,0.00,,---,0.00,789.00,VWS V14.00,2013-02-02 17:58:00,
2013-02-02 12:59:00,59.4,33.1,30.25,ENE,62,0.0,6.0,37,0.00,,---,0.00,789.00,VWS V14.00,2013-02-02 17:59:00,
2013-02-02 13:00:00,59.5,33.9,30.25,WNW,290,2.0,6.0,38,0.00,,---,0.00,789.00,VWS V14.00,2013-02-02 18:00:00,
2013-02-02 13:01:00,59.6,34.0,30.25,SW,214,2.0,8.0,38,0.00,,---,0.00,789.00,VWS V14.00,2013-02-02 18:01:00,
2013-02-02 13:02:00,59.6,34.0,30.25,SW,214,0.0,8.0,38,0.00,,---,0.00,789.00,VWS V14.00,2013-02-02 18:02:00,
2013-02-02 13:03:00,59.6,34.6,30.25,West,262,5.0,8.0,39,0.00,,---,0.00,791.00,VWS V14.00,2013-02-02 18:03:00,
2013-02-02 13:04:00,59.6,34.0,30.25,West,270,7.0,8.0,38,0.00,,---,0.00,789.00,VWS V14.00,2013-02-02 18:04:00,
2013-02-02 13:05:00,59.6,32.6,30.25,West,269,6.0,8.0,36,0.00,,---,0.00,788.00,VWS V14.00,2013-02-02 18:05:00,
2013-02-02 13:06:00,59.5,32.5,30.25,West,268,5.0,8.0,36,0.00,,---,0.00,788.00,VWS V14.00,2013-02-02 18:06:00,
2013-02-02 13:07:00,59.4,32.5,30.25,SW,233,7.0,10.0,36,0.00,,---,0.00,788.00,VWS V14.00,2013-02-02 18:07:00,
2013-02-02 13:08:00,59.4,33.8,30.25,SSE,168,8.0,10.0,38,0.00,,---,0.00,788.00,VWS V14.00,2013-02-02 18:08:00,
2013-02-02 13:09:00,59.4,33.1,30.25,SE,138,7.0,10.0,37,0.00,,---,0.00,786.00,VWS V14.00,2013-02-02 18:09:00,
2013-02-02 13:10:00,59.4,33.1,30.25,SE,131,5.0,10.0,37,0.00,,---,0.00,784.00,VWS V14.00,2013-02-02 18:10:00,
2013-02-02 13:11:00,59.5,33.2,30.25,SW,219,6.0,10.0,37,0.00,,---,0.00,782.00,VWS V14.00,2013-02-02 18:11:00,
2013-02-02 13:12:00,59.6,33.3,30.25,SW,223,3.0,10.0,37,0.00,,---,0.00,782.00,VWS V14.00,2013-02-02 18:12:00,
2013-02-02 13:13:00,59.7,33.4,30.25,SSE,153,4.0,10.0,37,0.00,,---,0.00,786.00,VWS V14.00,2013-02-02 18:13:00,
2013-02-02 13:14:00,59.8,32.8,30.25,SE,145,6.0,10.0,36,0.00,,---,0.00,786.00,VWS V14.00,2013-02-02 18:14:00,
2013-02-02 13:15:00,59.8,32.8,30.24,WSW,238,9.0,10.0,36,0.00,,---,0.00,780.00,VWS V14.00,2013-02-02 18:15:00,
2013-02-02 13:16:00,59.9,32.2,30.24,SSW,202,3.0,10.0,35,0.00,,---,0.00,780.00,VWS V14.00,2013-02-02 18:16:00,
2013-02-02 13:17:00,59.9,31.5,30.24,SSW,193,7.0,10.0,34,0.00,,---,0.00,780.00,VWS V14.00,2013-02-02 18:17:00,
2013-02-02 13:18:00,59.9,31.5,30.24,South,185,3.0,10.0,34,0.00,,---,0.00,782.00,VWS V14.00,2013-02-02 18:18:00,
2013-02-02 13:19:00,59.9,30.8,30.24,South,185,0.0,10.0,33,0.00,,---,0.00,780.00,VWS V14.00,2013-02-02 18:19:00,
2013-02-02 13:20:00,59.9,32.2,30.24,South,185,3.0,10.0,35,0.00,,---,0.00,780.00,VWS V14.00,2013-02-02 18:20:00,
2013-02-02 13:21:00,60.0,32.3,30.24,South,185,0.0,10.0,35,0.00,,---,0.00,780.00,VWS V14.00,2013-02-02 18:21:00,
2013-02-02 13:22:00,60.1,32.4,30.24,SSE,163,4.0,10.0,35,0.00,,---,0.00,779.00,VWS V14.00,2013-02-02 18:22:00,
2013-02-02 13:23:00,60.2,31.8,30.24,South,175,1.0,10.0,34,0.00,,---,0.00,775.00,VWS V14.00,2013-02-02 18:23:00,
2013-02-02 13:24:00,60.2,31.8,30.24,South,171,0.0,10.0,34,0.00,,---,0.00,773.00,VWS V14.00,2013-02-02 18:24:00,
2013-02-02 13:25:00,60.3,32.6,30.24,SSE,166,6.0,10.0,35,0.00,,---,0.00,775.00,VWS V14.00,2013-02-02 18:25:00,
2013-02-02 13:26:00,60.3,31.1,30.23,SSE,151,2.0,10.0,33,0.00,,---,0.00,775.00,VWS V14.00,2013-02-02 18:26:00,
2013-02-02 13:27:00,60.2,31.8,30.23,South,171,4.0,10.0,34,0.00,,---,0.00,775.00,VWS V14.00,2013-02-02 18:27:00,
2013-02-02 13:28:00,60.2,31.0,30.23,SSE,167,0.0,10.0,33,0.00,,---,0.00,770.00,VWS V14.00,2013-02-02 18:28:00,
2013-02-02 13:29:00,60.3,31.8,30.23,South,185,1.0,10.0,34,0.00,,---,0.00,770.00,VWS V14.00,2013-02-02 18:29:00,
2013-02-02 13:30:00,60.4,31.2,30.23,SW,234,1.0,10.0,33,0.00,,---,0.00,770.00,VWS V14.00,2013-02-02 18:30:00,
2013-02-02 13:31:00,60.4,30.4,30.23,WSW,255,3.0,4.0,32,0.00,,---,0.00,766.00,VWS V14.00,2013-02-02 18:31:00,
2013-02-02 13:32:00,60.4,31.2,30.23,WSW,255,0.0,4.0,33,0.00,,---,0.00,765.00,VWS V14.00,2013-02-02 18:32:00,
2013-02-02 13:33:00,60.4,32.7,30.23,WSW,255,2.0,4.0,35,0.00,,---,0.00,763.00,VWS V14.00,2013-02-02 18:33:00,
2013-02-02 13:34:00,60.4,31.9,30.23,West,281,7.0,7.0,34,0.00,,---,0.00,761.00,VWS V14.00,2013-02-02 18:34:00,
2013-02-02 13:35:00,60.3,31.1,30.23,West,281,2.0,7.0,33,0.00,,---,0.00,759.00,VWS V14.00,2013-02-02 18:35:00,
2013-02-02 13:36:00,60.3,31.1,30.23,West,281,0.0,7.0,33,0.00,,---,0.00,759.00,VWS V14.00,2013-02-02 18:36:00,
2013-02-02 13:37:00,60.4,31.9,30.23,West,281,0.0,7.0,34,0.00,,---,0.00,759.00,VWS V14.00,2013-02-02 18:37:00,
2013-02-02 13:38:00,60.5,33.4,30.23,West,281,0.0,7.0,36,0.00,,---,0.00,758.00,VWS V14.00,2013-02-02 18:38:00,
2013-02-02 13:39:00,60.6,32.8,30.23,West,281,0.0,7.0,35,0.00,,---,0.00,756.00,VWS V14.00,2013-02-02 18:39:00,
2013-02-02 13:40:00,60.7,32.2,30.23,West,281,3.0,7.0,34,0.00,,---,0.00,756.00,VWS V14.00,2013-02-02 18:40:00,
2013-02-02 13:41:00,60.6,32.1,30.23,West,281,3.0,7.0,34,0.00,,---,0.00,751.00,VWS V14.00,2013-02-02 18:41:00,
2013-02-02 13:42:00,60.5,33.4,30.22,ENE,65,6.0,7.0,36,0.00,,---,0.00,751.00,VWS V14.00,2013-02-02 18:42:00,
2013-02-02 13:43:00,60.5,33.4,30.22,East,80,5.0,7.0,36,0.00,,---,0.00,749.00,VWS V14.00,2013-02-02 18:43:00,
2013-02-02 13:44:00,60.5,32.0,30.22,East,79,1.0,7.0,34,0.00,,---,0.00,749.00,VWS V14.00,2013-02-02 18:44:00,
2013-02-02 13:45:00,60.5,32.0,30.22,East,79,4.0,7.0,34,0.00,,---,0.00,747.00,VWS V14.00,2013-02-02 18:45:00,
2013-02-02 13:46:00,60.5,32.0,30.22,East,79,0.0,7.0,34,0.00,,---,0.00,744.00,VWS V14.00,2013-02-02 18:46:00,
2013-02-02 13:47:00,60.6,33.5,30.22,East,79,0.0,7.0,36,0.00,,---,0.00,744.00,VWS V14.00,2013-02-02 18:47:00,
2013-02-02 13:48:00,60.6,32.8,30.22,East,79,0.0,7.0,35,0.00,,---,0.00,744.00,VWS V14.00,2013-02-02 18:48:00,
2013-02-02 13:49:00,60.7,34.3,30.22,East,79,2.0,7.0,37,0.00,,---,0.00,742.00,VWS V14.00,2013-02-02 18:49:00,
2013-02-02 13:50:00,60.9,32.4,30.22,ENE,78,4.0,7.0,34,0.00,,---,0.00,740.00,VWS V14.00,2013-02-02 18:50:00,
2013-02-02 13:51:00,61.0,32.5,30.22,ENE,77,0.0,7.0,34,0.00,,---,0.00,738.00,VWS V14.00,2013-02-02 18:51:00,
2013-02-02 13:52:00,61.1,33.3,30.22,ENE,77,2.0,7.0,35,0.00,,---,0.00,735.00,VWS V14.00,2013-02-02 18:52:00,
2013-02-02 13:53:00,61.2,33.3,30.22,ENE,77,3.0,7.0,35,0.00,,---,0.00,733.00,VWS V14.00,2013-02-02 18:53:00,
2013-02-02 13:54:00,61.2,32.6,30.22,SE,139,4.0,7.0,34,0.00,,---,0.00,731.00,VWS V14.00,2013-02-02 18:54:00,
2013-02-02 13:55:00,61.2,31.9,30.22,SE,145,3.0,7.0,33,0.00,,---,0.00,729.00,VWS V14.00,2013-02-02 18:55:00,
2013-02-02 13:56:00,61.2,32.6,30.22,South,175,4.0,7.0,34,0.00,,---,0.00,729.00,VWS V14.00,2013-02-02 18:56:00,
2013-02-02 13:57:00,61.2,31.9,30.22,SSE,156,3.0,7.0,33,0.00,,---,0.00,729.00,VWS V14.00,2013-02-02 18:57:00,
2013-02-02 13:58:00,61.3,32.0,30.22,West,270,5.0,7.0,33,0.00,,---,0.00,726.00,VWS V14.00,2013-02-02 18:58:00,
2013-02-02 13:59:00,61.4,34.2,30.22,WSW,252,4.0,7.0,36,0.00,,---,0.00,724.00,VWS V14.00,2013-02-02 18:59:00,
2013-02-02 14:00:00,61.5,33.6,30.22,West,267,7.0,7.0,35,0.00,,---,0.00,722.00,VWS V14.00,2013-02-02 19:00:00,
2013-02-02 14:01:00,61.6,33.7,30.22,West,266,1.0,7.0,35,0.00,,---,0.00,722.00,VWS V14.00,2013-02-02 19:01:00,
2013-02-02 14:02:00,61.7,33.1,30.22,SSE,152,1.0,7.0,34,0.00,,---,0.00,722.00,VWS V14.00,2013-02-02 19:02:00,
2013-02-02 14:03:00,61.8,33.2,30.22,SSE,163,0.0,7.0,34,0.00,,---,0.00,719.00,VWS V14.00,2013-02-02 19:03:00,
2013-02-02 14:04:00,61.9,33.2,30.22,SSE,163,0.0,7.0,34,0.00,,---,0.00,717.00,VWS V14.00,2013-02-02 19:04:00,
2013-02-02 14:05:00,61.9,33.2,30.22,SSE,163,2.0,7.0,34,0.00,,---,0.00,663.00,VWS V14.00,2013-02-02 19:05:00,
2013-02-02 14:06:00,62.0,32.6,30.22,SSE,163,2.0,7.0,33,0.00,,---,0.00,708.00,VWS V14.00,2013-02-02 19:06:00,
2013-02-02 14:07:00,62.1,32.7,30.22,SSW,213,0.0,7.0,33,0.00,,---,0.00,717.00,VWS V14.00,2013-02-02 19:07:00,
2013-02-02 14:08:00,62.1,34.2,30.22,WSW,258,2.0,7.0,35,0.00,,---,0.00,671.00,VWS V14.00,2013-02-02 19:08:00,
2013-02-02 14:09:00,62.2,32.8,30.22,WNW,284,3.0,7.0,33,0.00,,---,0.00,703.00,VWS V14.00,2013-02-02 19:09:00,
2013-02-02 14:10:00,62.3,32.1,30.22,WNW,284,2.0,7.0,32,0.00,,---,0.00,701.00,VWS V14.00,2013-02-02 19:10:00,
2013-02-02 14:11:00,62.4,32.2,30.22,WNW,284,0.0,7.0,32,0.00,,---,0.00,700.00,VWS V14.00,2013-02-02 19:11:00,
2013-02-02 14:12:00,62.5,31.5,30.22,WNW,284,0.0,7.0,31,0.00,,---,0.00,698.00,VWS V14.00,2013-02-02 19:12:00,
2013-02-02 14:13:00,62.6,31.6,30.22,WNW,284,0.0,7.0,31,0.00,,---,0.00,694.00,VWS V14.00,2013-02-02 19:13:00,
2013-02-02 14:14:00,62.7,31.6,30.22,WNW,284,0.0,7.0,31,0.00,,---,0.00,694.00,VWS V14.00,2013-02-02 19:14:00,
2013-02-02 14:15:00,62.8,32.5,30.22,WNW,284,0.0,7.0,32,0.00,,---,0.00,691.00,VWS V14.00,2013-02-02 19:15:00,
2013-02-02 14:16:00,62.9,32.6,30.22,West,278,5.0,7.0,32,0.00,,---,0.00,691.00,VWS V14.00,2013-02-02 19:16:00,
2013-02-02 14:17:00,62.9,31.8,30.22,West,278,3.0,7.0,31,0.00,,---,0.00,689.00,VWS V14.00,2013-02-02 19:17:00,
2013-02-02 14:18:00,62.9,32.6,30.22,West,277,1.0,7.0,32,0.00,,---,0.00,687.00,VWS V14.00,2013-02-02 19:18:00,
2013-02-02 14:19:00,62.9,32.6,30.22,West,277,5.0,7.0,32,0.00,,---,0.00,687.00,VWS V14.00,2013-02-02 19:19:00,
2013-02-02 14:20:00,62.9,31.0,30.22,West,270,6.0,7.0,30,0.00,,---,0.00,686.00,VWS V14.00,2013-02-02 19:20:00,
2013-02-02 14:21:00,62.8,31.7,30.22,West,262,7.0,9.0,31,0.00,,---,0.00,686.00,VWS V14.00,2013-02-02 19:21:00,
2013-02-02 14:22:00,62.6,29.9,30.21,SW,226,5.0,9.0,29,0.00,,---,0.00,679.00,VWS V14.00,2013-02-02 19:22:00,
2013-02-02 14:23:00,62.5,31.5,30.21,WSW,245,3.0,9.0,31,0.00,,---,0.00,680.00,VWS V14.00,2013-02-02 19:23:00,
2013-02-02 14:24:00,62.4,30.6,30.21,West,262,3.0,9.0,30,0.00,,---,0.00,677.00,VWS V14.00,2013-02-02 19:24:00,
2013-02-02 14:25:00,62.3,31.3,30.21,West,262,1.0,9.0,31,0.00,,---,0.00,675.00,VWS V14.00,2013-02-02 19:25:00,
2013-02-02 14:26:00,62.3,32.1,30.21,West,262,0.0,9.0,32,0.00,,---,0.00,673.00,VWS V14.00,2013-02-02 19:26:00,
2013-02-02 14:27:00,62.3,32.9,30.21,ESE,112,4.0,9.0,33,0.00,,---,0.00,670.00,VWS V14.00,2013-02-02 19:27:00,
2013-02-02 14:28:00,62.4,32.2,30.21,SSW,199,1.0,9.0,32,0.00,,---,0.00,668.00,VWS V14.00,2013-02-02 19:28:00,
2013-02-02 14:29:00,62.4,32.2,30.21,SSW,198,4.0,9.0,32,0.00,,---,0.00,664.00,VWS V14.00,2013-02-02 19:29:00,
2013-02-02 14:30:00,62.4,32.2,30.21,WSW,253,3.0,9.0,32,0.00,,---,0.00,663.00,VWS V14.00,2013-02-02 19:30:00,
2013-02-02 14:31:00,62.5,33.0,30.21,West,266,5.0,7.0,33,0.00,,---,0.00,661.00,VWS V14.00,2013-02-02 19:31:00,
2013-02-02 14:32:00,62.4,32.2,30.21,West,263,5.0,7.0,32,0.00,,---,0.00,659.00,VWS V14.00,2013-02-02 19:32:00,
2013-02-02 14:33:00,62.2,32.8,30.21,WSW,255,4.0,7.0,33,0.00,,---,0.00,652.00,VWS V14.00,2013-02-02 19:33:00,
2013-02-02 14:34:00,62.1,31.9,30.21,WSW,255,2.0,7.0,32,0.00,,---,0.00,649.00,VWS V14.00,2013-02-02 19:34:00,
2013-02-02 14:35:00,62.1,31.9,30.21,WSW,254,3.0,7.0,32,0.00,,---,0.00,649.00,VWS V14.00,2013-02-02 19:35:00,
2013-02-02 14:36:00,62.1,33.4,30.21,WSW,254,0.0,7.0,34,0.00,,---,0.00,645.00,VWS V14.00,2013-02-02 19:36:00,
2013-02-02 14:37:00,62.1,34.2,30.20,WSW,254,0.0,7.0,35,0.00,,---,0.00,645.00,VWS V14.00,2013-02-02 19:37:00,
2013-02-02 14:38:00,62.2,34.2,30.21,WSW,254,2.0,7.0,35,0.00,,---,0.00,643.00,VWS V14.00,2013-02-02 19:38:00,
2013-02-02 14:39:00,62.4,32.2,30.21,WSW,254,3.0,7.0,32,0.00,,---,0.00,640.00,VWS V14.00,2013-02-02 19:39:00,
2013-02-02 14:40:00,62.5,32.3,30.20,West,272,5.0,7.0,32,0.00,,---,0.00,640.00,VWS V14.00,2013-02-02 19:40:00,
2013-02-02 14:41:00,62.4,30.6,30.20,West,272,2.0,7.0,30,0.00,,---,0.00,638.00,VWS V14.00,2013-02-02 19:41:00,
2013-02-02 14:42:00,62.5,30.7,30.20,West,272,3.0,7.0,30,0.00,,---,0.00,635.00,VWS V14.00,2013-02-02 19:42:00,
2013-02-02 14:43:00,62.5,31.5,30.20,West,268,3.0,7.0,31,0.00,,---,0.00,633.00,VWS V14.00,2013-02-02 19:43:00,
2013-02-02 14:44:00,62.4,31.4,30.20,West,268,1.0,7.0,31,0.00,,---,0.00,631.00,VWS V14.00,2013-02-02 19:44:00,
2013-02-02 14:45:00,62.5,33.0,30.20,West,280,5.0,7.0,33,0.00,,---,0.00,628.00,VWS V14.00,2013-02-02 19:45:00,
2013-02-02 14:46:00,62.5,31.5,30.20,West,281,0.0,7.0,31,0.00,,---,0.00,624.00,VWS V14.00,2013-02-02 19:46:00,
2013-02-02 14:47:00,62.5,31.5,30.20,WNW,285,3.0,7.0,31,0.00,,---,0.00,621.00,VWS V14.00,2013-02-02 19:47:00,
2013-02-02 14:48:00,62.5,31.5,30.20,WNW,285,0.0,7.0,31,0.00,,---,0.00,617.00,VWS V14.00,2013-02-02 19:48:00,
2013-02-02 14:49:00,62.6,31.6,30.20,WNW,285,0.0,7.0,31,0.00,,---,0.00,615.00,VWS V14.00,2013-02-02 19:49:00,
2013-02-02 14:50:00,62.7,30.8,30.19,WNW,285,0.0,7.0,30,0.00,,---,0.00,613.00,VWS V14.00,2013-02-02 19:50:00,
2013-02-02 14:51:00,62.7,30.0,30.19,WNW,285,0.0,7.0,29,0.00,,---,0.00,608.00,VWS V14.00,2013-02-02 19:51:00,
2013-02-02 14:52:00,62.6,30.8,30.19,SE,129,5.0,7.0,30,0.00,,---,0.00,606.00,VWS V14.00,2013-02-02 19:52:00,
2013-02-02 14:53:00,62.5,31.5,30.19,SE,129,1.0,7.0,31,0.00,,---,0.00,605.00,VWS V14.00,2013-02-02 19:53:00,
2013-02-02 14:54:00,62.5,33.0,30.19,SSW,202,0.0,7.0,33,0.00,,---,0.00,603.00,VWS V14.00,2013-02-02 19:54:00,
2013-02-02 14:55:00,62.5,34.5,30.19,ESE,115,2.0,7.0,35,0.00,,---,0.00,601.00,VWS V14.00,2013-02-02 19:55:00,
2013-02-02 14:56:00,62.5,33.0,30.19,ESE,115,1.0,7.0,33,0.00,,---,0.00,599.00,VWS V14.00,2013-02-02 19:56:00,
2013-02-02 14:57:00,62.5,32.3,30.19,ESE,114,2.0,7.0,32,0.00,,---,0.00,596.00,VWS V14.00,2013-02-02 19:57:00,
2013-02-02 14:58:00,62.5,32.3,30.19,ESE,106,4.0,7.0,32,0.00,,---,0.00,592.00,VWS V14.00,2013-02-02 19:58:00,
2013-02-02 14:59:00,62.5,32.3,30.19,East,97,1.0,7.0,32,0.00,,---,0.00,589.00,VWS V14.00,2013-02-02 19:59:00,
2013-02-02 15:00:00,62.5,33.8,30.19,East,97,0.0,7.0,34,0.00,,---,0.00,587.00,VWS V14.00,2013-02-02 20:00:00,
2013-02-02 15:01:00,62.5,33.8,30.18,East,97,0.0,0.0,34,0.00,,---,0.00,585.00,VWS V14.00,2013-02-02 20:01:00,
2013-02-02 15:02:00,62.5,34.5,30.19,East,97,0.0,2.0,35,0.00,,---,0.00,584.00,VWS V14.00,2013-02-02 20:02:00,
2013-02-02 15:03:00,62.6,34.6,30.18,East,97,0.0,2.0,35,0.00,,---,0.00,578.00,VWS V14.00,2013-02-02 20:03:00,
2013-02-02 15:04:00,62.7,34.0,30.18,East,97,3.0,4.0,34,0.00,,---,0.00,577.00,VWS V14.00,2013-02-02 20:04:00,
2013-02-02 15:05:00,62.8,33.3,30.18,East,97,3.0,4.0,33,0.00,,---,0.00,573.00,VWS V14.00,2013-02-02 20:05:00,
2013-02-02 15:06:00,62.9,34.1,30.18,East,97,2.0,4.0,34,0.00,,---,0.00,568.00,VWS V14.00,2013-02-02 20:06:00,
2013-02-02 15:07:00,63.1,33.6,30.18,East,97,1.0,4.0,33,0.00,,---,0.00,566.00,VWS V14.00,2013-02-02 20:07:00,
2013-02-02 15:08:00,63.2,33.6,30.18,East,97,1.0,4.0,33,0.00,,---,0.00,564.00,VWS V14.00,2013-02-02 20:08:00,
2013-02-02 15:09:00,63.4,34.6,30.18,East,97,0.0,4.0,34,0.00,,---,0.00,561.00,VWS V14.00,2013-02-02 20:09:00,
2013-02-02 15:10:00,63.7,33.3,30.18,East,97,1.0,4.0,32,0.00,,---,0.00,557.00,VWS V14.00,2013-02-02 20:10:00,
2013-02-02 15:11:00,63.9,34.3,30.18,East,97,1.0,4.0,33,0.00,,---,0.00,555.00,VWS V14.00,2013-02-02 20:11:00,
2013-02-02 15:12:00,64.1,34.4,30.18,East,97,0.0,4.0,33,0.00,,---,0.00,552.00,VWS V14.00,2013-02-02 20:12:00,
2013-02-02 15:13:00,64.3,34.6,30.18,East,97,0.0,4.0,33,0.00,,---,0.00,550.00,VWS V14.00,2013-02-02 20:13:00,
2013-02-02 15:14:00,64.4,33.9,30.18,East,97,0.0,4.0,32,0.00,,---,0.00,547.00,VWS V14.00,2013-02-02 20:14:00,
2013-02-02 15:15:00,64.5,32.4,30.18,East,97,1.0,4.0,30,0.00,,---,0.00,543.00,VWS V14.00,2013-02-02 20:15:00,
2013-02-02 15:16:00,64.6,34.1,30.18,East,97,2.0,4.0,32,0.00,,---,0.00,540.00,VWS V14.00,2013-02-02 20:16:00,
2013-02-02 15:17:00,64.6,33.3,30.18,East,94,4.0,4.0,31,0.00,,---,0.00,538.00,VWS V14.00,2013-02-02 20:17:00,
2013-02-02 15:18:00,64.7,34.2,30.18,East,94,3.0,4.0,32,0.00,,---,0.00,534.00,VWS V14.00,2013-02-02 20:18:00,
2013-02-02 15:19:00,64.6,34.9,30.18,East,94,3.0,4.0,33,0.00,,---,0.00,533.00,VWS V14.00,2013-02-02 20:19:00,
2013-02-02 15:20:00,64.5,33.2,30.18,East,94,1.0,4.0,31,0.00,,---,0.00,529.00,VWS V14.00,2013-02-02 20:20:00,
2013-02-02 15:21:00,64.3,33.8,30.18,East,94,4.0,5.0,32,0.00,,---,0.00,527.00,VWS V14.00,2013-02-02 20:21:00,
2013-02-02 15:22:00,64.1,32.1,30.18,East,94,3.0,5.0,30,0.00,,---,0.00,524.00,VWS V14.00,2013-02-02 20:22:00,
2013-02-02 15:23:00,63.9,34.3,30.18,East,94,4.0,5.0,33,0.00,,---,0.00,520.00,VWS V14.00,2013-02-02 20:23:00,
2013-02-02 15:24:00,63.7,34.1,30.18,East,94,2.0,5.0,33,0.00,,---,0.00,519.00,VWS V14.00,2013-02-02 20:24:00,
2013-02-02 15:25:00,63.5,32.3,30.18,East,94,4.0,5.0,31,0.00,,---,0.00,512.00,VWS V14.00,2013-02-02 20:25:00,
2013-02-02 15:26:00,63.3,33.0,30.18,East,94,3.0,5.0,32,0.00,,---,0.00,508.00,VWS V14.00,2013-02-02 20:26:00,
2013-02-02 15:27:00,63.2,32.9,30.18,East,94,0.0,5.0,32,0.00,,---,0.00,504.00,VWS V14.00,2013-02-02 20:27:00,
2013-02-02 15:28:00,63.2,35.8,30.18,East,94,2.0,5.0,36,0.00,,---,0.00,504.00,VWS V14.00,2013-02-02 20:28:00,
2013-02-02 15:29:00,63.2,34.4,30.18,East,94,0.0,5.0,34,0.00,,---,0.00,501.00,VWS V14.00,2013-02-02 20:29:00,
2013-02-02 15:30:00,63.2,35.1,30.18,East,94,0.0,5.0,35,0.00,,---,0.00,499.00,VWS V14.00,2013-02-02 20:30:00,
2013-02-02 15:31:00,63.4,34.6,30.18,East,94,0.0,0.0,34,0.00,,---,0.00,494.00,VWS V14.00,2013-02-02 20:31:00,
2013-02-02 15:32:00,63.5,35.4,30.18,East,94,0.0,0.0,35,0.00,,---,0.00,490.00,VWS V14.00,2013-02-02 20:32:00,
2013-02-02 15:33:00,63.7,33.3,30.18,East,94,0.0,0.0,32,0.00,,---,0.00,489.00,VWS V14.00,2013-02-02 20:33:00,
2013-02-02 15:34:00,63.8,32.6,30.18,East,94,0.0,0.0,31,0.00,,---,0.00,483.00,VWS V14.00,2013-02-02 20:34:00,
2013-02-02 15:35:00,63.9,34.3,30.17,East,94,1.0,2.0,33,0.00,,---,0.00,482.00,VWS V14.00,2013-02-02 20:35:00,
2013-02-02 15:36:00,64.1,33.7,30.18,East,94,0.0,2.0,32,0.00,,---,0.00,478.00,VWS V14.00,2013-02-02 20:36:00,
2013-02-02 15:37:00,64.3,33.0,30.17,East,94,1.0,2.0,31,0.00,,---,0.00,471.00,VWS V14.00,2013-02-02 20:37:00,
2013-02-02 15:38:00,64.6,32.5,30.17,East,94,0.0,2.0,30,0.00,,---,0.00,469.00,VWS V14.00,2013-02-02 20:38:00,
2013-02-02 15:39:00,64.8,31.8,30.17,East,94,0.0,2.0,29,0.00,,---,0.00,468.00,VWS V14.00,2013-02-02 20:39:00,
2013-02-02 15:40:00,64.9,32.8,30.17,East,94,0.0,2.0,30,0.00,,---,0.00,462.00,VWS V14.00,2013-02-02 20:40:00,
2013-02-02 15:41:00,65.0,33.7,30.18,East,94,0.0,2.0,31,0.00,,---,0.00,459.00,VWS V14.00,2013-02-02 20:41:00,
2013-02-02 15:42:00,65.0,34.5,30.18,East,94,4.0,4.0,32,0.00,,---,0.00,459.00,VWS V14.00,2013-02-02 20:42:00,
2013-02-02 15:43:00,64.9,32.8,30.18,East,94,3.0,4.0,30,0.00,,---,0.00,454.00,VWS V14.00,2013-02-02 20:43:00,
2013-02-02 15:44:00,64.7,32.6,30.18,East,94,2.0,4.0,30,0.00,,---,0.00,450.00,VWS V14.00,2013-02-02 20:44:00,
2013-02-02 15:45:00,64.5,33.2,30.18,East,94,3.0,4.0,31,0.00,,---,0.00,446.00,VWS V14.00,2013-02-02 20:45:00,
2013-02-02 15:46:00,64.4,33.1,30.18,East,94,2.0,4.0,31,0.00,,---,0.00,443.00,VWS V14.00,2013-02-02 20:46:00,
2013-02-02 15:47:00,64.4,35.5,30.18,East,94,2.0,4.0,34,0.00,,---,0.00,439.00,VWS V14.00,2013-02-02 20:47:00,
2013-02-02 15:48:00,64.5,31.6,30.18,NNE,27,5.0,6.0,29,0.00,,---,0.00,438.00,VWS V14.00,2013-02-02 20:48:00,
2013-02-02 15:49:00,64.5,32.4,30.18,NW,324,6.0,9.0,30,0.00,,---,0.00,434.00,VWS V14.00,2013-02-02 20:49:00,
2013-02-02 15:50:00,64.6,34.9,30.18,SW,233,6.0,11.0,33,0.00,,---,0.00,429.00,VWS V14.00,2013-02-02 20:50:00,
2013-02-02 15:51:00,64.5,34.0,30.18,SW,218,4.0,11.0,32,0.00,,---,0.00,427.00,VWS V14.00,2013-02-02 20:51:00,
2013-02-02 15:52:00,64.5,33.2,30.18,SW,217,2.0,11.0,31,0.00,,---,0.00,424.00,VWS V14.00,2013-02-02 20:52:00,
2013-02-02 15:53:00,64.5,32.4,30.18,SW,217,0.0,11.0,30,0.00,,---,0.00,420.00,VWS V14.00,2013-02-02 20:53:00,
2013-02-02 15:54:00,64.5,31.6,30.17,SW,217,0.0,11.0,29,0.00,,---,0.00,417.00,VWS V14.00,2013-02-02 20:54:00,
2013-02-02 15:55:00,64.6,32.5,30.18,SW,217,0.0,11.0,30,0.00,,---,0.00,410.00,VWS V14.00,2013-02-02 20:55:00,
2013-02-02 15:56:00,64.7,32.6,30.18,SW,217,0.0,11.0,30,0.00,,---,0.00,406.00,VWS V14.00,2013-02-02 20:56:00,
2013-02-02 15:57:00,64.8,31.8,30.18,SW,217,0.0,11.0,29,0.00,,---,0.00,403.00,VWS V14.00,2013-02-02 20:57:00,
2013-02-02 15:58:00,64.8,33.5,30.18,SW,217,0.0,11.0,31,0.00,,---,0.00,399.00,VWS V14.00,2013-02-02 20:58:00,
2013-02-02 15:59:00,64.8,32.7,30.18,SW,217,2.0,11.0,30,0.00,,---,0.00,397.00,VWS V14.00,2013-02-02 20:59:00,
2013-02-02 16:00:00,64.9,31.9,30.18,SW,217,0.0,11.0,29,0.00,,---,0.00,396.00,VWS V14.00,2013-02-02 21:00:00,
2013-02-02 16:01:00,65.0,32.0,30.18,SW,217,0.0,0.0,29,0.00,,---,0.00,388.00,VWS V14.00,2013-02-02 21:01:00,
2013-02-02 16:02:00,65.0,32.0,30.18,SW,216,4.0,5.0,29,0.00,,---,0.00,385.00,VWS V14.00,2013-02-02 21:02:00,
2013-02-02 16:03:00,65.0,32.0,30.18,SW,216,3.0,5.0,29,0.00,,---,0.00,383.00,VWS V14.00,2013-02-02 21:03:00,
2013-02-02 16:04:00,65.0,31.1,30.18,SW,216,3.0,5.0,28,0.00,,---,0.00,380.00,VWS V14.00,2013-02-02 21:04:00,
2013-02-02 16:05:00,64.9,31.0,30.18,SW,216,0.0,5.0,28,0.00,,---,0.00,378.00,VWS V14.00,2013-02-02 21:05:00,
2013-02-02 16:06:00,64.8,31.0,30.17,SW,216,0.0,5.0,28,0.00,,---,0.00,371.00,VWS V14.00,2013-02-02 21:06:00,
2013-02-02 16:07:00,64.7,30.9,30.17,SW,216,0.0,5.0,28,0.00,,---,0.00,367.00,VWS V14.00,2013-02-02 21:07:00,
2013-02-02 16:08:00,64.7,31.7,30.17,SW,216,0.0,5.0,29,0.00,,---,0.00,364.00,VWS V14.00,2013-02-02 21:08:00,
2013-02-02 16:09:00,64.7,31.7,30.17,SW,216,2.0,5.0,29,0.00,,---,0.00,360.00,VWS V14.00,2013-02-02 21:09:00,
2013-02-02 16:10:00,64.7,30.9,30.18,SW,216,0.0,5.0,28,0.00,,---,0.00,359.00,VWS V14.00,2013-02-02 21:10:00,
2013-02-02 16:11:00,64.7,30.9,30.17,SW,216,0.0,5.0,28,0.00,,---,0.00,355.00,VWS V14.00,2013-02-02 21:11:00,
2013-02-02 16:12:00,64.8,31.0,30.17,SW,216,0.0,5.0,28,0.00,,---,0.00,352.00,VWS V14.00,2013-02-02 21:12:00,
2013-02-02 16:13:00,64.9,32.8,30.17,SW,216,0.0,5.0,30,0.00,,---,0.00,346.00,VWS V14.00,2013-02-02 21:13:00,
2013-02-02 16:14:00,65.1,32.9,30.17,SW,216,0.0,5.0,30,0.00,,---,0.00,343.00,VWS V14.00,2013-02-02 21:14:00,
2013-02-02 16:15:00,65.1,32.1,30.18,SW,216,2.0,5.0,29,0.00,,---,0.00,341.00,VWS V14.00,2013-02-02 21:15:00,
2013-02-02 16:16:00,65.1,32.1,30.17,SW,226,3.0,5.0,29,0.00,,---,0.00,338.00,VWS V14.00,2013-02-02 21:16:00,
2013-02-02 16:17:00,65.0,33.7,30.17,WSW,256,0.0,5.0,31,0.00,,---,0.00,334.00,VWS V14.00,2013-02-02 21:17:00,
2013-02-02 16:18:00,65.0,33.7,30.17,WSW,257,2.0,5.0,31,0.00,,---,0.00,327.00,VWS V14.00,2013-02-02 21:18:00,
2013-02-02 16:19:00,65.0,31.1,30.17,West,267,6.0,6.0,28,0.00,,---,0.00,323.00,VWS V14.00,2013-02-02 21:19:00,
2013-02-02 16:20:00,64.9,30.1,30.17,West,275,7.0,8.0,27,0.00,,---,0.00,322.00,VWS V14.00,2013-02-02 21:20:00,
2013-02-02 16:21:00,64.8,31.8,30.17,West,274,1.0,8.0,29,0.00,,---,0.00,316.00,VWS V14.00,2013-02-02 21:21:00,
2013-02-02 16:22:00,64.7,30.9,30.17,West,274,6.0,8.0,28,0.00,,---,0.00,313.00,VWS V14.00,2013-02-02 21:22:00,
2013-02-02 16:23:00,64.6,31.6,30.17,NW,310,5.0,8.0,29,0.00,,---,0.00,309.00,VWS V14.00,2013-02-02 21:23:00,
2013-02-02 16:24:00,64.6,30.8,30.17,WNW,303,3.0,8.0,28,0.00,,---,0.00,302.00,VWS V14.00,2013-02-02 21:24:00,
2013-02-02 16:25:00,64.5,30.7,30.17,WNW,303,1.0,8.0,28,0.00,,---,0.00,299.00,VWS V14.00,2013-02-02 21:25:00,
2013-02-02 16:26:00,64.5,29.8,30.17,WNW,303,2.0,8.0,27,0.00,,---,0.00,295.00,VWS V14.00,2013-02-02 21:26:00,
2013-02-02 16:27:00,64.5,29.8,30.17,WNW,303,2.0,8.0,27,0.00,,---,0.00,292.00,VWS V14.00,2013-02-02 21:27:00,
2013-02-02 16:28:00,64.6,30.8,30.17,WNW,303,0.0,8.0,28,0.00,,---,0.00,288.00,VWS V14.00,2013-02-02 21:28:00,
2013-02-02 16:29:00,64.6,34.9,30.17,WNW,303,0.0,8.0,33,0.00,,---,0.00,283.00,VWS V14.00,2013-02-02 21:29:00,
2013-02-02 16:30:00,64.7,34.2,30.17,WNW,303,2.0,8.0,32,0.00,,---,0.00,274.00,VWS V14.00,2013-02-02 21:30:00,
2013-02-02 16:31:00,64.7,33.4,30.17,NW,314,2.0,5.0,31,0.00,,---,0.00,271.00,VWS V14.00,2013-02-02 21:31:00,
2013-02-02 16:32:00,64.7,31.7,30.17,NW,312,4.0,5.0,29,0.00,,---,0.00,269.00,VWS V14.00,2013-02-02 21:32:00,
2013-02-02 16:33:00,64.7,30.0,30.17,NW,312,4.0,5.0,27,0.00,,---,0.00,265.00,VWS V14.00,2013-02-02 21:33:00,
2013-02-02 16:34:00,64.7,30.9,30.17,NW,311,2.0,5.0,28,0.00,,---,0.00,264.00,VWS V14.00,2013-02-02 21:34:00,
2013-02-02 16:35:00,64.7,30.0,30.17,NW,311,2.0,5.0,27,0.00,,---,0.00,260.00,VWS V14.00,2013-02-02 21:35:00,
2013-02-02 16:36:00,64.7,30.9,30.17,NW,311,3.0,5.0,28,0.00,,---,0.00,251.00,VWS V14.00,2013-02-02 21:36:00,
2013-02-02 16:37:00,64.6,29.9,30.17,NW,311,5.0,5.0,27,0.00,,---,0.00,248.00,VWS V14.00,2013-02-02 21:37:00,
2013-02-02 16:38:00,64.6,29.9,30.17,NW,311,4.0,5.0,27,0.00,,---,0.00,246.00,VWS V14.00,2013-02-02 21:38:00,
2013-02-02 16:39:00,64.5,28.9,30.17,NW,310,2.0,5.0,26,0.00,,---,0.00,243.00,VWS V14.00,2013-02-02 21:39:00,
2013-02-02 16:40:00,64.5,31.6,30.17,NW,310,0.0,5.0,29,0.00,,---,0.00,237.00,VWS V14.00,2013-02-02 21:40:00,
2013-02-02 16:41:00,64.6,29.0,30.17,NW,310,0.0,5.0,26,0.00,,---,0.00,234.00,VWS V14.00,2013-02-02 21:41:00,
2013-02-02 16:42:00,64.7,30.0,30.17,NW,310,0.0,5.0,27,0.00,,---,0.00,225.00,VWS V14.00,2013-02-02 21:42:00,
2013-02-02 16:43:00,64.8,30.1,30.17,NW,310,0.0,5.0,27,0.00,,---,0.00,223.00,VWS V14.00,2013-02-02 21:43:00,
2013-02-02 16:44:00,64.9,31.0,30.17,NW,310,0.0,5.0,28,0.00,,---,0.00,220.00,VWS V14.00,2013-02-02 21:44:00,
2013-02-02 16:45:00,65.1,30.3,30.17,NW,310,0.0,5.0,27,0.00,,---,0.00,216.00,VWS V14.00,2013-02-02 21:45:00,
2013-02-02 16:46:00,65.3,31.4,30.17,NW,310,3.0,5.0,28,0.00,,---,0.00,213.00,VWS V14.00,2013-02-02 21:46:00,
2013-02-02 16:47:00,65.4,30.6,30.17,NW,310,2.0,5.0,27,0.00,,---,0.00,209.00,VWS V14.00,2013-02-02 21:47:00,
2013-02-02 16:48:00,65.4,29.6,30.17,NW,310,3.0,5.0,26,0.00,,---,0.00,202.00,VWS V14.00,2013-02-02 21:48:00,
2013-02-02 16:49:00,65.4,31.5,30.17,NW,311,4.0,5.0,28,0.00,,---,0.00,199.00,VWS V14.00,2013-02-02 21:49:00,
2013-02-02 16:50:00,65.4,29.6,30.17,NW,310,3.0,5.0,26,0.00,,---,0.00,195.00,VWS V14.00,2013-02-02 21:50:00,
2013-02-02 16:51:00,65.4,30.6,30.17,NW,311,5.0,5.0,27,0.00,,---,0.00,190.00,VWS V14.00,2013-02-02 21:51:00,
2013-02-02 16:52:00,65.4,31.5,30.17,NW,310,2.0,5.0,28,0.00,,---,0.00,186.00,VWS V14.00,2013-02-02 21:52:00,
2013-02-02 16:53:00,65.4,31.5,30.17,NW,310,2.0,5.0,28,0.00,,---,0.00,179.00,VWS V14.00,2013-02-02 21:53:00,
2013-02-02 16:54:00,65.4,30.6,30.17,NW,310,4.0,5.0,27,0.00,,---,0.00,176.00,VWS V14.00,2013-02-02 21:54:00,
2013-02-02 16:55:00,65.3,31.4,30.17,NW,308,2.0,5.0,28,0.00,,---,0.00,172.00,VWS V14.00,2013-02-02 21:55:00,
2013-02-02 16:56:00,65.3,31.4,30.17,NW,308,3.0,5.0,28,0.00,,---,0.00,169.00,VWS V14.00,2013-02-02 21:56:00,
2013-02-02 16:57:00,65.2,29.5,30.17,WNW,295,3.0,5.0,26,0.00,,---,0.00,165.00,VWS V14.00,2013-02-02 21:57:00,
2013-02-02 16:58:00,65.2,29.5,30.17,WNW,288,4.0,5.0,26,0.00,,---,0.00,162.00,VWS V14.00,2013-02-02 21:58:00,
2013-02-02 16:59:00,65.0,29.3,30.17,WNW,288,3.0,5.0,26,0.00,,---,0.00,155.00,VWS V14.00,2013-02-02 21:59:00,
2013-02-02 17:00:00,64.9,29.2,30.17,WNW,288,3.0,5.0,26,0.00,,---,0.00,151.00,VWS V14.00,2013-02-02 22:00:00,
2013-02-02 17:01:00,64.9,31.0,30.17,WNW,301,4.0,7.0,28,0.00,,---,0.00,151.00,VWS V14.00,2013-02-02 22:01:00,
2013-02-02 17:02:00,64.8,31.0,30.17,NW,306,4.0,7.0,28,0.00,,---,0.00,144.00,VWS V14.00,2013-02-02 22:02:00,
2013-02-02 17:03:00,64.7,30.9,30.17,NW,305,5.0,7.0,28,0.00,,---,0.00,141.00,VWS V14.00,2013-02-02 22:03:00,
2013-02-02 17:04:00,64.6,30.8,30.17,NW,304,3.0,7.0,28,0.00,,---,0.00,139.00,VWS V14.00,2013-02-02 22:04:00,
2013-02-02 17:05:00,64.6,30.8,30.17,WNW,303,3.0,7.0,28,0.00,,---,0.00,132.00,VWS V14.00,2013-02-02 22:05:00,
2013-02-02 17:06:00,64.5,30.7,30.17,WNW,295,4.0,7.0,28,0.00,,---,0.00,128.00,VWS V14.00,2013-02-02 22:06:00,
2013-02-02 17:07:00,64.4,29.7,30.17,WNW,295,5.0,7.0,27,0.00,,---,0.00,125.00,VWS V14.00,2013-02-02 22:07:00,
2013-02-02 17:08:00,64.3,28.7,30.17,WNW,291,5.0,7.0,26,0.00,,---,0.00,121.00,VWS V14.00,2013-02-02 22:08:00,
2013-02-02 17:09:00,64.2,29.5,30.17,WNW,291,3.0,7.0,27,0.00,,---,0.00,120.00,VWS V14.00,2013-02-02 22:09:00,
2013-02-02 17:10:00,64.2,28.6,30.17,WNW,290,3.0,7.0,26,0.00,,---,0.00,116.00,VWS V14.00,2013-02-02 22:10:00,
2013-02-02 17:11:00,64.1,29.5,30.17,WNW,290,3.0,7.0,27,0.00,,---,0.00,109.00,VWS V14.00,2013-02-02 22:11:00,
2013-02-02 17:12:00,64.1,29.5,30.17,WNW,290,1.0,7.0,27,0.00,,---,0.00,104.00,VWS V14.00,2013-02-02 22:12:00,
2013-02-02 17:13:00,64.1,29.5,30.17,WNW,290,1.0,7.0,27,0.00,,---,0.00,102.00,VWS V14.00,2013-02-02 22:13:00,
2013-02-02 17:14:00,64.0,29.4,30.17,WNW,290,0.0,7.0,27,0.00,,---,0.00,98.00,VWS V14.00,2013-02-02 22:14:00,
2013-02-02 17:15:00,64.0,30.3,30.17,WNW,290,1.0,7.0,28,0.00,,---,0.00,95.00,VWS V14.00,2013-02-02 22:15:00,
2013-02-02 17:16:00,64.0,30.3,30.17,WNW,290,2.0,7.0,28,0.00,,---,0.00,93.00,VWS V14.00,2013-02-02 22:16:00,
2013-02-02 17:17:00,64.0,31.1,30.17,WNW,290,5.0,7.0,29,0.00,,---,0.00,90.00,VWS V14.00,2013-02-02 22:17:00,
2013-02-02 17:18:00,64.0,29.4,30.17,WNW,290,3.0,7.0,27,0.00,,---,0.00,86.00,VWS V14.00,2013-02-02 22:18:00,
2013-02-02 17:19:00,64.0,30.3,30.17,WNW,291,5.0,7.0,28,0.00,,---,0.00,83.00,VWS V14.00,2013-02-02 22:19:00,
2013-02-02 17:20:00,64.0,29.4,30.17,WNW,291,2.0,7.0,27,0.00,,---,0.00,79.00,VWS V14.00,2013-02-02 22:20:00,
2013-02-02 17:21:00,64.0,30.3,30.17,WNW,291,3.0,7.0,28,0.00,,---,0.00,76.00,VWS V14.00,2013-02-02 22:21:00,
2013-02-02 17:22:00,64.0,30.3,30.17,WNW,291,3.0,7.0,28,0.00,,---,0.00,72.00,VWS V14.00,2013-02-02 22:22:00,
2013-02-02 17:23:00,64.0,30.3,30.17,WNW,291,2.0,7.0,28,0.00,,---,0.00,67.00,VWS V14.00,2013-02-02 22:23:00,
2013-02-02 17:24:00,63.9,30.2,30.17,WNW,291,3.0,7.0,28,0.00,,---,0.00,63.00,VWS V14.00,2013-02-02 22:24:00,
2013-02-02 17:25:00,63.9,30.2,30.17,WNW,291,3.0,7.0,28,0.00,,---,0.00,62.00,VWS V14.00,2013-02-02 22:25:00,
2013-02-02 17:26:00,63.8,30.1,30.17,WNW,291,3.0,7.0,28,0.00,,---,0.00,58.00,VWS V14.00,2013-02-02 22:26:00,
2013-02-02 17:27:00,63.8,31.8,30.17,WNW,291,3.0,7.0,30,0.00,,---,0.00,56.00,VWS V14.00,2013-02-02 22:27:00,
2013-02-02 17:28:00,63.8,32.6,30.17,WNW,291,2.0,7.0,31,0.00,,---,0.00,51.00,VWS V14.00,2013-02-02 22:28:00,
2013-02-02 17:29:00,63.7,30.9,30.17,WNW,291,2.0,7.0,29,0.00,,---,0.00,49.00,VWS V14.00,2013-02-02 22:29:00,
2013-02-02 17:30:00,63.7,30.9,30.17,WNW,291,2.0,7.0,29,0.00,,---,0.00,47.00,VWS V14.00,2013-02-02 22:30:00,
2013-02-02 17:31:00,63.6,30.8,30.17,WNW,289,3.0,3.0,29,0.00,,---,0.00,44.00,VWS V14.00,2013-02-02 22:31:00,
2013-02-02 17:32:00,63.6,30.8,30.17,WNW,289,4.0,5.0,29,0.00,,---,0.00,42.00,VWS V14.00,2013-02-02 22:32:00,
2013-02-02 17:33:00,63.5,32.3,30.17,WNW,289,3.0,5.0,31,0.00,,---,0.00,39.00,VWS V14.00,2013-02-02 22:33:00,
2013-02-02 17:34:00,63.4,30.6,30.17,WNW,289,1.0,5.0,29,0.00,,---,0.00,35.00,VWS V14.00,2013-02-02 22:34:00,
2013-02-02 17:35:00,63.4,32.3,30.16,WNW,289,2.0,5.0,31,0.00,,---,0.00,25.00,VWS V14.00,2013-02-02 22:35:00,
2013-02-02 17:36:00,63.3,31.4,30.17,WNW,289,2.0,5.0,30,0.00,,---,0.00,19.00,VWS V14.00,2013-02-02 22:36:00,
2013-02-02 17:37:00,63.2,30.4,30.16,WNW,289,2.0,5.0,29,0.00,,---,0.00,16.00,VWS V14.00,2013-02-02 22:37:00,
2013-02-02 17:38:00,63.1,30.4,30.17,WNW,289,2.0,5.0,29,0.00,,---,0.00,14.00,VWS V14.00,2013-02-02 22:38:00,
2013-02-02 17:39:00,63.0,33.5,30.17,WNW,289,1.0,5.0,33,0.00,,---,0.00,14.00,VWS V14.00,2013-02-02 22:39:00,
2013-02-02 17:40:00,62.9,31.8,30.17,WNW,289,1.0,5.0,31,0.00,,---,0.00,12.00,VWS V14.00,2013-02-02 22:40:00,
2013-02-02 17:41:00,62.8,31.7,30.17,WNW,289,3.0,5.0,31,0.00,,---,0.00,12.00,VWS V14.00,2013-02-02 22:41:00,
2013-02-02 17:42:00,62.7,30.8,30.17,WNW,289,2.0,5.0,30,0.00,,---,0.00,12.00,VWS V14.00,2013-02-02 22:42:00,
2013-02-02 17:43:00,62.6,32.3,30.17,WNW,289,2.0,5.0,32,0.00,,---,0.00,11.00,VWS V14.00,2013-02-02 22:43:00,
2013-02-02 17:44:00,62.5,30.7,30.17,WNW,289,2.0,5.0,30,0.00,,---,0.00,11.00,VWS V14.00,2013-02-02 22:44:00,
2013-02-02 17:45:00,62.4,32.2,30.17,WNW,289,2.0,5.0,32,0.00,,---,0.00,9.00,VWS V14.00,2013-02-02 22:45:00,
2013-02-02 17:46:00,62.4,35.1,30.17,WNW,289,0.0,5.0,36,0.00,,---,0.00,9.00,VWS V14.00,2013-02-02 22:46:00,
2013-02-02 17:47:00,62.3,33.6,30.17,WNW,289,0.0,5.0,34,0.00,,---,0.00,9.00,VWS V14.00,2013-02-02 22:47:00,
2013-02-02 17:48:00,62.2,32.0,30.16,WNW,289,0.0,5.0,32,0.00,,---,0.00,7.00,VWS V14.00,2013-02-02 22:48:00,
2013-02-02 17:49:00,62.1,31.1,30.16,WNW,289,0.0,5.0,31,0.00,,---,0.00,7.00,VWS V14.00,2013-02-02 22:49:00,
2013-02-02 17:50:00,62.0,31.8,30.16,WNW,289,0.0,5.0,32,0.00,,---,0.00,7.00,VWS V14.00,2013-02-02 22:50:00,
2013-02-02 17:51:00,61.9,31.7,30.16,WNW,289,0.0,5.0,32,0.00,,---,0.00,5.00,VWS V14.00,2013-02-02 22:51:00,
2013-02-02 17:52:00,61.8,31.6,30.16,WNW,289,0.0,5.0,32,0.00,,---,0.00,5.00,VWS V14.00,2013-02-02 22:52:00,
2013-02-02 17:53:00,61.7,32.3,30.16,WNW,289,0.0,5.0,33,0.00,,---,0.00,5.00,VWS V14.00,2013-02-02 22:53:00,
2013-02-02 17:54:00,61.6,33.0,30.16,WNW,289,0.0,5.0,34,0.00,,---,0.00,0.00,VWS V14.00,2013-02-02 22:54:00,
2013-02-02 17:55:00,61.5,33.6,30.16,WNW,289,0.0,5.0,35,0.00,,---,0.00,0.00,VWS V14.00,2013-02-02 22:55:00,
2013-02-02 17:56:00,61.3,33.4,30.16,WNW,289,0.0,5.0,35,0.00,,---,0.00,0.00,VWS V14.00,2013-02-02 22:56:00,
2013-02-02 17:57:00,61.2,33.3,30.16,WNW,289,0.0,5.0,35,0.00,,---,0.00,0.00,VWS V14.00,2013-02-02 22:57:00,
2013-02-02 17:58:00,61.1,33.3,30.16,WNW,289,0.0,5.0,35,0.00,,---,0.00,0.00,VWS V14.00,2013-02-02 22:58:00,
2013-02-02 17:59:00,60.9,33.8,30.16,WNW,289,0.0,5.0,36,0.00,,---,0.00,0.00,VWS V14.00,2013-02-02 22:59:00,
2013-02-02 18:00:00,60.7,33.6,30.16,WNW,289,0.0,5.0,36,0.00,,---,0.00,0.00,VWS V14.00,2013-02-02 23:00:00,
2013-02-02 18:01:00,60.5,33.4,30.16,WNW,289,0.0,0.0,36,0.00,,---,0.00,0.00,VWS V14.00,2013-02-02 23:01:00,
2013-02-02 18:02:00,60.4,33.3,30.16,WNW,289,0.0,0.0,36,0.00,,---,0.00,0.00,VWS V14.00,2013-02-02 23:02:00,
2013-02-02 18:03:00,60.2,33.8,30.16,WNW,289,0.0,0.0,37,0.00,,---,0.00,0.00,VWS V14.00,2013-02-02 23:03:00,
2013-02-02 18:04:00,60.0,33.7,30.16,WNW,289,0.0,0.0,37,0.00,,---,0.00,0.00,VWS V14.00,2013-02-02 23:04:00,
2013-02-02 18:05:00,59.9,32.9,30.16,WNW,289,0.0,0.0,36,0.00,,---,0.00,0.00,VWS V14.00,2013-02-02 23:05:00,
2013-02-02 18:06:00,59.9,32.9,30.16,WNW,289,0.0,0.0,36,0.00,,---,0.00,0.00,VWS V14.00,2013-02-02 23:06:00,
2013-02-02 18:07:00,59.9,32.9,30.16,WNW,289,0.0,0.0,36,0.00,,---,0.00,0.00,VWS V14.00,2013-02-02 23:07:00,
2013-02-02 18:08:00,59.9,32.9,30.16,WNW,289,0.0,0.0,36,0.00,,---,0.00,0.00,VWS V14.00,2013-02-02 23:08:00,
2013-02-02 18:09:00,59.9,32.9,30.16,WNW,289,0.0,0.0,36,0.00,,---,0.00,0.00,VWS V14.00,2013-02-02 23:09:00,
2013-02-02 18:10:00,59.1,32.9,30.16,WNW,289,0.0,0.0,37,0.00,,---,0.00,0.00,VWS V14.00,2013-02-02 23:10:00,
2013-02-02 18:11:00,59.0,32.8,30.16,WNW,289,0.0,0.0,37,0.00,,---,0.00,0.00,VWS V14.00,2013-02-02 23:11:00,
2013-02-02 18:12:00,58.8,32.6,30.16,WNW,289,0.0,0.0,37,0.00,,---,0.00,0.00,VWS V14.00,2013-02-02 23:12:00,
2013-02-02 18:13:00,58.7,33.2,30.16,WNW,289,0.0,0.0,38,0.00,,---,0.00,0.00,VWS V14.00,2013-02-02 23:13:00,
2013-02-02 18:14:00,58.6,33.7,30.16,WNW,289,0.0,0.0,39,0.00,,---,0.00,0.00,VWS V14.00,2013-02-02 23:14:00,
2013-02-02 18:15:00,58.5,33.7,30.17,WNW,289,0.0,0.0,39,0.00,,---,0.00,0.00,VWS V14.00,2013-02-02 23:15:00,
2013-02-02 18:16:00,58.4,33.6,30.17,WNW,289,0.0,0.0,39,0.00,,---,0.00,0.00,VWS V14.00,2013-02-02 23:16:00,
2013-02-02 18:17:00,58.2,33.4,30.17,WNW,289,0.0,0.0,39,0.00,,---,0.00,0.00,VWS V14.00,2013-02-02 23:17:00,
2013-02-02 18:18:00,58.1,34.5,30.16,WNW,289,0.0,0.0,41,0.00,,---,0.00,0.00,VWS V14.00,2013-02-02 23:18:00,
2013-02-02 18:19:00,58.0,36.2,30.17,WNW,289,0.0,0.0,44,0.00,,---,0.00,0.00,VWS V14.00,2013-02-02 23:19:00,
2013-02-02 18:20:00,57.8,36.6,30.17,WNW,289,0.0,0.0,45,0.00,,---,0.00,0.00,VWS V14.00,2013-02-02 23:20:00,
2013-02-02 18:21:00,57.7,36.5,30.17,WNW,289,0.0,0.0,45,0.00,,---,0.00,0.00,VWS V14.00,2013-02-02 23:21:00,
2013-02-02 18:22:00,57.6,35.9,30.17,WNW,289,0.0,0.0,44,0.00,,---,0.00,0.00,VWS V14.00,2013-02-02 23:22:00,
2013-02-02 18:23:00,57.4,36.2,30.17,WNW,289,0.0,0.0,45,0.00,,---,0.00,0.00,VWS V14.00,2013-02-02 23:23:00,
2013-02-02 18:24:00,57.3,34.4,30.17,WNW,289,0.0,0.0,42,0.00,,---,0.00,0.00,VWS V14.00,2013-02-02 23:24:00,
2013-02-02 18:25:00,57.2,34.3,30.17,WNW,289,0.0,0.0,42,0.00,,---,0.00,0.00,VWS V14.00,2013-02-02 23:25:00,
2013-02-02 18:26:00,57.1,34.8,30.17,WNW,289,0.0,0.0,43,0.00,,---,0.00,0.00,VWS V14.00,2013-02-02 23:26:00,
2013-02-02 18:27:00,57.0,34.8,30.17,WNW,289,0.0,0.0,43,0.00,,---,0.00,0.00,VWS V14.00,2013-02-02 23:27:00,
2013-02-02 18:28:00,56.9,35.2,30.17,WNW,289,0.0,0.0,44,0.00,,---,0.00,0.00,VWS V14.00,2013-02-02 23:28:00,
2013-02-02 18:29:00,56.8,36.8,30.17,WNW,289,0.0,0.0,47,0.00,,---,0.00,0.00,VWS V14.00,2013-02-02 23:29:00,
2013-02-02 18:30:00,56.8,38.4,30.17,WNW,289,0.0,0.0,50,0.00,,---,0.00,0.00,VWS V14.00,2013-02-02 23:30:00,
2013-02-02 18:31:00,56.7,39.8,30.17,WNW,289,0.0,0.0,53,0.00,,---,0.00,0.00,VWS V14.00,2013-02-02 23:31:00,
2013-02-02 18:32:00,56.6,40.2,30.17,WNW,289,0.0,0.0,54,0.00,,---,0.00,0.00,VWS V14.00,2013-02-02 23:32:00,
2013-02-02 18:33:00,56.6,41.1,30.17,WNW,289,0.0,0.0,56,0.00,,---,0.00,0.00,VWS V14.00,2013-02-02 23:33:00,
2013-02-02 18:34:00,56.5,41.5,30.17,WNW,289,0.0,0.0,57,0.00,,---,0.00,0.00,VWS V14.00,2013-02-02 23:34:00,
2013-02-02 18:35:00,56.4,39.5,30.17,WNW,289,0.0,0.0,53,0.00,,---,0.00,0.00,VWS V14.00,2013-02-02 23:35:00,
2013-02-02 18:36:00,56.4,40.0,30.17,WNW,289,0.0,0.0,54,0.00,,---,0.00,0.00,VWS V14.00,2013-02-02 23:36:00,
2013-02-02 18:37:00,56.3,40.4,30.17,WNW,289,0.0,0.0,55,0.00,,---,0.00,0.00,VWS V14.00,2013-02-02 23:37:00,
2013-02-02 18:38:00,56.2,39.3,30.17,WNW,289,0.0,0.0,53,0.00,,---,0.00,0.00,VWS V14.00,2013-02-02 23:38:00,
2013-02-02 18:39:00,56.2,39.3,30.17,WNW,289,0.0,0.0,53,0.00,,---,0.00,0.00,VWS V14.00,2013-02-02 23:39:00,
2013-02-02 18:40:00,56.1,39.2,30.17,WNW,289,0.0,0.0,53,0.00,,---,0.00,0.00,VWS V14.00,2013-02-02 23:40:00,
2013-02-02 18:41:00,56.1,39.2,30.17,WNW,289,0.0,0.0,53,0.00,,---,0.00,0.00,VWS V14.00,2013-02-02 23:41:00,
2013-02-02 18:42:00,56.1,40.2,30.17,WNW,289,0.0,0.0,55,0.00,,---,0.00,0.00,VWS V14.00,2013-02-02 23:42:00,
2013-02-02 18:43:00,56.0,40.5,30.17,WNW,289,0.0,0.0,56,0.00,,---,0.00,0.00,VWS V14.00,2013-02-02 23:43:00,
2013-02-02 18:44:00,56.0,40.5,30.17,WNW,289,0.0,0.0,56,0.00,,---,0.00,0.00,VWS V14.00,2013-02-02 23:44:00,
2013-02-02 18:45:00,55.9,40.5,30.17,WNW,289,0.0,0.0,56,0.00,,---,0.00,0.00,VWS V14.00,2013-02-02 23:45:00,
2013-02-02 18:46:00,55.9,40.5,30.17,WNW,289,0.0,0.0,56,0.00,,---,0.00,0.00,VWS V14.00,2013-02-02 23:46:00,
2013-02-02 18:47:00,55.9,40.0,30.17,WNW,289,0.0,2.0,55,0.00,,---,0.00,0.00,VWS V14.00,2013-02-02 23:47:00,
2013-02-02 18:48:00,55.9,40.0,30.17,WNW,289,0.0,2.0,55,0.00,,---,0.00,0.00,VWS V14.00,2013-02-02 23:48:00,
2013-02-02 18:49:00,55.9,40.5,30.17,WNW,289,0.0,2.0,56,0.00,,---,0.00,0.00,VWS V14.00,2013-02-02 23:49:00,
2013-02-02 18:50:00,55.9,39.5,30.17,WNW,289,0.0,2.0,54,0.00,,---,0.00,0.00,VWS V14.00,2013-02-02 23:50:00,
2013-02-02 18:51:00,55.8,39.4,30.17,WNW,289,0.0,2.0,54,0.00,,---,0.00,0.00,VWS V14.00,2013-02-02 23:51:00,
2013-02-02 18:52:00,55.8,39.4,30.17,WNW,289,0.0,2.0,54,0.00,,---,0.00,0.00,VWS V14.00,2013-02-02 23:52:00,
2013-02-02 18:53:00,55.7,39.3,30.17,WNW,289,0.0,2.0,54,0.00,,---,0.00,0.00,VWS V14.00,2013-02-02 23:53:00,
2013-02-02 18:54:00,55.7,39.3,30.17,WNW,289,0.0,2.0,54,0.00,,---,0.00,0.00,VWS V14.00,2013-02-02 23:54:00,
2013-02-02 18:55:00,55.5,39.1,30.17,WNW,289,0.0,2.0,54,0.00,,---,0.00,0.00,VWS V14.00,2013-02-02 23:55:00,
2013-02-02 18:56:00,55.5,39.6,30.17,WNW,289,0.0,2.0,55,0.00,,---,0.00,0.00,VWS V14.00,2013-02-02 23:56:00,
2013-02-02 18:57:00,55.4,40.0,30.17,WNW,289,0.0,2.0,56,0.00,,---,0.00,0.00,VWS V14.00,2013-02-02 23:57:00,
2013-02-02 18:58:00,55.3,40.3,30.17,WNW,289,0.0,2.0,57,0.00,,---,0.00,0.00,VWS V14.00,2013-02-02 23:58:00,
2013-02-02 18:59:00,55.1,40.2,30.17,WNW,289,0.0,2.0,57,0.00,,---,0.00,0.00,VWS V14.00,2013-02-02 23:59:00,
2013-02-02 19:00:00,55.0,39.2,30.17,WNW,289,0.0,2.0,55,0.00,,---,0.00,0.00,VWS V14.00,2013-02-03 00:00:00,
2013-02-02 19:01:00,54.9,39.0,30.17,WNW,289,0.0,0.0,55,0.00,,---,0.00,0.00,VWS V14.00,2013-02-03 00:01:00,
2013-02-02 19:02:00,54.8,39.0,30.17,WNW,289,0.0,0.0,55,0.00,,---,0.00,0.00,VWS V14.00,2013-02-03 00:02:00,
2013-02-02 19:03:00,54.8,39.0,30.17,WNW,289,0.0,0.0,55,0.00,,---,0.00,0.00,VWS V14.00,2013-02-03 00:03:00,
2013-02-02 19:04:00,54.7,39.3,30.17,WNW,289,0.0,0.0,56,0.00,,---,0.00,0.00,VWS V14.00,2013-02-03 00:04:00,
2013-02-02 19:05:00,54.6,39.7,30.17,WNW,289,0.0,0.0,57,0.00,,---,0.00,0.00,VWS V14.00,2013-02-03 00:05:00,
2013-02-02 19:06:00,54.6,39.7,30.17,WNW,289,0.0,0.0,57,0.00,,---,0.00,0.00,VWS V14.00,2013-02-03 00:06:00,
2013-02-02 19:07:00,54.4,38.6,30.17,WNW,289,0.0,0.0,55,0.00,,---,0.00,0.00,VWS V14.00,2013-02-03 00:07:00,
2013-02-02 19:08:00,54.3,37.5,30.17,WNW,289,0.0,0.0,53,0.00,,---,0.00,0.00,VWS V14.00,2013-02-03 00:08:00,
2013-02-02 19:09:00,54.2,37.0,30.18,WNW,289,0.0,0.0,52,0.00,,---,0.00,0.00,VWS V14.00,2013-02-03 00:09:00,
2013-02-02 19:10:00,54.1,37.4,30.17,WNW,289,0.0,0.0,53,0.00,,---,0.00,0.00,VWS V14.00,2013-02-03 00:10:00,
2013-02-02 19:11:00,54.0,37.8,30.17,WNW,289,0.0,0.0,54,0.00,,---,0.00,0.00,VWS V14.00,2013-02-03 00:11:00,
2013-02-02 19:12:00,53.9,37.7,30.17,WNW,289,0.0,0.0,54,0.00,,---,0.00,0.00,VWS V14.00,2013-02-03 00:12:00,
2013-02-02 19:13:00,53.8,37.1,30.17,WNW,289,0.0,0.0,53,0.00,,---,0.00,0.00,VWS V14.00,2013-02-03 00:13:00,
2013-02-02 19:14:00,53.7,36.5,30.17,WNW,289,0.0,0.0,52,0.00,,---,0.00,0.00,VWS V14.00,2013-02-03 00:14:00,
2013-02-02 19:15:00,53.6,35.9,30.17,WNW,289,0.0,0.0,51,0.00,,---,0.00,0.00,VWS V14.00,2013-02-03 00:15:00,
2013-02-02 19:16:00,53.5,35.8,30.17,WNW,289,0.0,0.0,51,0.00,,---,0.00,0.00,VWS V14.00,2013-02-03 00:16:00,
2013-02-02 19:17:00,53.5,35.8,30.17,WNW,289,0.0,0.0,51,0.00,,---,0.00,0.00,VWS V14.00,2013-02-03 00:17:00,
2013-02-02 19:18:00,53.4,36.2,30.17,WNW,289,0.0,0.0,52,0.00,,---,0.00,0.00,VWS V14.00,2013-02-03 00:18:00,
2013-02-02 19:19:00,53.3,36.6,30.17,WNW,289,0.0,0.0,53,0.00,,---,0.00,0.00,VWS V14.00,2013-02-03 00:19:00,
2013-02-02 19:20:00,53.3,37.6,30.17,WNW,289,0.0,0.0,55,0.00,,---,0.00,0.00,VWS V14.00,2013-02-03 00:20:00,
2013-02-02 19:21:00,53.3,37.1,30.17,WNW,289,0.0,0.0,54,0.00,,---,0.00,0.00,VWS V14.00,2013-02-03 00:21:00,
2013-02-02 19:22:00,53.2,37.5,30.17,WNW,289,0.0,0.0,55,0.00,,---,0.00,0.00,VWS V14.00,2013-02-03 00:22:00,
2013-02-02 19:23:00,53.2,37.0,30.17,WNW,289,0.0,0.0,54,0.00,,---,0.00,0.00,VWS V14.00,2013-02-03 00:23:00,
2013-02-02 19:24:00,53.1,35.5,30.17,WNW,289,0.0,0.0,51,0.00,,---,0.00,0.00,VWS V14.00,2013-02-03 00:24:00,
2013-02-02 19:25:00,53.1,36.4,30.17,WNW,289,0.0,0.0,53,0.00,,---,0.00,0.00,VWS V14.00,2013-02-03 00:25:00,
2013-02-02 19:26:00,53.0,35.9,30.17,WNW,289,0.0,0.0,52,0.00,,---,0.00,0.00,VWS V14.00,2013-02-03 00:26:00,
2013-02-02 19:27:00,53.0,35.9,30.17,WNW,289,0.0,0.0,52,0.00,,---,0.00,0.00,VWS V14.00,2013-02-03 00:27:00,
2013-02-02 19:28:00,52.9,35.3,30.17,WNW,289,0.0,0.0,51,0.00,,---,0.00,0.00,VWS V14.00,2013-02-03 00:28:00,
2013-02-02 19:29:00,52.9,35.8,30.17,WNW,289,0.0,0.0,52,0.00,,---,0.00,0.00,VWS V14.00,2013-02-03 00:29:00,
2013-02-02 19:30:00,52.9,36.2,30.17,WNW,289,0.0,0.0,53,0.00,,---,0.00,0.00,VWS V14.00,2013-02-03 00:30:00,
2013-02-02 19:31:00,52.8,35.7,30.17,WNW,289,0.0,0.0,52,0.00,,---,0.00,0.00,VWS V14.00,2013-02-03 00:31:00,
2013-02-02 19:32:00,52.8,37.1,30.17,WNW,289,0.0,0.0,55,0.00,,---,0.00,0.00,VWS V14.00,2013-02-03 00:32:00,
2013-02-02 19:33:00,52.7,37.5,30.17,WNW,289,0.0,0.0,56,0.00,,---,0.00,0.00,VWS V14.00,2013-02-03 00:33:00,
2013-02-02 19:34:00,52.7,37.9,30.17,WNW,289,0.0,0.0,57,0.00,,---,0.00,0.00,VWS V14.00,2013-02-03 00:34:00,
2013-02-02 19:35:00,52.6,37.8,30.17,WNW,289,0.0,0.0,57,0.00,,---,0.00,0.00,VWS V14.00,2013-02-03 00:35:00,
2013-02-02 19:36:00,52.5,37.7,30.17,WNW,289,0.0,0.0,57,0.00,,---,0.00,0.00,VWS V14.00,2013-02-03 00:36:00,
2013-02-02 19:37:00,52.4,37.6,30.17,WNW,289,0.0,0.0,57,0.00,,---,0.00,0.00,VWS V14.00,2013-02-03 00:37:00,
2013-02-02 19:38:00,52.4,37.2,30.17,WNW,289,0.0,0.0,56,0.00,,---,0.00,0.00,VWS V14.00,2013-02-03 00:38:00,
2013-02-02 19:39:00,52.3,37.1,30.17,WNW,289,0.0,0.0,56,0.00,,---,0.00,0.00,VWS V14.00,2013-02-03 00:39:00,
2013-02-02 19:40:00,52.2,37.0,30.17,WNW,289,0.0,0.0,56,0.00,,---,0.00,0.00,VWS V14.00,2013-02-03 00:40:00,
2013-02-02 19:41:00,52.2,37.4,30.17,WNW,289,0.0,0.0,57,0.00,,---,0.00,0.00,VWS V14.00,2013-02-03 00:41:00,
2013-02-02 19:42:00,52.1,37.3,30.17,WNW,289,0.0,0.0,57,0.00,,---,0.00,0.00,VWS V14.00,2013-02-03 00:42:00,
2013-02-02 19:43:00,52.0,37.7,30.17,WNW,289,0.0,0.0,58,0.00,,---,0.00,0.00,VWS V14.00,2013-02-03 00:43:00,
2013-02-02 19:44:00,52.0,37.7,30.17,WNW,289,0.0,0.0,58,0.00,,---,0.00,0.00,VWS V14.00,2013-02-03 00:44:00,
2013-02-02 19:45:00,51.9,37.6,30.17,WNW,289,0.0,0.0,58,0.00,,---,0.00,0.00,VWS V14.00,2013-02-03 00:45:00,
2013-02-02 19:46:00,51.9,37.2,30.17,WNW,289,0.0,0.0,57,0.00,,---,0.00,0.00,VWS V14.00,2013-02-03 00:46:00,
2013-02-02 19:47:00,51.8,37.5,30.17,WNW,289,0.0,0.0,58,0.00,,---,0.00,0.00,VWS V14.00,2013-02-03 00:47:00,
2013-02-02 19:48:00,51.8,37.9,30.17,WNW,289,0.0,0.0,59,0.00,,---,0.00,0.00,VWS V14.00,2013-02-03 00:48:00,
2013-02-02 19:49:00,51.8,38.4,30.17,WNW,289,0.0,0.0,60,0.00,,---,0.00,0.00,VWS V14.00,2013-02-03 00:49:00,
2013-02-02 19:50:00,51.7,38.7,30.17,WNW,289,0.0,0.0,61,0.00,,---,0.00,0.00,VWS V14.00,2013-02-03 00:50:00,
2013-02-02 19:51:00,51.7,38.7,30.17,WNW,289,0.0,0.0,61,0.00,,---,0.00,0.00,VWS V14.00,2013-02-03 00:51:00,
2013-02-02 19:52:00,51.6,38.6,30.17,WNW,289,0.0,0.0,61,0.00,,---,0.00,0.00,VWS V14.00,2013-02-03 00:52:00,
2013-02-02 19:53:00,51.5,38.5,30.17,WNW,289,0.0,0.0,61,0.00,,---,0.00,0.00,VWS V14.00,2013-02-03 00:53:00,
2013-02-02 19:54:00,51.5,38.5,30.17,WNW,289,0.0,0.0,61,0.00,,---,0.00,0.00,VWS V14.00,2013-02-03 00:54:00,
2013-02-02 19:55:00,51.4,38.4,30.17,WNW,289,0.0,0.0,61,0.00,,---,0.00,0.00,VWS V14.00,2013-02-03 00:55:00,
2013-02-02 19:56:00,51.4,38.4,30.17,WNW,289,0.0,0.0,61,0.00,,---,0.00,0.00,VWS V14.00,2013-02-03 00:56:00,
2013-02-02 19:57:00,51.3,38.3,30.17,WNW,289,0.0,0.0,61,0.00,,---,0.00,0.00,VWS V14.00,2013-02-03 00:57:00,
2013-02-02 19:58:00,51.2,38.2,30.17,WNW,289,0.0,0.0,61,0.00,,---,0.00,0.00,VWS V14.00,2013-02-03 00:58:00,
2013-02-02 19:59:00,51.2,38.6,30.17,WNW,289,0.0,0.0,62,0.00,,---,0.00,0.00,VWS V14.00,2013-02-03 00:59:00,
2013-02-02 20:00:00,51.1,38.5,30.17,WNW,289,0.0,0.0,62,0.00,,---,0.00,0.00,VWS V14.00,2013-02-03 01:00:00,
2013-02-02 20:01:00,51.0,38.5,30.17,WNW,289,0.0,0.0,62,0.00,,---,0.00,0.00,VWS V14.00,2013-02-03 01:01:00,
2013-02-02 20:02:00,50.9,38.4,30.17,WNW,289,0.0,0.0,62,0.00,,---,0.00,0.00,VWS V14.00,2013-02-03 01:02:00,
2013-02-02 20:03:00,50.9,38.8,30.17,WNW,289,0.0,0.0,63,0.00,,---,0.00,0.00,VWS V14.00,2013-02-03 01:03:00,
2013-02-02 20:04:00,50.8,38.7,30.17,WNW,289,0.0,0.0,63,0.00,,---,0.00,0.00,VWS V14.00,2013-02-03 01:04:00,
2013-02-02 20:05:00,50.8,38.7,30.17,WNW,289,0.0,0.0,63,0.00,,---,0.00,0.00,VWS V14.00,2013-02-03 01:05:00,
2013-02-02 20:06:00,50.7,39.0,30.17,WNW,289,0.0,0.0,64,0.00,,---,0.00,0.00,VWS V14.00,2013-02-03 01:06:00,
2013-02-02 20:07:00,50.7,39.4,30.17,WNW,289,0.0,0.0,65,0.00,,---,0.00,0.00,VWS V14.00,2013-02-03 01:07:00,
2013-02-02 20:08:00,50.6,39.3,30.17,WNW,289,0.0,0.0,65,0.00,,---,0.00,0.00,VWS V14.00,2013-02-03 01:08:00,
2013-02-02 20:09:00,50.6,38.9,30.17,WNW,289,0.0,0.0,64,0.00,,---,0.00,0.00,VWS V14.00,2013-02-03 01:09:00,
2013-02-02 20:10:00,50.6,39.3,30.17,WNW,289,0.0,0.0,65,0.00,,---,0.00,0.00,VWS V14.00,2013-02-03 01:10:00,
2013-02-02 20:11:00,50.6,39.3,30.18,WNW,289,0.0,0.0,65,0.00,,---,0.00,0.00,VWS V14.00,2013-02-03 01:11:00,
2013-02-02 20:12:00,50.5,39.2,30.18,WNW,289,0.0,0.0,65,0.00,,---,0.00,0.00,VWS V14.00,2013-02-03 01:12:00,
2013-02-02 20:13:00,50.5,39.2,30.17,WNW,289,0.0,0.0,65,0.00,,---,0.00,0.00,VWS V14.00,2013-02-03 01:13:00,
2013-02-02 20:14:00,50.5,39.2,30.17,WNW,289,0.0,0.0,65,0.00,,---,0.00,0.00,VWS V14.00,2013-02-03 01:14:00,
2013-02-02 20:15:00,50.5,39.6,30.17,WNW,289,0.0,0.0,66,0.00,,---,0.00,0.00,VWS V14.00,2013-02-03 01:15:00,
2013-02-02 20:16:00,50.6,39.7,30.17,WNW,289,0.0,0.0,66,0.00,,---,0.00,0.00,VWS V14.00,2013-02-03 01:16:00,
2013-02-02 20:17:00,50.6,39.7,30.17,WNW,289,0.0,0.0,66,0.00,,---,0.00,0.00,VWS V14.00,2013-02-03 01:17:00,
2013-02-02 20:18:00,50.6,39.7,30.17,WNW,289,0.0,2.0,66,0.00,,---,0.00,0.00,VWS V14.00,2013-02-03 01:18:00,
2013-02-02 20:19:00,50.6,39.7,30.17,WNW,289,0.0,2.0,66,0.00,,---,0.00,0.00,VWS V14.00,2013-02-03 01:19:00,
2013-02-02 20:20:00,50.6,40.1,30.17,WNW,289,0.0,2.0,67,0.00,,---,0.00,0.00,VWS V14.00,2013-02-03 01:20:00,
2013-02-02 20:21:00,50.7,40.2,30.17,WNW,289,0.0,2.0,67,0.00,,---,0.00,0.00,VWS V14.00,2013-02-03 01:21:00,
2013-02-02 20:22:00,50.6,39.7,30.17,WNW,289,0.0,2.0,66,0.00,,---,0.00,0.00,VWS V14.00,2013-02-03 01:22:00,
2013-02-02 20:23:00,50.6,40.1,30.17,WNW,289,0.0,2.0,67,0.00,,---,0.00,0.00,VWS V14.00,2013-02-03 01:23:00,
2013-02-02 20:24:00,50.6,40.1,30.17,WNW,289,0.0,2.0,67,0.00,,---,0.00,0.00,VWS V14.00,2013-02-03 01:24:00,
2013-02-02 20:25:00,50.6,40.1,30.17,WNW,289,0.0,2.0,67,0.00,,---,0.00,0.00,VWS V14.00,2013-02-03 01:25:00,
2013-02-02 20:26:00,50.5,40.0,30.17,WNW,289,2.0,2.0,67,0.00,,---,0.00,0.00,VWS V14.00,2013-02-03 01:26:00,
2013-02-02 20:27:00,50.5,40.0,30.17,WNW,289,0.0,2.0,67,0.00,,---,0.00,0.00,VWS V14.00,2013-02-03 01:27:00,
2013-02-02 20:28:00,50.4,39.9,30.17,WNW,289,0.0,2.0,67,0.00,,---,0.00,0.00,VWS V14.00,2013-02-03 01:28:00,
2013-02-02 20:29:00,50.4,39.5,30.17,WNW,289,0.0,2.0,66,0.00,,---,0.00,0.00,VWS V14.00,2013-02-03 01:29:00,
2013-02-02 20:30:00,50.3,39.4,30.17,WNW,289,0.0,2.0,66,0.00,,---,0.00,0.00,VWS V14.00,2013-02-03 01:30:00,
2013-02-02 20:31:00,50.2,39.3,30.17,WNW,289,0.0,0.0,66,0.00,,---,0.00,0.00,VWS V14.00,2013-02-03 01:31:00,
2013-02-02 20:32:00,50.1,39.2,30.18,WNW,289,0.0,0.0,66,0.00,,---,0.00,0.00,VWS V14.00,2013-02-03 01:32:00,
2013-02-02 20:33:00,50.1,39.2,30.18,WNW,289,0.0,0.0,66,0.00,,---,0.00,0.00,VWS V14.00,2013-02-03 01:33:00,
2013-02-02 20:34:00,49.9,39.0,30.18,WNW,289,0.0,0.0,66,0.00,,---,0.00,0.00,VWS V14.00,2013-02-03 01:34:00,
2013-02-02 20:35:00,49.7,38.4,30.18,WNW,289,0.0,0.0,65,0.00,,---,0.00,0.00,VWS V14.00,2013-02-03 01:35:00,
2013-02-02 20:36:00,49.7,38.8,30.18,WNW,289,0.0,0.0,66,0.00,,---,0.00,0.00,VWS V14.00,2013-02-03 01:36:00,
2013-02-02 20:37:00,49.6,38.7,30.18,WNW,289,0.0,0.0,66,0.00,,---,0.00,0.00,VWS V14.00,2013-02-03 01:37:00,
2013-02-02 20:38:00,49.5,38.2,30.18,WNW,289,0.0,0.0,65,0.00,,---,0.00,0.00,VWS V14.00,2013-02-03 01:38:00,
2013-02-02 20:39:00,49.4,38.1,30.18,WNW,289,0.0,0.0,65,0.00,,---,0.00,0.00,VWS V14.00,2013-02-03 01:39:00,
2013-02-02 20:40:00,49.3,38.4,30.18,WNW,289,0.0,0.0,66,0.00,,---,0.00,0.00,VWS V14.00,2013-02-03 01:40:00,
2013-02-02 20:41:00,49.2,38.0,30.18,WNW,289,0.0,0.0,65,0.00,,---,0.00,0.00,VWS V14.00,2013-02-03 01:41:00,
2013-02-02 20:42:00,49.2,37.6,30.18,WNW,289,0.0,0.0,64,0.00,,---,0.00,0.00,VWS V14.00,2013-02-03 01:42:00,
2013-02-02 20:43:00,49.2,37.6,30.18,WNW,289,0.0,0.0,64,0.00,,---,0.00,0.00,VWS V14.00,2013-02-03 01:43:00,
2013-02-02 20:44:00,49.2,37.6,30.18,WNW,289,0.0,0.0,64,0.00,,---,0.00,0.00,VWS V14.00,2013-02-03 01:44:00,
2013-02-02 20:45:00,49.3,37.2,30.18,WNW,289,0.0,0.0,63,0.00,,---,0.00,0.00,VWS V14.00,2013-02-03 01:45:00,
2013-02-02 20:46:00,49.3,36.8,30.18,WNW,289,0.0,0.0,62,0.00,,---,0.00,0.00,VWS V14.00,2013-02-03 01:46:00,
2013-02-02 20:47:00,49.3,36.8,30.18,WNW,289,0.0,0.0,62,0.00,,---,0.00,0.00,VWS V14.00,2013-02-03 01:47:00,
2013-02-02 20:48:00,49.3,36.8,30.18,WNW,289,0.0,0.0,62,0.00,,---,0.00,0.00,VWS V14.00,2013-02-03 01:48:00,
2013-02-02 20:49:00,49.2,36.8,30.18,WNW,289,0.0,0.0,62,0.00,,---,0.00,0.00,VWS V14.00,2013-02-03 01:49:00,
2013-02-02 20:50:00,49.2,37.6,30.18,WNW,289,0.0,0.0,64,0.00,,---,0.00,0.00,VWS V14.00,2013-02-03 01:50:00,
2013-02-02 20:51:00,49.2,38.0,30.18,WNW,289,0.0,0.0,65,0.00,,---,0.00,0.00,VWS V14.00,2013-02-03 01:51:00,
2013-02-02 20:52:00,49.2,38.7,30.18,WNW,289,0.0,0.0,67,0.00,,---,0.00,0.00,VWS V14.00,2013-02-03 01:52:00,
2013-02-02 20:53:00,49.1,38.6,30.18,WNW,289,0.0,0.0,67,0.00,,---,0.00,0.00,VWS V14.00,2013-02-03 01:53:00,
2013-02-02 20:54:00,49.1,38.6,30.18,WNW,289,0.0,0.0,67,0.00,,---,0.00,0.00,VWS V14.00,2013-02-03 01:54:00,
2013-02-02 20:55:00,49.0,38.9,30.18,WNW,289,0.0,0.0,68,0.00,,---,0.00,0.00,VWS V14.00,2013-02-03 01:55:00,
2013-02-02 20:56:00,49.0,38.9,30.18,WNW,289,0.0,0.0,68,0.00,,---,0.00,0.00,VWS V14.00,2013-02-03 01:56:00,
2013-02-02 20:57:00,48.9,38.4,30.18,WNW,289,0.0,0.0,67,0.00,,---,0.00,0.00,VWS V14.00,2013-02-03 01:57:00,
2013-02-02 20:58:00,48.8,38.3,30.18,WNW,289,0.0,0.0,67,0.00,,---,0.00,0.00,VWS V14.00,2013-02-03 01:58:00,
2013-02-02 20:59:00,48.8,38.3,30.18,WNW,289,0.0,0.0,67,0.00,,---,0.00,0.00,VWS V14.00,2013-02-03 01:59:00,
2013-02-02 21:00:00,48.7,37.9,30.18,WNW,289,0.0,0.0,66,0.00,,---,0.00,0.00,VWS V14.00,2013-02-03 02:00:00,
2013-02-02 21:01:00,48.6,37.8,30.18,WNW,289,0.0,0.0,66,0.00,,---,0.00,0.00,VWS V14.00,2013-02-03 02:01:00,
2013-02-02 21:02:00,48.5,37.7,30.18,WNW,289,0.0,0.0,66,0.00,,---,0.00,0.00,VWS V14.00,2013-02-03 02:02:00,
2013-02-02 21:03:00,48.4,37.6,30.17,WNW,289,0.0,0.0,66,0.00,,---,0.00,0.00,VWS V14.00,2013-02-03 02:03:00,
2013-02-02 21:04:00,48.3,37.5,30.17,WNW,289,0.0,0.0,66,0.00,,---,0.00,0.00,VWS V14.00,2013-02-03 02:04:00,
2013-02-02 21:05:00,48.3,37.1,30.17,WNW,289,0.0,0.0,65,0.00,,---,0.00,0.00,VWS V14.00,2013-02-03 02:05:00,
2013-02-02 21:06:00,48.2,37.0,30.17,WNW,289,2.0,4.0,65,0.00,,---,0.00,0.00,VWS V14.00,2013-02-03 02:06:00,
2013-02-02 21:07:00,48.2,37.4,30.18,WNW,289,2.0,4.0,66,0.00,,---,0.00,0.00,VWS V14.00,2013-02-03 02:07:00,
2013-02-02 21:08:00,48.2,38.9,30.17,WNW,289,2.0,4.0,70,0.00,,---,0.00,0.00,VWS V14.00,2013-02-03 02:08:00,
2013-02-02 21:09:00,48.1,38.4,30.17,WNW,289,1.0,4.0,69,0.00,,---,0.00,0.00,VWS V14.00,2013-02-03 02:09:00,
2013-02-02 21:10:00,48.1,38.8,30.17,WNW,288,2.0,4.0,70,0.00,,---,0.00,0.00,VWS V14.00,2013-02-03 02:10:00,
2013-02-02 21:11:00,48.1,38.4,30.17,WNW,288,2.0,4.0,69,0.00,,---,0.00,0.00,VWS V14.00,2013-02-03 02:11:00,
2013-02-02 21:12:00,48.1,38.4,30.18,WNW,288,2.0,4.0,69,0.00,,---,0.00,0.00,VWS V14.00,2013-02-03 02:12:00,
2013-02-02 21:13:00,48.0,38.3,30.17,WNW,288,4.0,4.0,69,0.00,,---,0.00,0.00,VWS V14.00,2013-02-03 02:13:00,
2013-02-02 21:14:00,48.0,38.3,30.17,WNW,288,3.0,4.0,69,0.00,,---,0.00,0.00,VWS V14.00,2013-02-03 02:14:00,
2013-02-02 21:15:00,48.0,38.3,30.18,WNW,288,1.0,4.0,69,0.00,,---,0.00,0.00,VWS V14.00,2013-02-03 02:15:00,
2013-02-02 21:16:00,48.0,38.3,30.18,WNW,288,2.0,4.0,69,0.00,,---,0.00,0.00,VWS V14.00,2013-02-03 02:16:00,
2013-02-02 21:17:00,47.9,38.6,30.18,WNW,288,1.0,4.0,70,0.00,,---,0.00,0.00,VWS V14.00,2013-02-03 02:17:00,
2013-02-02 21:18:00,47.9,39.0,30.18,WNW,288,2.0,4.0,71,0.00,,---,0.00,0.00,VWS V14.00,2013-02-03 02:18:00,
2013-02-02 21:19:00,47.9,38.6,30.18,WNW,288,2.0,4.0,70,0.00,,---,0.00,0.00,VWS V14.00,2013-02-03 02:19:00,
2013-02-02 21:20:00,47.8,38.9,30.18,WNW,288,0.0,4.0,71,0.00,,---,0.00,0.00,VWS V14.00,2013-02-03 02:20:00,
2013-02-02 21:21:00,47.8,38.5,30.18,WNW,288,0.0,4.0,70,0.00,,---,0.00,0.00,VWS V14.00,2013-02-03 02:21:00,
2013-02-02 21:22:00,47.7,38.4,30.18,WNW,288,0.0,4.0,70,0.00,,---,0.00,0.00,VWS V14.00,2013-02-03 02:22:00,
2013-02-02 21:23:00,47.7,38.8,30.18,WNW,288,0.0,4.0,71,0.00,,---,0.00,0.00,VWS V14.00,2013-02-03 02:23:00,
2013-02-02 21:24:00,47.7,39.1,30.18,WNW,288,0.0,4.0,72,0.00,,---,0.00,0.00,VWS V14.00,2013-02-03 02:24:00,
2013-02-02 21:25:00,47.7,39.1,30.18,WNW,288,0.0,4.0,72,0.00,,---,0.00,0.00,VWS V14.00,2013-02-03 02:25:00,
2013-02-02 21:26:00,47.7,39.1,30.18,WNW,288,0.0,4.0,72,0.00,,---,0.00,0.00,VWS V14.00,2013-02-03 02:26:00,
2013-02-02 21:27:00,47.7,38.8,30.18,WNW,288,0.0,4.0,71,0.00,,---,0.00,0.00,VWS V14.00,2013-02-03 02:27:00,
2013-02-02 21:28:00,47.7,38.8,30.18,WNW,288,0.0,4.0,71,0.00,,---,0.00,0.00,VWS V14.00,2013-02-03 02:28:00,
2013-02-02 21:29:00,47.7,38.8,30.18,WNW,288,0.0,4.0,71,0.00,,---,0.00,0.00,VWS V14.00,2013-02-03 02:29:00,
2013-02-02 21:30:00,47.7,39.1,30.18,WNW,288,0.0,4.0,72,0.00,,---,0.00,0.00,VWS V14.00,2013-02-03 02:30:00,
2013-02-02 21:31:00,47.7,39.1,30.18,WNW,288,0.0,0.0,72,0.00,,---,0.00,0.00,VWS V14.00,2013-02-03 02:31:00,
2013-02-02 21:32:00,47.8,39.2,30.18,WNW,288,0.0,0.0,72,0.00,,---,0.00,0.00,VWS V14.00,2013-02-03 02:32:00,
2013-02-02 21:33:00,47.8,39.2,30.18,WNW,288,0.0,0.0,72,0.00,,---,0.00,0.00,VWS V14.00,2013-02-03 02:33:00,
2013-02-02 21:34:00,47.8,39.2,30.18,WNW,288,0.0,0.0,72,0.00,,---,0.00,0.00,VWS V14.00,2013-02-03 02:34:00,
2013-02-02 21:35:00,47.8,39.2,30.18,WNW,288,0.0,0.0,72,0.00,,---,0.00,0.00,VWS V14.00,2013-02-03 02:35:00,
2013-02-02 21:36:00,47.8,39.2,30.18,WNW,288,0.0,0.0,72,0.00,,---,0.00,0.00,VWS V14.00,2013-02-03 02:36:00,
2013-02-02 21:37:00,47.8,39.2,30.18,WNW,288,0.0,0.0,72,0.00,,---,0.00,0.00,VWS V14.00,2013-02-03 02:37:00,
2013-02-02 21:38:00,47.8,39.2,30.18,WNW,288,0.0,0.0,72,0.00,,---,0.00,0.00,VWS V14.00,2013-02-03 02:38:00,
2013-02-02 21:39:00,47.8,39.2,30.18,WNW,288,0.0,0.0,72,0.00,,---,0.00,0.00,VWS V14.00,2013-02-03 02:39:00,
2013-02-02 21:40:00,47.8,39.2,30.18,WNW,288,0.0,0.0,72,0.00,,---,0.00,0.00,VWS V14.00,2013-02-03 02:40:00,
2013-02-02 21:41:00,47.8,39.2,30.18,WNW,288,0.0,0.0,72,0.00,,---,0.00,0.00,VWS V14.00,2013-02-03 02:41:00,
2013-02-02 21:42:00,47.7,38.8,30.18,WNW,288,0.0,0.0,71,0.00,,---,0.00,0.00,VWS V14.00,2013-02-03 02:42:00,
2013-02-02 21:43:00,47.7,38.4,30.18,WNW,288,0.0,0.0,70,0.00,,---,0.00,0.00,VWS V14.00,2013-02-03 02:43:00,
2013-02-02 21:44:00,47.6,38.3,30.18,WNW,288,0.0,0.0,70,0.00,,---,0.00,0.00,VWS V14.00,2013-02-03 02:44:00,
2013-02-02 21:45:00,47.6,38.7,30.18,WNW,288,0.0,0.0,71,0.00,,---,0.00,0.00,VWS V14.00,2013-02-03 02:45:00,
2013-02-02 21:46:00,47.6,38.7,30.18,WNW,288,0.0,0.0,71,0.00,,---,0.00,0.00,VWS V14.00,2013-02-03 02:46:00,
2013-02-02 21:47:00,47.6,38.7,30.18,WNW,288,0.0,0.0,71,0.00,,---,0.00,0.00,VWS V14.00,2013-02-03 02:47:00,
2013-02-02 21:48:00,47.5,38.6,30.18,WNW,288,0.0,0.0,71,0.00,,---,0.00,0.00,VWS V14.00,2013-02-03 02:48:00,
2013-02-02 21:49:00,47.5,38.6,30.17,WNW,288,0.0,0.0,71,0.00,,---,0.00,0.00,VWS V14.00,2013-02-03 02:49:00,
2013-02-02 21:50:00,47.4,38.5,30.17,WNW,288,0.0,0.0,71,0.00,,---,0.00,0.00,VWS V14.00,2013-02-03 02:50:00,
2013-02-02 21:51:00,47.4,38.1,30.18,WNW,288,0.0,0.0,70,0.00,,---,0.00,0.00,VWS V14.00,2013-02-03 02:51:00,
2013-02-02 21:52:00,47.3,38.0,30.18,WNW,288,0.0,0.0,70,0.00,,---,0.00,0.00,VWS V14.00,2013-02-03 02:52:00,
2013-02-02 21:53:00,47.3,38.0,30.18,WNW,288,0.0,0.0,70,0.00,,---,0.00,0.00,VWS V14.00,2013-02-03 02:53:00,
2013-02-02 21:54:00,47.2,37.9,30.18,WNW,288,0.0,0.0,70,0.00,,---,0.00,0.00,VWS V14.00,2013-02-03 02:54:00,
2013-02-02 21:55:00,47.2,37.9,30.18,WNW,288,0.0,0.0,70,0.00,,---,0.00,0.00,VWS V14.00,2013-02-03 02:55:00,
2013-02-02 21:56:00,47.1,37.8,30.18,WNW,288,0.0,0.0,70,0.00,,---,0.00,0.00,VWS V14.00,2013-02-03 02:56:00,
2013-02-02 21:57:00,47.1,38.2,30.18,WNW,288,0.0,0.0,71,0.00,,---,0.00,0.00,VWS V14.00,2013-02-03 02:57:00,
2013-02-02 21:58:00,47.0,38.1,30.18,WNW,288,0.0,0.0,71,0.00,,---,0.00,0.00,VWS V14.00,2013-02-03 02:58:00,
2013-02-02 21:59:00,47.0,38.1,30.17,WNW,288,0.0,0.0,71,0.00,,---,0.00,0.00,VWS V14.00,2013-02-03 02:59:00,
2013-02-02 22:00:00,47.0,38.5,30.18,WNW,288,0.0,0.0,72,0.00,,---,0.00,0.00,VWS V14.00,2013-02-03 03:00:00,
2013-02-02 22:01:00,47.0,38.5,30.18,WNW,288,0.0,0.0,72,0.00,,---,0.00,0.00,VWS V14.00,2013-02-03 03:01:00,
2013-02-02 22:02:00,46.9,38.0,30.18,WNW,288,0.0,0.0,71,0.00,,---,0.00,0.00,VWS V14.00,2013-02-03 03:02:00,
2013-02-02 22:03:00,46.9,38.0,30.17,WNW,288,0.0,0.0,71,0.00,,---,0.00,0.00,VWS V14.00,2013-02-03 03:03:00,
2013-02-02 22:04:00,46.9,38.0,30.18,WNW,288,0.0,0.0,71,0.00,,---,0.00,0.00,VWS V14.00,2013-02-03 03:04:00,
2013-02-02 22:05:00,46.8,37.5,30.18,WNW,288,0.0,0.0,70,0.00,,---,0.00,0.00,VWS V14.00,2013-02-03 03:05:00,
2013-02-02 22:06:00,46.8,37.5,30.17,WNW,288,0.0,0.0,70,0.00,,---,0.00,0.00,VWS V14.00,2013-02-03 03:06:00,
2013-02-02 22:07:00,46.7,37.1,30.17,WNW,288,0.0,0.0,69,0.00,,---,0.00,0.00,VWS V14.00,2013-02-03 03:07:00,
2013-02-02 22:08:00,46.7,36.3,30.17,WNW,288,0.0,0.0,67,0.00,,---,0.00,0.00,VWS V14.00,2013-02-03 03:08:00,
2013-02-02 22:09:00,46.7,36.7,30.17,WNW,288,0.0,0.0,68,0.00,,---,0.00,0.00,VWS V14.00,2013-02-03 03:09:00,
2013-02-02 22:10:00,46.7,36.7,30.17,WNW,288,0.0,0.0,68,0.00,,---,0.00,0.00,VWS V14.00,2013-02-03 03:10:00,
2013-02-02 22:11:00,46.6,36.6,30.17,WNW,288,0.0,0.0,68,0.00,,---,0.00,0.00,VWS V14.00,2013-02-03 03:11:00,
2013-02-02 22:12:00,46.6,36.6,30.17,WNW,288,0.0,0.0,68,0.00,,---,0.00,0.00,VWS V14.00,2013-02-03 03:12:00,
2013-02-02 22:13:00,46.6,36.6,30.17,WNW,288,0.0,0.0,68,0.00,,---,0.00,0.00,VWS V14.00,2013-02-03 03:13:00,
2013-02-02 22:14:00,46.6,37.0,30.16,WNW,288,0.0,0.0,69,0.00,,---,0.00,0.00,VWS V14.00,2013-02-03 03:14:00,
2013-02-02 22:15:00,46.5,36.9,30.16,WNW,288,0.0,0.0,69,0.00,,---,0.00,0.00,VWS V14.00,2013-02-03 03:15:00,
2013-02-02 22:16:00,46.5,37.3,30.16,WNW,288,0.0,0.0,70,0.00,,---,0.00,0.00,VWS V14.00,2013-02-03 03:16:00,
2013-02-02 22:17:00,46.5,37.6,30.16,WNW,288,0.0,0.0,71,0.00,,---,0.00,0.00,VWS V14.00,2013-02-03 03:17:00,
2013-02-02 22:18:00,46.5,37.6,30.16,WNW,288,0.0,0.0,71,0.00,,---,0.00,0.00,VWS V14.00,2013-02-03 03:18:00,
2013-02-02 22:19:00,46.5,38.0,30.16,WNW,288,0.0,0.0,72,0.00,,---,0.00,0.00,VWS V14.00,2013-02-03 03:19:00,
2013-02-02 22:20:00,46.5,38.3,30.17,WNW,288,0.0,0.0,73,0.00,,---,0.00,0.00,VWS V14.00,2013-02-03 03:20:00,
2013-02-02 22:21:00,46.5,38.3,30.16,WNW,288,0.0,0.0,73,0.00,,---,0.00,0.00,VWS V14.00,2013-02-03 03:21:00,
2013-02-02 22:22:00,46.5,38.7,30.16,WNW,288,0.0,0.0,74,0.00,,---,0.00,0.00,VWS V14.00,2013-02-03 03:22:00,
2013-02-02 22:23:00,46.5,39.0,30.16,WNW,288,0.0,0.0,75,0.00,,---,0.00,0.00,VWS V14.00,2013-02-03 03:23:00,
2013-02-02 22:24:00,46.5,39.0,30.16,WNW,288,0.0,0.0,75,0.00,,---,0.00,0.00,VWS V14.00,2013-02-03 03:24:00,
2013-02-02 22:25:00,46.6,39.5,30.16,WNW,288,0.0,0.0,76,0.00,,---,0.00,0.00,VWS V14.00,2013-02-03 03:25:00,
2013-02-02 22:26:00,46.6,39.5,30.16,WNW,288,0.0,0.0,76,0.00,,---,0.00,0.00,VWS V14.00,2013-02-03 03:26:00,
2013-02-02 22:27:00,46.6,39.5,30.17,WNW,288,0.0,0.0,76,0.00,,---,0.00,0.00,VWS V14.00,2013-02-03 03:27:00,
2013-02-02 22:28:00,46.6,39.8,30.17,WNW,288,0.0,0.0,77,0.00,,---,0.00,0.00,VWS V14.00,2013-02-03 03:28:00,
2013-02-02 22:29:00,46.6,39.8,30.17,WNW,288,0.0,0.0,77,0.00,,---,0.00,0.00,VWS V14.00,2013-02-03 03:29:00,
2013-02-02 22:30:00,46.5,39.7,30.17,WNW,288,0.0,0.0,77,0.00,,---,0.00,0.00,VWS V14.00,2013-02-03 03:30:00,
2013-02-02 22:31:00,46.5,39.7,30.16,WNW,288,0.0,0.0,77,0.00,,---,0.00,0.00,VWS V14.00,2013-02-03 03:31:00,
2013-02-02 22:32:00,46.4,39.6,30.16,WNW,288,0.0,0.0,77,0.00,,---,0.00,0.00,VWS V14.00,2013-02-03 03:32:00,
2013-02-02 22:33:00,46.4,39.6,30.17,WNW,288,0.0,0.0,77,0.00,,---,0.00,0.00,VWS V14.00,2013-02-03 03:33:00,
2013-02-02 22:34:00,46.4,39.9,30.16,WNW,288,0.0,0.0,78,0.00,,---,0.00,0.00,VWS V14.00,2013-02-03 03:34:00,
2013-02-02 22:35:00,46.4,39.9,30.16,WNW,288,0.0,0.0,78,0.00,,---,0.00,0.00,VWS V14.00,2013-02-03 03:35:00,
2013-02-02 22:36:00,46.4,39.9,30.16,WNW,288,2.0,3.0,78,0.00,,---,0.00,0.00,VWS V14.00,2013-02-03 03:36:00,
2013-02-02 22:37:00,46.4,39.9,30.17,WNW,288,2.0,3.0,78,0.00,,---,0.00,0.00,VWS V14.00,2013-02-03 03:37:00,
2013-02-02 22:38:00,46.4,39.9,30.16,WNW,288,0.0,3.0,78,0.00,,---,0.00,0.00,VWS V14.00,2013-02-03 03:38:00,
2013-02-02 22:39:00,46.5,40.3,30.16,WNW,288,0.0,3.0,79,0.00,,---,0.00,0.00,VWS V14.00,2013-02-03 03:39:00,
2013-02-02 22:40:00,46.5,40.3,30.16,WNW,288,1.0,3.0,79,0.00,,---,0.00,0.00,VWS V14.00,2013-02-03 03:40:00,
2013-02-02 22:41:00,46.5,40.3,30.17,WNW,288,1.0,3.0,79,0.00,,---,0.00,0.00,VWS V14.00,2013-02-03 03:41:00,
2013-02-02 22:42:00,46.6,40.8,30.17,WNW,288,1.0,3.0,80,0.00,,---,0.00,0.00,VWS V14.00,2013-02-03 03:42:00,
2013-02-02 22:43:00,46.7,40.5,30.17,WNW,288,1.0,3.0,79,0.00,,---,0.00,0.00,VWS V14.00,2013-02-03 03:43:00,
2013-02-02 22:44:00,46.8,40.6,30.17,WNW,288,2.0,3.0,79,0.00,,---,0.00,0.00,VWS V14.00,2013-02-03 03:44:00,
2013-02-02 22:45:00,46.8,40.6,30.17,WNW,288,2.0,3.0,79,0.00,,---,0.00,0.00,VWS V14.00,2013-02-03 03:45:00,
2013-02-02 22:46:00,46.9,40.4,30.17,WNW,288,1.0,3.0,78,0.00,,---,0.00,0.00,VWS V14.00,2013-02-03 03:46:00,
2013-02-02 22:47:00,46.9,40.1,30.17,WNW,288,1.0,3.0,77,0.00,,---,0.00,0.00,VWS V14.00,2013-02-03 03:47:00,
2013-02-02 22:48:00,46.9,40.1,30.17,WNW,288,1.0,3.0,77,0.00,,---,0.00,0.00,VWS V14.00,2013-02-03 03:48:00,
2013-02-02 22:49:00,47.0,39.8,30.17,WNW,288,0.0,3.0,76,0.00,,---,0.00,0.00,VWS V14.00,2013-02-03 03:49:00,
2013-02-02 22:50:00,47.0,39.8,30.17,WNW,288,0.0,3.0,76,0.00,,---,0.00,0.00,VWS V14.00,2013-02-03 03:50:00,
2013-02-02 22:51:00,47.0,39.8,30.17,WNW,288,0.0,3.0,76,0.00,,---,0.00,0.00,VWS V14.00,2013-02-03 03:51:00,
2013-02-02 22:52:00,47.0,40.2,30.17,WNW,288,0.0,3.0,77,0.00,,---,0.00,0.00,VWS V14.00,2013-02-03 03:52:00,
2013-02-02 22:53:00,47.0,40.2,30.17,WNW,288,0.0,3.0,77,0.00,,---,0.00,0.00,VWS V14.00,2013-02-03 03:53:00,
2013-02-02 22:54:00,47.1,40.3,30.17,WNW,288,0.0,3.0,77,0.00,,---,0.00,0.00,VWS V14.00,2013-02-03 03:54:00,
2013-02-02 22:55:00,47.0,40.2,30.17,WNW,288,0.0,3.0,77,0.00,,---,0.00,0.00,VWS V14.00,2013-02-03 03:55:00,
2013-02-02 22:56:00,47.0,40.2,30.17,WNW,288,0.0,3.0,77,0.00,,---,0.00,0.00,VWS V14.00,2013-02-03 03:56:00,
2013-02-02 22:57:00,47.0,40.2,30.17,WNW,288,0.0,3.0,77,0.00,,---,0.00,0.00,VWS V14.00,2013-02-03 03:57:00,
2013-02-02 22:58:00,47.0,40.2,30.16,WNW,288,0.0,3.0,77,0.00,,---,0.00,0.00,VWS V14.00,2013-02-03 03:58:00,
2013-02-02 22:59:00,47.0,40.2,30.16,WNW,288,0.0,3.0,77,0.00,,---,0.00,0.00,VWS V14.00,2013-02-03 03:59:00,
2013-02-02 23:00:00,47.0,40.2,30.16,WNW,288,0.0,3.0,77,0.00,,---,0.00,0.00,VWS V14.00,2013-02-03 04:00:00,
2013-02-02 23:01:00,46.9,40.1,30.17,WNW,288,0.0,0.0,77,0.00,,---,0.00,0.00,VWS V14.00,2013-02-03 04:01:00,
2013-02-02 23:02:00,46.9,40.1,30.16,WNW,288,0.0,0.0,77,0.00,,---,0.00,0.00,VWS V14.00,2013-02-03 04:02:00,
2013-02-02 23:03:00,46.9,40.1,30.16,WNW,288,0.0,0.0,77,0.00,,---,0.00,0.00,VWS V14.00,2013-02-03 04:03:00,
2013-02-02 23:04:00,46.9,40.1,30.17,WNW,288,0.0,0.0,77,0.00,,---,0.00,0.00,VWS V14.00,2013-02-03 04:04:00,
2013-02-02 23:05:00,46.9,40.1,30.16,WNW,288,0.0,0.0,77,0.00,,---,0.00,0.00,VWS V14.00,2013-02-03 04:05:00,
2013-02-02 23:06:00,46.9,40.1,30.16,WNW,288,0.0,0.0,77,0.00,,---,0.00,0.00,VWS V14.00,2013-02-03 04:06:00,
2013-02-02 23:07:00,46.9,40.1,30.16,WNW,288,0.0,0.0,77,0.00,,---,0.00,0.00,VWS V14.00,2013-02-03 04:07:00,
2013-02-02 23:08:00,46.9,40.4,30.17,WNW,288,0.0,0.0,78,0.00,,---,0.00,0.00,VWS V14.00,2013-02-03 04:08:00,
2013-02-02 23:09:00,46.9,40.4,30.17,WNW,288,0.0,0.0,78,0.00,,---,0.00,0.00,VWS V14.00,2013-02-03 04:09:00,
2013-02-02 23:10:00,46.9,40.4,30.17,WNW,288,0.0,0.0,78,0.00,,---,0.00,0.00,VWS V14.00,2013-02-03 04:10:00,
2013-02-02 23:11:00,46.9,40.4,30.17,WNW,288,0.0,0.0,78,0.00,,---,0.00,0.00,VWS V14.00,2013-02-03 04:11:00,
2013-02-02 23:12:00,46.9,40.4,30.17,WNW,288,0.0,0.0,78,0.00,,---,0.00,0.00,VWS V14.00,2013-02-03 04:12:00,
2013-02-02 23:13:00,46.9,40.4,30.17,WNW,288,0.0,0.0,78,0.00,,---,0.00,0.00,VWS V14.00,2013-02-03 04:13:00,
2013-02-02 23:14:00,46.9,40.4,30.17,WNW,288,0.0,0.0,78,0.00,,---,0.00,0.00,VWS V14.00,2013-02-03 04:14:00,
2013-02-02 23:15:00,46.9,40.4,30.17,WNW,288,0.0,0.0,78,0.00,,---,0.00,0.00,VWS V14.00,2013-02-03 04:15:00,
2013-02-02 23:16:00,46.9,40.1,30.16,WNW,288,0.0,0.0,77,0.00,,---,0.00,0.00,VWS V14.00,2013-02-03 04:16:00,
2013-02-02 23:17:00,46.9,40.1,30.16,WNW,288,0.0,0.0,77,0.00,,---,0.00,0.00,VWS V14.00,2013-02-03 04:17:00,
2013-02-02 23:18:00,46.9,40.4,30.17,WNW,288,0.0,0.0,78,0.00,,---,0.00,0.00,VWS V14.00,2013-02-03 04:18:00,
2013-02-02 23:19:00,46.9,40.4,30.17,WNW,288,0.0,0.0,78,0.00,,---,0.00,0.00,VWS V14.00,2013-02-03 04:19:00,
2013-02-02 23:20:00,46.8,40.3,30.17,WNW,288,0.0,0.0,78,0.00,,---,0.00,0.00,VWS V14.00,2013-02-03 04:20:00,
2013-02-02 23:21:00,46.8,40.3,30.17,WNW,288,0.0,0.0,78,0.00,,---,0.00,0.00,VWS V14.00,2013-02-03 04:21:00,
2013-02-02 23:22:00,46.8,40.3,30.16,WNW,288,0.0,0.0,78,0.00,,---,0.00,0.00,VWS V14.00,2013-02-03 04:22:00,
2013-02-02 23:23:00,46.8,40.3,30.17,WNW,288,0.0,0.0,78,0.00,,---,0.00,0.00,VWS V14.00,2013-02-03 04:23:00,
2013-02-02 23:24:00,46.8,40.3,30.17,WNW,288,0.0,0.0,78,0.00,,---,0.00,0.00,VWS V14.00,2013-02-03 04:24:00,
2013-02-02 23:25:00,46.8,40.3,30.17,WNW,288,0.0,0.0,78,0.00,,---,0.00,0.00,VWS V14.00,2013-02-03 04:25:00,
2013-02-02 23:26:00,46.8,40.3,30.17,WNW,288,0.0,0.0,78,0.00,,---,0.00,0.00,VWS V14.00,2013-02-03 04:26:00,
2013-02-02 23:27:00,46.8,40.3,30.17,WNW,288,0.0,0.0,78,0.00,,---,0.00,0.00,VWS V14.00,2013-02-03 04:27:00,
2013-02-02 23:28:00,46.5,40.0,30.16,WNW,288,0.0,0.0,78,0.00,,---,0.00,0.00,VWS V14.00,2013-02-03 04:28:00,
2013-02-02 23:29:00,46.4,39.6,30.16,WNW,288,0.0,0.0,77,0.00,,---,0.00,0.00,VWS V14.00,2013-02-03 04:29:00,
2013-02-02 23:30:00,46.4,39.9,30.16,WNW,288,0.0,0.0,78,0.00,,---,0.00,0.00,VWS V14.00,2013-02-03 04:30:00,
2013-02-02 23:31:00,46.4,39.9,30.17,WNW,288,0.0,0.0,78,0.00,,---,0.00,0.00,VWS V14.00,2013-02-03 04:31:00,
2013-02-02 23:32:00,46.3,39.8,30.17,WNW,288,0.0,0.0,78,0.00,,---,0.00,0.00,VWS V14.00,2013-02-03 04:32:00,
2013-02-02 23:33:00,46.3,39.8,30.17,WNW,288,0.0,0.0,78,0.00,,---,0.00,0.00,VWS V14.00,2013-02-03 04:33:00,
2013-02-02 23:34:00,46.3,39.8,30.17,WNW,288,0.0,0.0,78,0.00,,---,0.00,0.00,VWS V14.00,2013-02-03 04:34:00,
2013-02-02 23:35:00,46.3,39.8,30.17,WNW,288,0.0,0.0,78,0.00,,---,0.00,0.00,VWS V14.00,2013-02-03 04:35:00,
2013-02-02 23:36:00,46.2,39.7,30.17,WNW,288,2.0,2.0,78,0.00,,---,0.00,0.00,VWS V14.00,2013-02-03 04:36:00,
2013-02-02 23:37:00,46.2,39.4,30.17,WNW,288,2.0,2.0,77,0.00,,---,0.00,0.00,VWS V14.00,2013-02-03 04:37:00,
2013-02-02 23:38:00,46.2,39.1,30.17,WNW,288,0.0,2.0,76,0.00,,---,0.00,0.00,VWS V14.00,2013-02-03 04:38:00,
2013-02-02 23:39:00,46.2,39.1,30.17,WNW,288,0.0,2.0,76,0.00,,---,0.00,0.00,VWS V14.00,2013-02-03 04:39:00,
2013-02-02 23:40:00,46.1,39.0,30.17,WNW,288,0.0,2.0,76,0.00,,---,0.00,0.00,VWS V14.00,2013-02-03 04:40:00,
2013-02-02 23:41:00,46.1,38.6,30.16,WNW,288,0.0,2.0,75,0.00,,---,0.00,0.00,VWS V14.00,2013-02-03 04:41:00,
2013-02-02 23:42:00,46.2,38.7,30.16,WNW,288,0.0,2.0,75,0.00,,---,0.00,0.00,VWS V14.00,2013-02-03 04:42:00,
2013-02-02 23:43:00,46.2,38.7,30.17,WNW,288,0.0,2.0,75,0.00,,---,0.00,0.00,VWS V14.00,2013-02-03 04:43:00,
2013-02-02 23:44:00,46.2,38.7,30.17,WNW,288,0.0,2.0,75,0.00,,---,0.00,0.00,VWS V14.00,2013-02-03 04:44:00,
2013-02-02 23:45:00,46.2,39.1,30.17,WNW,288,0.0,2.0,76,0.00,,---,0.00,0.00,VWS V14.00,2013-02-03 04:45:00,
2013-02-02 23:46:00,46.2,39.1,30.17,WNW,288,0.0,2.0,76,0.00,,---,0.00,0.00,VWS V14.00,2013-02-03 04:46:00,
2013-02-02 23:47:00,46.1,38.6,30.17,WNW,288,0.0,2.0,75,0.00,,---,0.00,0.00,VWS V14.00,2013-02-03 04:47:00,
2013-02-02 23:48:00,46.1,39.0,30.16,WNW,288,0.0,2.0,76,0.00,,---,0.00,0.00,VWS V14.00,2013-02-03 04:48:00,
2013-02-02 23:49:00,46.1,38.6,30.16,WNW,288,0.0,2.0,75,0.00,,---,0.00,0.00,VWS V14.00,2013-02-03 04:49:00,
2013-02-02 23:50:00,46.0,38.5,30.16,WNW,288,0.0,2.0,75,0.00,,---,0.00,0.00,VWS V14.00,2013-02-03 04:50:00,
2013-02-02 23:51:00,46.0,38.9,30.16,WNW,288,0.0,2.0,76,0.00,,---,0.00,0.00,VWS V14.00,2013-02-03 04:51:00,
2013-02-02 23:52:00,46.0,38.9,30.16,WNW,288,0.0,2.0,76,0.00,,---,0.00,0.00,VWS V14.00,2013-02-03 04:52:00,
2013-02-02 23:53:00,46.0,39.2,30.16,WNW,288,0.0,2.0,77,0.00,,---,0.00,0.00,VWS V14.00,2013-02-03 04:53:00,
2013-02-02 23:54:00,46.0,39.2,30.16,WNW,288,0.0,2.0,77,0.00,,---,0.00,0.00,VWS V14.00,2013-02-03 04:54:00,
2013-02-02 23:55:00,45.9,39.4,30.16,WNW,288,0.0,2.0,78,0.00,,---,0.00,0.00,VWS V14.00,2013-02-03 04:55:00,
2013-02-02 23:56:00,45.9,39.4,30.16,WNW,288,0.0,2.0,78,0.00,,---,0.00,0.00,VWS V14.00,2013-02-03 04:56:00,
2013-02-02 23:57:00,45.9,39.4,30.16,WNW,288,0.0,2.0,78,0.00,,---,0.00,0.00,VWS V14.00,2013-02-03 04:57:00,
2013-02-02 23:58:00,45.9,39.4,30.16,WNW,288,0.0,2.0,78,0.00,,---,0.00,0.00,VWS V14.00,2013-02-03 04:58:00,
2013-02-02 23:59:00,45.8,39.3,30.16,WNW,288,0.0,2.0,78,0.00,,---,0.00,0.00,VWS V14.00,2013-02-03 04:59:00,